[[{"header":{"parameterUnit":"m.s-1","parameterCategory":1,"la1":31.0,"la2":29.5877,"lo1":-88.7671,"lo2":-86.6584,"dx":0.0162,"dy":0.0185,"nx":115,"ny":88,"refTime":"2023-01-29T06:00:00:Z","depth":0,"parameterNumber":2,"parameterNumberName":"U-component_of_WINDS"},"data":[0.0,0.0,0.0,0.0,0.0,0.0,0.0,0.0,0.0,0.0,0.0,0.0,0.0,0.0,0.0,0.0,0.0,0.0,0.0,0.0,0.0,0.0,0.0,0.0,0.0,0.0,0.0,0.0,0.0,0.0,0.0,0.0,0.0,0.0,0.0,0.0,0.0,0.0,0.0,0.0,0.0,0.0,0.0,0.0,0.0,0.0,0.0,0.0,0.0,0.0,0.0,0.0,0.0,0.0,0.0,0.0,0.0,0.0,0.0,0.0,0.0,0.0,0.0,0.0,0.0,0.0,0.0,0.0,0.0,0.0,0.0,0.0,0.0,0.0,0.0,0.0,0.0,0.0,0.0,0.0,0.0,0.0,0.0,0.0,0.0,0.0,0.0,0.0,0.0,0.0,0.0,0.0,0.0,0.0,0.0,0.0,0.0,0.0,0.0,0.0,0.0,0.0,0.0,0.0,0.0,0.0,0.0,0.0,0.0,0.0,0.0,0.0,0.0,0.0,0.0,0.0,0.0,0.0,0.0,0.0,0.0,0.0,0.0,0.0,0.0,0.0,0.0,0.0,0.0,0.0,0.0,0.0,0.0,0.0,0.0,0.0,0.0,0.0,0.0,0.0,0.0,0.0,0.0,0.0,0.0,0.0,0.0,0.0,0.0,0.0,0.0,0.0,0.0,0.0,0.0,0.0,0.0,0.0,0.0,0.0,0.0,0.0,0.0,0.0,0.0,0.0,0.0,0.0,0.0,0.0,0.0,0.0,0.0,0.0,0.0,0.0,0.0,0.0,0.0,0.0,0.0,0.0,0.0,0.0,0.0,0.0,0.0,0.0,0.0,0.0,0.0,0.0,0.0,0.0,0.0,0.0,0.0,0.0,0.0,0.0,0.0,0.0,0.0,0.0,0.0,0.0,0.0,0.0,0.0,0.0,0.0,0.0,0.0,0.0,0.0,0.0,0.0,0.0,0.0,0.0,0.0,0.0,0.0,0.0,0.0,0.0,0.0,0.0,0.0,0.0,0.0,0.0,0.0,0.0,0.0,0.0,0.0,0.0,0.0,0.0,0.0,0.0,0.0,0.0,0.0,0.0,0.0,0.0,0.0,0.0,0.0,0.0,0.0,0.0,0.0,0.0,0.0,0.0,0.0,0.0,0.0,0.0,0.0,0.0,0.0,0.0,0.0,0.0,0.0,0.0,0.0,0.0,0.0,0.0,0.0,0.0,0.0,0.0,0.0,0.0,0.0,0.0,0.0,0.0,0.0,0.0,0.0,0.0,0.0,0.0,0.0,0.0,0.0,0.0,0.0,0.0,0.0,0.0,0.0,0.0,0.0,0.0,0.0,0.0,0.0,0.0,0.0,0.0,0.0,0.0,0.0,0.0,0.0,0.0,0.0,0.0,0.0,0.0,0.0,0.0,0.0,0.0,0.0,0.0,0.0,0.0,0.0,0.0,0.0,0.0,0.0,0.0,0.0,0.0,0.0,0.0,0.0,0.0,0.0,0.0,0.0,0.0,0.0,0.0,0.0,0.0,0.0,0.0,0.0,0.0,0.0,0.0,0.0,0.0,0.0,0.0,0.0,0.0,0.0,0.0,0.0,0.0,0.0,0.0,0.0,0.0,0.0,0.0,0.0,0.0,0.0,0.0,0.0,0.0,0.0,0.0,0.0,0.0,0.0,0.0,0.0,0.0,0.0,0.0,0.0,0.0,0.0,0.0,0.0,0.0,0.0,0.0,0.0,0.0,0.0,0.0,0.0,0.0,0.0,0.0,0.0,0.0,0.0,0.0,0.0,0.0,0.0,0.0,0.0,0.0,0.0,0.0,0.0,0.0,0.0,0.0,0.0,0.0,0.0,0.0,0.0,0.0,0.0,0.0,0.0,0.0,0.0,0.0,0.0,0.0,0.0,0.0,0.0,0.0,0.0,0.0,0.0,0.0,0.0,0.0,0.0,0.0,0.0,0.0,0.0,0.0,0.0,0.0,0.0,0.0,0.0,0.0,0.0,0.0,0.0,0.0,0.0,0.0,0.0,0.0,0.0,0.0,0.0,0.0,0.0,0.0,0.0,0.0,0.0,0.0,0.0,0.0,0.0,0.0,0.0,0.0,0.0,0.0,0.0,0.0,0.0,0.0,0.0,0.0,0.0,0.0,0.0,0.0,0.0,0.0,0.0,0.0,0.0,0.0,0.0,0.0,0.0,0.0,0.0,0.0,0.0,0.0,0.0,0.0,0.0,0.0,0.0,0.0,0.0,0.0,0.0,0.0,0.0,0.0,0.0,0.0,0.0,0.0,0.0,0.0,0.0,0.0,0.0,0.0,0.0,0.0,0.0,0.0,0.0,0.0,0.0,0.0,0.0,0.0,0.0,0.0,0.0,0.0,0.0,0.0,0.0,0.0,0.0,0.0,0.0,0.0,0.0,0.0,0.0,0.0,0.0,0.0,0.0,0.0,0.0,0.0,0.0,0.0,0.0,0.0,0.0,0.0,0.0,0.0,0.0,0.0,0.0,0.0,0.0,0.0,0.0,0.0,0.0,0.0,0.0,0.0,0.0,0.0,0.0,0.0,0.0,0.0,0.0,0.0,0.0,0.0,0.0,0.0,0.0,0.0,0.0,0.0,0.0,0.0,0.0,0.0,0.0,0.0,0.0,0.0,0.0,0.0,0.0,0.0,0.0,0.0,0.0,0.0,0.0,0.0,0.0,0.0,0.0,0.0,0.0,0.0,0.0,0.0,0.0,0.0,0.0,0.0,0.0,0.0,0.0,0.0,0.0,0.0,0.0,0.0,0.0,0.0,0.0,0.0,0.0,0.0,0.0,0.0,0.0,0.0,0.0,0.0,0.0,0.0,0.0,0.0,0.0,0.0,0.0,0.0,0.0,0.0,0.0,0.0,0.0,0.0,0.0,0.0,0.0,0.0,0.0,0.0,0.0,0.0,0.0,0.0,0.0,0.0,0.0,0.0,0.0,0.0,0.0,0.0,0.0,0.0,0.0,0.0,0.0,0.0,0.0,0.0,0.0,0.0,0.0,0.0,0.0,0.0,0.0,0.0,0.0,0.0,0.0,0.0,0.0,0.0,0.0,0.0,0.0,0.0,0.0,0.0,0.0,0.0,0.0,0.0,0.0,0.0,0.0,0.0,0.0,0.0,0.0,0.0,0.0,0.0,0.0,0.0,0.0,0.0,0.0,0.0,0.0,0.0,0.0,0.0,0.0,0.0,0.0,0.0,0.0,0.0,0.0,0.0,0.0,0.0,0.0,0.0,0.0,0.0,0.0,0.0,0.0,0.0,0.0,0.0,0.0,0.0,0.0,0.0,0.0,0.0,0.0,0.0,0.0,0.0,0.0,0.0,0.0,0.0,0.0,0.0,0.0,0.0,0.0,0.0,0.0,0.0,0.0,0.0,0.0,0.0,0.0,0.0,0.0,0.0,0.0,0.0,0.0,0.0,0.0,0.0,0.0,0.0,0.0,0.0,0.0,0.0,0.0,0.0,0.0,0.0,0.0,0.0,0.0,0.0,0.0,0.0,0.0,0.0,0.0,0.0,0.0,0.0,0.0,0.0,0.0,0.0,0.0,0.0,0.0,0.0,0.0,0.0,0.0,0.0,0.0,0.0,0.0,0.0,0.0,0.0,0.0,0.0,0.0,0.0,0.0,0.0,0.0,0.0,0.0,0.0,0.0,0.0,0.0,0.0,0.0,0.0,0.0,0.0,0.0,0.0,0.0,0.0,0.0,0.0,0.0,0.0,0.0,0.0,0.0,0.0,0.0,0.0,0.0,0.0,0.0,0.0,0.0,0.0,0.0,0.0,0.0,0.0,0.0,0.0,0.0,0.0,0.0,0.0,0.0,0.0,0.0,0.0,0.0,0.0,0.0,0.0,0.0,0.0,0.0,0.0,0.0,0.0,0.0,0.0,0.0,0.0,0.0,0.0,0.0,0.0,0.0,0.0,0.0,0.0,0.0,0.0,0.0,0.0,0.0,0.0,0.0,0.0,0.0,0.0,0.0,0.0,0.0,0.0,0.0,0.0,0.0,0.0,0.0,0.0,0.0,0.0,0.0,0.0,0.0,0.0,0.0,0.0,0.0,0.0,0.0,0.0,0.0,0.0,0.0,0.0,0.0,0.0,0.0,0.0,0.0,0.0,0.0,0.0,0.0,0.0,0.0,0.0,0.0,0.0,0.0,0.0,0.0,0.0,0.0,0.0,0.0,0.0,0.0,0.0,0.0,0.0,0.0,0.0,0.0,0.0,0.0,0.0,0.0,0.0,-1.6099,0.0,0.0,0.0,0.0,0.0,0.0,0.0,0.0,0.0,0.0,0.0,0.0,0.0,0.0,0.0,0.0,0.0,0.0,0.0,0.0,0.0,0.0,0.0,0.0,0.0,0.0,0.0,0.0,0.0,0.0,0.0,0.0,0.0,0.0,0.0,0.0,0.0,0.0,0.0,0.0,0.0,0.0,0.0,0.0,0.0,0.0,0.0,0.0,0.0,0.0,0.0,0.0,0.0,0.0,0.0,0.0,0.0,0.0,0.0,0.0,0.0,0.0,0.0,0.0,0.0,0.0,0.0,0.0,0.0,0.0,0.0,0.0,0.0,0.0,0.0,0.0,0.0,0.0,0.0,0.0,0.0,0.0,0.0,0.0,0.0,0.0,0.0,0.0,0.0,0.0,0.0,0.0,0.0,0.0,0.0,0.0,0.0,0.0,0.0,0.0,0.0,0.0,0.0,0.0,0.0,0.0,0.0,0.0,0.0,0.0,-1.4152,-1.5283,-1.4427,-1.4612,-1.6028,0.0,0.0,0.0,0.0,0.0,0.0,0.0,0.0,0.0,0.0,0.0,0.0,0.0,0.0,0.0,0.0,0.0,0.0,0.0,0.0,0.0,0.0,0.0,0.0,0.0,0.0,0.0,0.0,0.0,0.0,0.0,0.0,0.0,0.0,0.0,0.0,0.0,0.0,0.0,0.0,0.0,0.0,0.0,0.0,0.0,0.0,0.0,0.0,0.0,0.0,0.0,0.0,0.0,0.0,0.0,0.0,0.0,0.0,0.0,0.0,0.0,0.0,0.0,0.0,0.0,0.0,0.0,0.0,0.0,0.0,0.0,0.0,0.0,0.0,0.0,0.0,0.0,0.0,0.0,0.0,0.0,0.0,0.0,0.0,0.0,0.0,0.0,0.0,0.0,0.0,0.0,0.0,0.0,0.0,0.0,0.0,0.0,0.0,0.0,0.0,0.0,0.0,0.0,0.0,0.0,0.0,0.0,0.0,0.0,0.0,0.0,0.0,-1.3959,-1.3862,-1.5171,0.0,0.0,0.0,0.0,0.0,0.0,0.0,0.0,0.0,0.0,0.0,0.0,0.0,0.0,0.0,0.0,0.0,0.0,0.0,0.0,0.0,0.0,0.0,0.0,0.0,0.0,0.0,0.0,0.0,0.0,0.0,0.0,0.0,0.0,0.0,0.0,0.0,0.0,0.0,0.0,0.0,0.0,0.0,0.0,0.0,0.0,0.0,0.0,0.0,0.0,0.0,0.0,0.0,0.0,0.0,0.0,0.0,0.0,0.0,0.0,0.0,0.0,0.0,0.0,0.0,0.0,0.0,0.0,0.0,0.0,0.0,0.0,0.0,0.0,0.0,0.0,0.0,0.0,0.0,0.0,0.0,0.0,0.0,0.0,0.0,0.0,0.0,0.0,0.0,0.0,0.0,0.0,0.0,0.0,0.0,0.0,0.0,0.0,0.0,0.0,0.0,0.0,0.0,0.0,0.0,0.0,0.0,0.0,0.0,0.0,-1.584,-1.5397,-1.5417,0.0,-1.3884,0.0,0.0,0.0,0.0,0.0,0.0,0.0,0.0,0.0,0.0,0.0,0.0,0.0,0.0,0.0,0.0,0.0,0.0,0.0,0.0,0.0,0.0,0.0,0.0,0.0,0.0,0.0,0.0,0.0,0.0,0.0,0.0,0.0,0.0,0.0,0.0,0.0,0.0,0.0,0.0,0.0,0.0,0.0,0.0,0.0,0.0,0.0,0.0,0.0,0.0,0.0,0.0,0.0,0.0,0.0,0.0,0.0,0.0,0.0,0.0,0.0,0.0,0.0,0.0,0.0,0.0,0.0,0.0,0.0,0.0,0.0,0.0,0.0,0.0,0.0,0.0,0.0,0.0,0.0,0.0,0.0,0.0,0.0,0.0,0.0,0.0,0.0,0.0,0.0,0.0,0.0,0.0,0.0,0.0,0.0,0.0,0.0,0.0,0.0,0.0,0.0,0.0,0.0,0.0,0.0,0.0,0.0,0.0,0.0,0.0,-1.4538,-1.4526,-1.4505,-1.4143,0.0,0.0,0.0,0.0,0.0,0.0,0.0,0.0,0.0,0.0,0.0,0.0,0.0,0.0,0.0,0.0,0.0,0.0,0.0,0.0,0.0,0.0,0.0,0.0,0.0,0.0,0.0,0.0,0.0,0.0,0.0,0.0,0.0,0.0,0.0,0.0,0.0,0.0,0.0,0.0,0.0,0.0,0.0,0.0,0.0,0.0,0.0,0.0,0.0,0.0,0.0,0.0,0.0,0.0,0.0,0.0,0.0,0.0,0.0,0.0,0.0,0.0,0.0,0.0,0.0,0.0,0.0,0.0,0.0,0.0,0.0,0.0,0.0,0.0,0.0,0.0,0.0,0.0,0.0,0.0,0.0,0.0,0.0,0.0,0.0,0.0,0.0,0.0,0.0,0.0,0.0,0.0,0.0,0.0,0.0,0.0,0.0,0.0,0.0,0.0,0.0,0.0,0.0,0.0,0.0,0.0,0.0,0.0,0.0,0.0,-1.3892,-1.3712,-1.3742,-1.3667,-1.3396,-1.2934,0.0,0.0,0.0,0.0,0.0,0.0,0.0,0.0,0.0,0.0,0.0,0.0,0.0,0.0,0.0,0.0,0.0,0.0,0.0,0.0,0.0,0.0,0.0,0.0,0.0,0.0,0.0,0.0,0.0,0.0,0.0,0.0,0.0,0.0,0.0,0.0,0.0,0.0,0.0,0.0,0.0,0.0,0.0,0.0,0.0,0.0,0.0,0.0,0.0,0.0,0.0,0.0,0.0,0.0,0.0,0.0,0.0,0.0,0.0,0.0,0.0,0.0,0.0,0.0,0.0,0.0,0.0,0.0,0.0,0.0,0.0,0.0,0.0,0.0,0.0,0.0,0.0,0.0,0.0,0.0,0.0,0.0,0.0,0.0,0.0,0.0,0.0,0.0,0.0,0.0,0.0,0.0,0.0,0.0,0.0,0.0,0.0,0.0,0.0,0.0,0.0,0.0,0.0,0.0,0.0,0.0,0.0,0.0,-1.6085,-1.5201,-1.4278,-1.34,-1.3501,-1.3226,0.0,0.0,0.0,0.0,0.0,0.0,0.0,0.0,0.0,0.0,0.0,0.0,0.0,0.0,0.0,0.0,0.0,0.0,0.0,0.0,0.0,0.0,0.0,0.0,0.0,0.0,0.0,0.0,0.0,0.0,0.0,0.0,0.0,0.0,0.0,0.0,0.0,0.0,0.0,0.0,0.0,0.0,0.0,0.0,0.0,0.0,0.0,0.0,0.0,0.0,0.0,0.0,0.0,0.0,0.0,0.0,0.0,0.0,0.0,0.0,0.0,0.0,0.0,0.0,0.0,0.0,0.0,0.0,0.0,0.0,0.0,0.0,0.0,0.0,0.0,0.0,0.0,0.0,0.0,0.0,0.0,0.0,0.0,0.0,0.0,0.0,0.0,0.0,0.0,0.0,0.0,0.0,0.0,0.0,0.0,0.0,0.0,0.0,0.0,0.0,0.0,0.0,0.0,0.0,0.0,0.0,0.0,0.0,0.0,-1.5487,-1.4626,-1.4097,-1.3861,-1.3429,-1.3168,0.0,0.0,0.0,0.0,0.0,0.0,0.0,0.0,0.0,0.0,0.0,0.0,0.0,0.0,0.0,0.0,0.0,0.0,0.0,0.0,0.0,0.0,0.0,0.0,0.0,0.0,0.0,0.0,0.0,0.0,0.0,0.0,0.0,0.0,0.0,0.0,0.0,0.0,0.0,0.0,0.0,0.0,0.0,0.0,0.0,0.0,0.0,0.0,0.0,0.0,0.0,0.0,0.0,0.0,0.0,0.0,0.0,0.0,0.0,0.0,0.0,0.0,0.0,0.0,0.0,0.0,0.0,0.0,0.0,0.0,0.0,0.0,0.0,0.0,0.0,0.0,0.0,0.0,0.0,0.0,0.0,0.0,0.0,0.0,0.0,0.0,0.0,0.0,0.0,0.0,0.0,0.0,0.0,0.0,0.0,0.0,0.0,0.0,0.0,0.0,0.0,0.0,0.0,0.0,0.0,0.0,0.0,0.0,0.0,-1.4745,0.0,-1.3866,-1.3628,-1.3119,-1.2895,0.0,0.0,0.0,0.0,0.0,0.0,0.0,0.0,0.0,0.0,0.0,0.0,0.0,0.0,0.0,0.0,0.0,0.0,0.0,0.0,0.0,0.0,0.0,0.0,0.0,0.0,0.0,0.0,0.0,0.0,0.0,0.0,0.0,0.0,0.0,0.0,0.0,0.0,0.0,0.0,0.0,0.0,0.0,0.0,0.0,0.0,0.0,0.0,0.0,0.0,0.0,0.0,0.0,0.0,0.0,0.0,0.0,0.0,0.0,0.0,0.0,0.0,0.0,0.0,0.0,0.0,0.0,0.0,0.0,0.0,0.0,0.0,0.0,0.0,0.0,0.0,0.0,0.0,0.0,0.0,0.0,0.0,0.0,0.0,0.0,0.0,0.0,0.0,0.0,0.0,0.0,0.0,0.0,0.0,0.0,0.0,0.0,0.0,0.0,0.0,0.0,0.0,0.0,0.0,0.0,0.0,0.0,0.0,-1.5325,-1.4141,-1.4185,-1.3731,-1.2595,-1.2576,-1.2493,0.0,0.0,0.0,0.0,0.0,0.0,0.0,0.0,0.0,0.0,0.0,0.0,0.0,0.0,0.0,0.0,0.0,0.0,0.0,0.0,0.0,0.0,0.0,0.0,0.0,0.0,0.0,0.0,0.0,0.0,0.0,0.0,0.0,0.0,0.0,0.0,0.0,0.0,0.0,0.0,0.0,0.0,0.0,0.0,0.0,0.0,0.0,0.0,0.0,0.0,0.0,0.0,0.0,0.0,0.0,0.0,0.0,0.0,0.0,0.0,0.0,0.0,0.0,0.0,0.0,0.0,0.0,0.0,0.0,0.0,0.0,0.0,0.0,0.0,0.0,0.0,0.0,0.0,0.0,0.0,0.0,0.0,0.0,0.0,0.0,0.0,0.0,0.0,0.0,0.0,0.0,0.0,0.0,0.0,0.0,0.0,0.0,0.0,0.0,0.0,0.0,0.0,0.0,0.0,0.0,0.0,0.0,0.0,0.0,-1.544,-1.4274,-1.3719,-1.3692,-1.2665,-1.2403,0.0,0.0,0.0,0.0,0.0,0.0,0.0,0.0,0.0,0.0,0.0,0.0,0.0,0.0,0.0,0.0,0.0,0.0,0.0,0.0,0.0,0.0,0.0,0.0,0.0,0.0,0.0,0.0,0.0,0.0,0.0,0.0,0.0,0.0,0.0,0.0,0.0,0.0,0.0,0.0,0.0,0.0,0.0,0.0,0.0,0.0,0.0,0.0,0.0,0.0,0.0,0.0,0.0,0.0,0.0,0.0,0.0,0.0,0.0,0.0,0.0,0.0,0.0,0.0,0.0,0.0,0.0,0.0,0.0,0.0,0.0,0.0,0.0,0.0,0.0,0.0,0.0,0.0,0.0,0.0,0.0,0.0,0.0,0.0,0.0,0.0,0.0,0.0,0.0,0.0,0.0,0.0,0.0,0.0,0.0,0.0,0.0,0.0,0.0,0.0,0.0,0.0,0.0,0.0,0.0,0.0,0.0,0.0,0.0,-1.5337,-1.373,-1.3043,-1.3346,-1.2484,-1.2288,-1.2817,0.0,0.0,0.0,0.0,0.0,0.0,0.0,0.0,0.0,0.0,0.0,0.0,0.0,0.0,0.0,0.0,0.0,0.0,0.0,0.0,0.0,0.0,0.0,0.0,0.0,0.0,0.0,0.0,0.0,0.0,0.0,0.0,0.0,0.0,0.0,0.0,0.0,0.0,0.0,0.0,0.0,0.0,0.0,0.0,0.0,0.0,0.0,0.0,0.0,0.0,0.0,0.0,0.0,0.0,0.0,0.0,0.0,0.0,0.0,0.0,0.0,0.0,0.0,0.0,0.0,0.0,0.0,0.0,0.0,0.0,0.0,0.0,0.0,0.0,0.0,0.0,0.0,0.0,0.0,0.0,0.0,0.0,0.0,0.0,0.0,0.0,0.0,0.0,0.0,0.0,0.0,0.0,0.0,0.0,0.0,0.0,0.0,0.0,0.0,0.0,0.0,0.0,0.0,0.0,0.0,0.0,0.0,0.0,-1.4014,-1.276,-1.2029,-1.1798,-1.2165,-1.2138,0.0,0.0,0.0,0.0,0.0,0.0,0.0,0.0,0.0,0.0,0.0,0.0,0.0,0.0,0.0,0.0,0.0,0.0,0.0,0.0,0.0,0.0,0.0,0.0,0.0,0.0,0.0,0.0,0.0,0.0,0.0,0.0,0.0,0.0,0.0,0.0,0.0,0.0,0.0,0.0,0.0,0.0,0.0,0.0,0.0,0.0,0.0,0.0,0.0,0.0,0.0,0.0,0.0,0.0,0.0,0.0,0.0,0.0,0.0,0.0,0.0,0.0,0.0,0.0,0.0,0.0,0.0,0.0,0.0,0.0,0.0,0.0,0.0,0.0,0.0,0.0,0.0,0.0,0.0,0.0,0.0,0.0,0.0,0.0,0.0,0.0,0.0,0.0,0.0,0.0,0.0,0.0,0.0,0.0,0.0,0.0,0.0,0.0,0.0,0.0,0.0,0.0,0.0,0.0,0.0,0.0,0.0,0.0,0.0,-1.3823,-1.2722,-1.2248,-1.2427,-1.1918,-1.1911,0.0,0.0,0.0,0.0,0.0,0.0,0.0,0.0,0.0,0.0,0.0,0.0,0.0,0.0,0.0,0.0,0.0,0.0,0.0,0.0,0.0,0.0,0.0,0.0,0.0,0.0,0.0,0.0,0.0,0.0,0.0,0.0,0.0,0.0,0.0,0.0,0.0,0.0,0.0,0.0,0.0,0.0,0.0,0.0,0.0,0.0,0.0,0.0,0.0,0.0,0.0,0.0,0.0,0.0,0.0,0.0,0.0,0.0,0.0,0.0,0.0,0.0,0.0,0.0,0.0,0.0,0.0,0.0,0.0,0.0,0.0,0.0,0.0,0.0,0.0,0.0,0.0,0.0,0.0,0.0,0.0,0.0,0.0,0.0,0.0,0.0,0.0,0.0,0.0,0.0,0.0,0.0,0.0,0.0,0.0,0.0,0.0,0.0,0.0,0.0,0.0,0.0,0.0,0.0,0.0,0.0,0.0,0.0,-1.5504,-1.3225,-1.2683,-1.2474,-1.2618,-1.2378,-1.2082,0.0,0.0,0.0,0.0,0.0,0.0,0.0,0.0,0.0,0.0,0.0,0.0,0.0,0.0,0.0,0.0,0.0,0.0,0.0,0.0,0.0,0.0,0.0,0.0,0.0,0.0,0.0,0.0,0.0,0.0,0.0,0.0,0.0,0.0,0.0,0.0,0.0,0.0,0.0,0.0,0.0,0.0,0.0,0.0,0.0,0.0,0.0,0.0,0.0,0.0,0.0,0.0,0.0,0.0,0.0,0.0,0.0,0.0,0.0,0.0,0.0,0.0,0.0,0.0,0.0,0.0,0.0,0.0,0.0,0.0,0.0,0.0,0.0,0.0,0.0,0.0,0.0,0.0,0.0,0.0,0.0,0.0,0.0,0.0,0.0,0.0,0.0,0.0,0.0,0.0,0.0,0.0,0.0,0.0,0.0,0.0,0.0,0.0,0.0,0.0,0.0,0.0,0.0,0.0,0.0,0.0,0.0,0.0,-1.5436,-1.2653,-1.2655,-1.2676,-1.2588,-1.2991,-1.2391,0.0,0.0,0.0,0.0,0.0,0.0,0.0,0.0,0.0,0.0,0.0,0.0,0.0,0.0,0.0,0.0,0.0,0.0,0.0,0.0,0.0,0.0,0.0,0.0,0.0,0.0,0.0,0.0,0.0,0.0,0.0,0.0,0.0,0.0,0.0,0.0,0.0,0.0,0.0,0.0,0.0,0.0,0.0,0.0,0.0,0.0,0.0,0.0,0.0,0.0,0.0,0.0,0.0,0.0,0.0,0.0,0.0,0.0,0.0,0.0,0.0,0.0,0.0,0.0,0.0,0.0,0.0,0.0,0.0,0.0,0.0,0.0,0.0,0.0,0.0,0.0,0.0,0.0,0.0,0.0,0.0,0.0,0.0,0.0,0.0,0.0,0.0,0.0,0.0,0.0,0.0,0.0,0.0,0.0,0.0,0.0,0.0,0.0,0.0,0.0,0.0,0.0,0.0,0.0,0.0,0.0,0.0,0.0,-1.438,-1.3696,-1.3037,-1.2813,-1.3025,-1.2694,-1.2135,0.0,0.0,0.0,0.0,0.0,0.0,0.0,0.0,0.0,0.0,0.0,0.0,0.0,0.0,0.0,0.0,0.0,0.0,0.0,0.0,0.0,0.0,0.0,0.0,0.0,0.0,0.0,0.0,0.0,0.0,0.0,0.0,0.0,0.0,0.0,0.0,0.0,0.0,0.0,0.0,0.0,0.0,0.0,0.0,0.0,0.0,0.0,0.0,-0.5902,0.0,0.0,0.0,0.0,0.0,0.0,0.0,0.0,0.0,0.0,0.0,0.0,0.0,0.0,0.0,0.0,0.0,0.0,0.0,0.0,0.0,0.0,0.0,0.0,0.0,0.0,0.0,0.0,0.0,0.0,0.0,0.0,0.0,0.0,0.0,0.0,0.0,0.0,0.0,0.0,0.0,0.0,0.0,0.0,0.0,0.0,0.0,0.0,0.0,0.0,0.0,0.0,0.0,0.0,0.0,0.0,0.0,0.0,0.0,-1.4679,-1.4092,-1.3651,-1.3238,-1.289,-1.2696,-1.2157,0.0,0.0,0.0,0.0,0.0,0.0,0.0,0.0,0.0,0.0,0.0,0.0,0.0,0.0,0.0,0.0,0.0,0.0,0.0,0.0,0.0,0.0,0.0,0.0,0.0,0.0,0.0,0.0,0.0,0.0,0.0,0.0,0.0,0.0,0.0,0.0,0.0,0.0,0.0,0.0,0.0,0.0,0.0,0.0,0.0,0.0,0.0,0.0,0.0,0.0,0.0,0.0,0.0,0.0,0.0,0.0,0.0,0.0,0.0,0.0,0.0,0.0,0.0,0.0,0.0,0.0,0.0,0.0,0.0,0.0,0.0,0.0,0.0,0.0,0.0,0.0,0.0,0.0,0.0,0.0,0.0,0.0,0.0,0.0,0.0,0.0,0.0,0.0,0.0,0.0,0.0,0.0,0.0,0.0,0.0,0.0,0.0,0.0,0.0,0.0,0.0,0.0,0.0,0.0,0.0,0.0,0.0,-1.6602,-1.5274,-1.4451,-1.4224,-1.3658,-1.2813,-1.2842,-1.2236,-1.0863,0.0,0.0,0.0,0.0,0.0,0.0,0.0,0.0,0.0,0.0,0.0,0.0,0.0,0.0,0.0,0.0,0.0,0.0,0.0,0.0,0.0,0.0,0.0,0.0,0.0,0.0,0.0,0.0,0.0,0.0,0.0,0.0,0.0,0.0,0.0,0.0,0.0,0.0,-1.1348,-0.8137,0.0,0.0,0.0,0.0,0.0,0.0,0.0,0.0,-0.5578,0.0,0.0,0.0,0.0,0.0,0.0,0.0,0.0,0.0,0.0,0.0,0.0,0.0,0.0,0.0,0.0,0.0,0.0,0.0,0.0,0.0,0.0,0.0,0.0,0.0,0.0,0.0,0.0,0.0,0.0,0.0,0.0,0.0,0.0,0.0,0.0,0.0,0.0,0.0,0.0,0.0,0.0,0.0,0.0,0.0,0.0,0.0,0.0,0.0,0.0,0.0,0.0,0.0,0.0,0.0,0.0,-1.8309,-1.5994,-1.4976,-1.5336,-1.4157,-1.3658,-1.3894,-1.3045,-1.2215,-1.151,0.0,0.0,0.0,0.0,0.0,0.0,0.0,0.0,0.0,0.0,0.0,0.0,0.0,0.0,0.0,0.0,0.0,0.0,0.0,0.0,0.0,0.0,0.0,0.0,0.0,0.0,0.0,0.0,0.0,0.0,0.0,0.0,0.0,0.0,0.0,0.0,0.0,0.0,0.0,-0.7132,-0.6061,0.0,0.0,0.0,0.0,0.0,0.0,0.0,0.0,-0.4466,0.0,0.0,0.0,0.0,0.0,0.0,0.0,0.0,0.0,0.0,0.0,0.0,0.0,0.0,0.0,0.0,0.0,0.0,0.0,0.0,0.0,0.0,0.0,0.0,0.0,0.0,0.0,0.0,0.0,0.0,0.0,0.0,0.0,0.0,0.0,0.0,0.0,0.0,0.0,0.0,0.0,0.0,0.0,0.0,0.0,0.0,0.0,0.0,0.0,0.0,0.0,0.0,0.0,0.0,0.0,-1.7749,-1.5916,-1.5024,-1.5242,-1.4628,-1.4118,-1.3789,-1.3289,-1.256,0.0,0.0,0.0,0.0,0.0,0.0,0.0,0.0,0.0,0.0,0.0,0.0,0.0,0.0,0.0,0.0,0.0,0.0,0.0,0.0,0.0,0.0,0.0,0.0,0.0,0.0,0.0,0.0,0.0,0.0,0.0,0.0,0.0,0.0,0.0,0.0,0.0,0.0,0.0,0.0,-0.6007,-0.5336,-0.4841,0.0,0.0,0.0,0.0,0.0,0.0,-0.5195,-0.5233,0.0,0.0,0.0,0.0,0.0,0.0,0.0,0.0,0.0,0.0,0.0,0.0,0.0,0.0,0.0,0.0,0.0,0.0,0.0,0.0,0.0,0.0,0.0,0.0,0.0,0.0,0.0,0.0,0.0,0.0,0.0,0.0,0.0,0.0,0.0,0.0,0.0,0.0,0.0,0.0,0.0,0.0,0.0,0.0,0.0,0.0,0.0,0.0,0.0,0.0,0.0,0.0,0.0,0.0,0.0,-1.7042,-1.5911,-1.5171,-1.4835,-1.4823,-1.4408,-1.3589,-1.3394,-1.2755,0.0,0.0,0.0,0.0,0.0,0.0,0.0,0.0,0.0,0.0,0.0,0.0,0.0,0.0,0.0,0.0,0.0,0.0,0.0,0.0,0.0,0.0,0.0,0.0,0.0,0.0,0.0,0.0,0.0,0.0,0.0,0.0,0.0,0.0,0.0,0.0,0.0,0.0,0.0,0.0,0.0,-0.4257,-0.3553,-0.3818,0.0,0.0,0.0,0.0,-0.4846,-0.5422,0.0,0.0,0.0,0.0,0.0,0.0,0.0,0.0,0.0,0.0,0.0,0.0,0.0,0.0,0.0,0.0,0.0,0.0,0.0,0.0,0.0,0.0,0.0,0.0,0.0,0.0,0.0,0.0,0.0,0.0,0.0,0.0,0.0,0.0,0.0,0.0,0.0,0.0,0.0,0.0,0.0,0.0,0.0,0.0,0.0,0.0,0.0,0.0,0.0,0.0,0.0,0.0,0.0,0.0,0.0,0.0,-1.5915,-1.5811,-1.5416,-1.4582,-1.4035,-1.3894,-1.4154,-1.2991,-1.2234,0.0,0.0,0.0,0.0,0.0,0.0,0.0,0.0,0.0,0.0,0.0,0.0,0.0,0.0,0.0,0.0,0.0,0.0,0.0,0.0,0.0,0.0,0.0,0.0,0.0,0.0,0.0,0.0,0.0,0.0,0.0,0.0,0.0,0.0,0.0,0.0,0.0,0.0,0.0,0.0,0.0,-0.2987,-0.2503,-0.2835,-0.3169,0.0,0.0,-0.3856,-0.4075,-0.502,0.0,0.0,0.0,0.0,0.0,0.0,0.0,0.0,0.0,0.0,0.0,0.0,0.0,0.0,0.0,0.0,0.0,0.0,0.0,0.0,0.0,0.0,0.0,0.0,0.0,0.0,0.0,0.0,0.0,0.0,0.0,0.0,0.0,0.0,0.0,0.0,0.0,0.0,0.0,0.0,0.0,0.0,0.0,0.0,0.0,0.0,0.0,0.0,0.0,0.0,0.0,0.0,0.0,0.0,0.0,-1.7103,-1.554,-1.4852,-1.4418,-1.4129,-1.3763,-1.3705,-1.3894,-1.2816,-1.2194,0.0,0.0,0.0,0.0,0.0,0.0,0.0,0.0,0.0,0.0,0.0,0.0,0.0,0.0,0.0,0.0,0.0,0.0,0.0,0.0,0.0,0.0,0.0,0.0,0.0,0.0,0.0,0.0,0.0,0.0,0.0,0.0,0.0,0.0,0.0,0.0,0.0,0.0,0.0,0.0,0.0,0.0,-0.1608,-0.1575,0.0,0.0,0.0,-0.2591,-0.3015,0.0,0.0,0.0,0.0,0.0,0.0,0.0,0.0,0.0,0.0,0.0,0.0,0.0,0.0,0.0,0.0,0.0,0.0,0.0,0.0,0.0,0.0,0.0,0.0,0.0,0.0,0.0,0.0,0.0,0.0,0.0,0.0,0.0,0.0,0.0,0.0,0.0,0.0,0.0,0.0,0.0,0.0,0.0,0.0,0.0,0.0,0.0,0.0,0.0,0.0,0.0,0.0,0.0,0.0,0.0,0.0,0.0,-1.5095,-1.4116,-1.3645,-1.3742,-1.3668,-1.361,-1.36,-1.2744,0.0,0.0,0.0,0.0,0.0,0.0,0.0,0.0,0.0,0.0,0.0,0.0,0.0,0.0,0.0,0.0,0.0,0.0,0.0,0.0,0.0,0.0,0.0,0.0,0.0,0.0,0.0,-1.9828,0.0,0.0,0.0,0.0,0.0,0.0,0.0,0.0,0.0,0.0,0.0,0.0,0.0,0.0,-0.1891,-0.0546,-0.0477,-0.0554,0.0,0.0,-0.1664,-0.2153,-0.3357,-0.4805,0.0,0.0,0.0,0.0,0.0,0.0,0.0,0.0,0.0,0.0,0.0,0.0,0.0,0.0,0.0,0.0,0.0,0.0,0.0,0.0,0.0,0.0,0.0,0.0,0.0,0.0,0.0,0.0,0.0,0.0,0.0,0.0,0.0,0.0,0.0,0.0,0.0,0.0,0.0,0.0,0.0,0.0,0.0,0.0,0.0,0.0,0.0,0.0,0.0,0.0,0.0,0.0,0.0,0.0,0.0,-1.4239,-1.3949,-1.3759,-1.3589,-1.361,-1.361,-1.361,-1.2692,-1.2054,0.0,0.0,0.0,0.0,0.0,0.0,0.0,0.0,0.0,0.0,0.0,0.0,0.0,0.0,0.0,0.0,0.0,0.0,0.0,0.0,0.0,0.0,0.0,0.0,0.0,0.0,0.0,0.0,0.0,0.0,0.0,0.0,0.0,0.0,0.0,0.0,0.0,0.0,0.0,0.0,0.0,-0.0606,0.0638,0.0328,-0.0056,0.0,0.0,-0.1872,-0.1762,-0.3125,-0.4494,-0.5456,0.0,0.0,0.0,0.0,0.0,0.0,0.0,0.0,0.0,0.0,0.0,0.0,0.0,0.0,0.0,0.0,0.0,0.0,0.0,0.0,0.0,0.0,0.0,0.0,0.0,0.0,0.0,0.0,0.0,0.0,0.0,0.0,0.0,0.0,0.0,0.0,0.0,0.0,0.0,0.0,0.0,0.0,0.0,0.0,0.0,0.0,0.0,0.0,0.0,0.0,0.0,0.0,0.0,-1.469,-1.4446,-1.3543,-1.3055,-1.317,-1.344,-1.3467,-1.3152,-1.2555,-1.2092,0.0,0.0,0.0,0.0,0.0,0.0,0.0,0.0,0.0,0.0,0.0,0.0,0.0,0.0,0.0,0.0,0.0,0.0,0.0,0.0,0.0,0.0,0.0,0.0,0.0,0.0,0.0,0.0,-1.4067,-1.3003,-1.0747,0.0,0.0,0.0,0.0,0.0,0.0,0.0,0.0,0.0,0.0,-0.0056,0.0771,0.0779,0.0,0.0,-0.0339,-0.1205,-0.123,-0.2416,-0.3698,-0.4869,-0.5791,0.0,0.0,0.0,0.0,0.0,0.0,0.0,0.0,0.0,0.0,0.0,0.0,0.0,0.0,0.0,0.0,0.0,0.0,0.0,0.0,0.0,0.0,0.0,0.0,0.0,0.0,0.0,0.0,0.0,0.0,0.0,0.0,0.0,0.0,0.0,0.0,0.0,0.0,0.0,0.0,0.0,0.0,0.0,0.0,0.0,0.0,0.0,0.0,0.0,0.0,0.0,0.0,-1.4263,-1.4272,-1.3245,-1.2754,-1.292,-1.3344,-1.3392,-1.292,-1.2588,-1.2368,0.0,0.0,0.0,0.0,0.0,0.0,0.0,0.0,0.0,0.0,0.0,0.0,0.0,0.0,0.0,0.0,0.0,0.0,0.0,0.0,0.0,0.0,0.0,0.0,0.0,0.0,0.0,0.0,-1.2329,-1.2044,-1.0548,0.0,0.0,0.0,0.0,0.0,0.0,0.0,0.0,0.0,0.0,0.0168,0.0561,0.0729,0.0675,0.0511,-0.0401,-0.1161,-0.1247,-0.2165,-0.3191,-0.4127,0.0,0.0,0.0,0.0,0.0,0.0,0.0,0.0,0.0,0.0,0.0,0.0,0.0,0.0,0.0,0.0,0.0,0.0,0.0,0.0,0.0,0.0,0.0,0.0,0.0,0.0,0.0,0.0,0.0,0.0,0.0,0.0,0.0,0.0,0.0,0.0,0.0,0.0,0.0,0.0,0.0,0.0,0.0,0.0,0.0,0.0,0.0,0.0,0.0,0.0,0.0,0.0,0.0,-1.3994,-1.3236,-1.3215,-1.3099,-1.291,-1.3334,-1.3392,-1.2929,-1.2871,-1.2764,-1.2471,0.0,0.0,0.0,0.0,0.0,0.0,0.0,0.0,0.0,0.0,0.0,0.0,0.0,0.0,0.0,0.0,0.0,0.0,0.0,0.0,0.0,0.0,0.0,0.0,0.0,0.0,-1.0466,-1.0755,-1.1146,0.0,0.0,0.0,0.0,0.0,0.0,0.0,0.0,0.0,0.0,-0.0448,0.0,0.0,0.0,-0.017,-0.0758,-0.1504,-0.1966,-0.1842,-0.2579,-0.3132,0.0,0.0,0.0,0.0,0.0,0.0,0.0,0.0,0.0,0.0,0.0,0.0,0.0,0.0,0.0,0.0,0.0,0.0,0.0,0.0,0.0,0.0,0.0,0.0,0.0,0.0,0.0,-2.0901,-2.067,0.0,0.0,0.0,0.0,0.0,0.0,0.0,0.0,0.0,0.0,0.0,-1.7375,-1.7419,0.0,0.0,0.0,0.0,0.0,0.0,0.0,0.0,0.0,0.0,0.0,0.0,-1.4194,-1.3737,-1.3384,-1.3109,-1.291,-1.3344,-1.3382,-1.2929,-1.2891,-1.2783,-1.2529,0.0,0.0,0.0,0.0,0.0,0.0,0.0,0.0,0.0,0.0,0.0,0.0,0.0,0.0,0.0,0.0,0.0,0.0,0.0,0.0,0.0,0.0,0.0,0.0,0.0,-0.8892,0.0,0.0,0.0,0.0,0.0,0.0,0.0,0.0,0.0,0.0,0.0,-0.1843,-0.1062,-0.0839,-0.0671,-0.0615,-0.0336,-0.0339,0.0,0.0,0.0,0.0,0.0,0.0,0.0,0.0,0.0,0.0,0.0,0.0,0.0,0.0,0.2597,0.1205,0.1588,0.1497,-0.0702,0.0,0.0,0.0,0.0,0.0,0.0,0.0,0.0,0.0,0.0,0.0,0.0,0.0,0.0,0.0,0.0,-2.1317,0.0,0.0,0.0,0.0,0.0,0.0,0.0,0.0,-1.8332,-1.8257,-1.8044,-1.8092,-1.803,0.0,-1.8326,-1.8037,0.0,0.0,0.0,0.0,0.0,0.0,0.0,0.0,-1.4261,-1.3805,-1.3392,-1.3124,-1.3007,-1.321,-1.32,-1.2929,-1.2891,-1.2822,-1.2754,-1.2968,-1.3144,0.0,0.0,0.0,0.0,0.0,0.0,0.0,0.0,0.0,0.0,0.0,0.0,0.0,0.0,0.0,0.0,0.0,0.0,0.0,0.0,0.0,0.0,0.0,-0.7935,0.0,0.0,0.0,0.0,0.0,0.0,0.0,0.0,0.0,-0.3063,-0.2065,-0.1398,-0.1229,-0.0727,-0.0503,-0.0838,0.0,0.0,0.0,0.0,0.0,0.0,0.0,-0.1429,-0.0825,-0.0619,-0.0194,0.0913,0.179,0.2883,0.4697,0.0,0.0,0.2266,0.3068,0.3346,0.1841,0.3228,0.4719,0.4915,0.6117,0.6935,0.0,0.0,0.0,0.0,0.0,0.0,0.0,0.0,-1.9933,-2.0599,0.0,-2.1311,0.0,0.0,0.0,0.0,0.0,0.0,0.0,0.0,-1.9024,-1.9045,-1.8971,-1.9016,-1.8847,-1.8515,-1.8988,-1.8788,-1.7909,-1.7806,0.0,0.0,0.0,0.0,0.0,0.0,-1.423,-1.342,-1.3256,-1.318,-1.3133,-1.2978,-1.2929,-1.2978,-1.2978,-1.3055,-1.3218,-1.3162,-1.3518,-1.4233,-1.3116,0.0,0.0,0.0,0.0,0.0,0.0,0.0,0.0,0.0,0.0,0.0,0.0,0.0,0.0,0.0,0.0,0.0,0.0,0.0,0.0,-0.6676,0.0,0.0,0.0,0.0,0.0,0.0,0.0,0.0,0.0,0.0,-0.2905,-0.1788,-0.1174,-0.1738,0.0,0.0,0.0,0.0,-0.0896,-0.0898,-0.1326,-0.1413,-0.0884,-0.0604,-0.0249,0.0319,0.0,0.0,0.181,0.2061,0.2329,0.3025,0.3238,0.347,0.4522,0.4385,0.4327,0.4435,0.5311,0.644,0.7539,0.8336,0.9099,-2.0912,0.0,0.0,0.0,0.0,-2.0713,-2.1399,-2.2468,-2.2247,-2.2354,-2.2685,-2.242,0.0,0.0,0.0,0.0,0.0,0.0,-1.9721,-1.9597,-2.0169,-2.0454,-2.0476,-2.0336,-2.0225,-2.0091,-2.0292,-2.0013,-1.9385,-1.9143,-1.8264,-1.6791,0.0,0.0,0.0,0.0,-1.423,-1.3467,-1.3362,-1.3276,-1.319,-1.3142,-1.3324,-1.3658,-1.3658,-1.3705,-1.3789,-1.3752,-1.3817,-1.4002,-1.3571,0.0,0.0,0.0,0.0,0.0,0.0,0.0,0.0,0.0,0.0,0.0,0.0,0.0,0.0,0.0,0.0,0.0,0.0,0.0,-0.6738,-0.7571,-0.8449,0.0,0.0,0.0,0.0,0.0,0.0,0.0,0.0,0.0,-0.2517,-0.2294,-0.2261,0.0,0.0,-0.1297,-0.1559,-0.0926,-0.0525,-0.0896,0.0,0.0,0.0,-0.0063,0.0568,0.1313,0.2259,0.3011,0.3368,0.3531,0.3619,0.3783,0.4461,0.4855,0.4386,0.4844,0.5396,0.6011,0.6664,0.762,0.8815,0.9993,1.1063,-2.3405,-2.2616,-2.1777,-2.1819,-2.2414,-2.2428,-2.2946,-2.3855,-2.3597,-2.358,-2.3783,-2.3718,-2.342,-2.2862,-2.2673,0.0,0.0,0.0,-2.0677,-2.0729,-2.0749,-2.0957,-2.142,-2.1272,-2.1202,-2.1156,-2.1362,-2.1013,-2.0329,-1.9998,-1.9022,-1.7385,0.0,0.0,-1.5012,-1.4701,-1.4414,-1.411,-1.3836,-1.3873,-1.4185,-1.391,-1.3956,-1.4247,-1.4294,-1.4305,-1.434,-1.4294,-1.437,-1.4637,-1.4097,-1.3998,0.0,0.0,0.0,0.0,0.0,0.0,0.0,0.0,0.0,0.0,0.0,-1.47,0.0,0.0,0.0,0.0,-0.9186,-0.7835,-0.7272,-0.7729,0.0,0.0,0.0,0.0,0.0,0.0,0.0,-0.3282,-0.3014,-0.2798,-0.2465,-0.2608,-0.2649,-0.2406,-0.1677,-0.1155,-0.1132,0.0,-0.0121,-0.0184,0.0,0.0185,0.0186,0.0816,0.1507,0.1977,0.2943,0.3574,0.3435,0.3703,0.4032,0.4333,0.4884,0.5151,0.4863,0.5822,0.6798,0.7185,0.8107,0.9159,1.0276,1.1794,1.3168,-2.6186,-2.6181,-2.4366,-2.3878,-2.4329,-2.4343,-2.4371,-2.4399,-2.4408,-2.4518,-2.4805,-2.5077,-2.5146,-2.5019,-2.4788,0.0,0.0,-2.2671,-2.2155,-2.2179,-2.1171,-2.1232,-2.2213,-2.2129,-2.1987,-2.1856,-2.2298,-2.2005,-2.106,-2.06,-1.9993,-1.9052,-1.6877,-1.5879,-1.5806,-1.5029,-1.4793,-1.5191,-1.4646,-1.4766,-1.5665,-1.506,-1.4744,-1.4789,-1.4801,-1.4869,-1.5006,-1.4903,-1.5175,-1.5784,-1.4752,-1.4413,-1.498,0.0,0.0,0.0,0.0,0.0,0.0,0.0,0.0,0.0,0.0,0.0,0.0,0.0,0.0,0.0,-0.8978,0.0,-0.7545,-0.7357,0.0,0.0,0.0,-0.5882,-0.5257,-0.3677,-0.2691,-0.286,0.0,0.0,0.0,0.0,-0.2418,-0.1774,-0.0769,-0.006,0.0061,0.0062,0.0309,0.0807,0.0559,0.0553,0.1027,0.1891,0.2468,0.253,0.309,0.3409,0.2902,0.329,0.3965,0.4411,0.4582,0.4868,0.5665,0.6981,0.8268,0.806,0.9511,1.0974,1.1839,1.3666,1.5304,-2.7997,-2.841,-2.7969,-2.7243,-2.638,-2.6489,-2.6759,-2.7046,-2.6702,-2.6597,-2.6623,-2.6256,-2.5819,-2.5293,-2.4855,-2.4277,-2.3747,-2.3468,-2.3655,-2.4153,-2.3955,-2.423,-2.4877,-2.3859,-2.3593,-2.3927,-2.35,-2.3173,-2.2847,-2.251,-2.1712,-2.057,-1.9359,-1.7746,-1.5796,-1.5399,-1.5361,-1.5557,-1.5513,-1.5599,-1.5844,-1.5291,-1.5175,-1.5511,-1.5567,-1.5745,-1.6182,-1.616,-1.6209,-1.6371,-1.6033,-1.5766,-1.5604,-1.561,0.0,0.0,0.0,0.0,0.0,0.0,0.0,0.0,0.0,-1.7087,-1.5509,0.0,-1.2715,0.0,-0.9422,-0.819,-0.7972,-0.7806,0.0,0.0,-0.6303,-0.5647,-0.4288,-0.3823,-0.3362,-0.29,-0.2731,-0.27,-0.2883,-0.2375,-0.1796,-0.1376,-0.1113,-0.0862,-0.0507,0.0064,0.0447,0.0576,0.065,0.0849,0.1327,0.236,0.3129,0.332,0.3969,0.411,0.2893,0.3852,0.447,0.359,0.4254,0.4877,0.4916,0.6164,0.7778,0.9108,1.067,1.2325,1.4008,1.5432,1.7111,-2.9314,-2.9703,-2.9703,-2.9228,-2.8511,-2.8526,-2.8681,-2.8893,-2.8683,-2.8383,-2.814,-2.7566,-2.7133,-2.6841,-2.6543,-2.6196,-2.5779,-2.5682,-2.5751,-2.601,-2.588,-2.5955,-2.6299,-2.556,-2.5328,-2.5536,-2.4826,-2.4548,-2.4403,-2.3476,-2.2635,-2.2027,-2.0773,-1.928,-1.7559,-1.6512,-1.5883,-1.5654,-1.6752,-1.7032,-1.6594,-1.6921,-1.6965,-1.6532,-1.6923,-1.7149,-1.721,-1.715,-1.713,-1.7215,-1.6848,-1.6336,-1.5806,-1.5736,-1.5432,0.0,0.0,0.0,0.0,0.0,0.0,0.0,0.0,0.0,0.0,0.0,-1.1966,0.0,-0.9037,0.0,-0.7343,-0.716,-0.6748,-0.59,-0.5496,-0.4944,-0.4067,-0.3741,-0.3382,-0.2928,-0.2875,-0.2855,-0.2883,-0.2317,-0.1795,-0.138,-0.1183,-0.0877,-0.026,0.026,0.0581,0.0839,0.0785,0.0846,0.131,0.2469,0.3123,0.2777,0.3507,0.3766,0.241,0.321,0.3926,0.3266,0.4075,0.5133,0.5642,0.7141,0.9012,1.1219,1.3046,1.4506,1.5586,1.645,1.7664,-3.0233,-3.0326,-3.0326,-3.0312,-3.0326,-3.0205,-3.0158,-3.0111,-3.0172,-2.9872,-2.9328,-2.8929,-2.8756,-2.8782,-2.8797,-2.8683,-2.8512,-2.808,-2.7888,-2.7827,-2.734,-2.7193,-2.7239,-2.7097,-2.6996,-2.6835,-2.6272,-2.6027,-2.5972,-2.4306,-2.351,-2.3474,-2.1851,-2.0797,-2.0153,-1.8322,-1.6997,-1.6275,-1.8215,-1.8734,-1.7829,-1.8968,-1.8946,-1.7702,-1.8272,-1.8515,-1.8122,-1.7944,-1.7849,-1.7965,-1.732,-1.658,-1.5772,-1.5474,-1.4956,0.0,-1.479,0.0,0.0,0.0,0.0,0.0,0.0,0.0,0.0,-1.2439,-1.0671,-0.8869,-0.8239,-0.7511,-0.6386,-0.6155,-0.5914,-0.5317,-0.4702,-0.4369,-0.4291,-0.3646,-0.3159,-0.3037,-0.2925,-0.2851,-0.2834,-0.2479,-0.2022,-0.1655,-0.1166,-0.0561,0.0131,0.0325,0.0576,0.1153,0.0831,0.075,0.1252,0.212,0.2473,0.1694,0.2369,0.2757,0.1544,0.2184,0.2973,0.3193,0.3835,0.502,0.6892,0.8793,1.0912,1.3195,1.5109,1.6582,1.7174,1.7227,1.7263,-3.0522,-3.0568,-3.0507,-3.0553,-3.0568,-3.0522,-3.0387,-3.0266,-3.0447,-3.045,-3.0334,-3.0277,-2.9929,-2.9464,-2.932,-2.9305,-2.932,-2.8584,-2.8926,-2.9937,-2.8824,-2.8584,-2.8984,-2.8076,-2.785,-2.824,-2.7651,-2.7609,-2.7954,-2.6722,-2.5827,-2.526,-2.4081,-2.3151,-2.2525,0.0,0.0,0.0,-2.008,-2.0205,-1.9978,-1.932,-1.8832,-1.854,-1.8166,0.0,-1.8513,-1.8147,-1.7931,-1.7847,-1.7415,0.0,0.0,0.0,0.0,0.0,0.0,0.0,0.0,0.0,0.0,0.0,-1.1323,-1.0823,-1.1211,-1.0127,-0.9141,-0.8435,-0.8026,-0.7501,-0.6804,-0.6405,-0.5927,-0.5246,-0.514,-0.5057,-0.482,-0.4323,-0.3952,-0.3732,-0.3203,-0.289,-0.3026,-0.2511,-0.2142,-0.2257,-0.1384,-0.0723,-0.0623,-0.0187,0.0125,0.0249,0.0488,0.0716,0.0824,0.1313,0.1691,0.1499,0.1747,0.1833,0.1391,0.1967,0.246,0.239,0.3315,0.4852,0.7317,0.916,1.1122,1.3135,1.4754,1.6764,1.986,1.8865,1.7736,-3.1047,0.0,-3.1395,-3.1526,0.0,-3.154,-3.1464,-3.1387,-3.1116,-3.1221,-3.1511,-3.1177,-3.1047,-3.1,-3.0863,-3.0801,-3.0801,-3.0415,-3.0477,-3.0787,-3.0273,-3.0064,-3.0074,-2.9446,-2.9361,-2.961,-2.8986,-2.8843,-2.8987,-2.784,-2.7145,-2.6793,-2.5905,-2.5129,-2.4394,-2.41,-2.3192,-2.1568,-2.1489,-2.1277,-2.1076,-2.0896,-2.048,-1.9721,0.0,0.0,0.0,0.0,0.0,0.0,0.0,0.0,0.0,0.0,0.0,-1.3682,-1.3137,-1.2666,-1.2416,-1.1428,-1.0618,-1.0246,-0.8776,-0.8286,-0.9171,-0.8661,-0.8215,-0.8126,-0.7757,-0.7325,-0.6991,-0.6587,-0.6202,-0.588,-0.5905,-0.5861,-0.551,-0.5107,-0.4621,-0.4089,-0.3553,-0.3194,-0.3237,-0.2693,-0.2388,-0.2625,-0.193,-0.127,-0.1055,-0.0537,-0.0121,-0.0181,0.0528,0.0688,0.0115,0.0623,0.0848,0.0523,0.0752,0.076,0.0122,0.096,0.1672,0.1744,0.2826,0.4967,0.8801,1.0393,1.1871,1.4714,1.5653,1.6423,1.8855,1.7167,1.4962,-3.17,-3.1743,-3.2295,-3.2513,-3.2513,-3.2513,-3.2585,-3.2643,0.0,0.0,0.0,-3.1932,-3.2004,-3.2449,-3.232,-3.2249,-3.2205,-3.2234,-3.184,-3.1211,-3.1382,-3.1177,-3.0657,-3.0698,-3.0684,-3.0553,-3.0161,-2.9914,-2.9769,-2.8668,-2.8137,-2.805,-2.7541,-2.6817,-2.607,-2.5948,-2.5039,-2.3317,-2.2935,-2.2484,-2.1965,-2.2666,-2.2426,-2.1015,-2.165,-2.1502,-2.0556,-2.0084,-1.9357,-1.8312,-1.7533,-1.6411,-1.4954,-1.4101,-1.3169,-1.1988,-1.1057,-1.0624,-1.071,-0.9251,-0.8293,-0.805,-0.6935,-0.6684,-0.7542,-0.7549,-0.7501,-0.7651,-0.7462,-0.7229,-0.7021,-0.6745,-0.6573,-0.6601,-0.6625,-0.6448,-0.598,-0.5628,-0.5027,-0.4303,-0.3784,-0.3529,-0.3394,-0.2976,-0.2767,-0.2881,-0.2563,-0.2012,-0.1514,-0.0803,-0.0292,-0.0466,0.0057,0.0168,-0.0672,-0.062,-0.0285,-0.118,-0.0693,-0.0577,-0.133,-0.0721,0.0416,0.1696,0.2287,0.4484,0.9256,1.0029,1.1312,1.4621,1.4931,1.4443,1.4356,1.2733,1.0774,-3.2382,-3.2382,-3.2483,-3.2513,-3.2513,-3.2513,-3.2832,-3.3267,-3.2658,-3.244,-3.2513,-3.2411,-3.244,-3.2513,-3.2384,-3.2544,-3.3005,-3.2501,-3.2198,0.0,-3.1647,-3.1192,-3.0671,-3.1134,-3.1105,-3.064,-3.1032,-3.0974,-3.0422,-2.974,-2.9377,-2.9305,-2.8856,-2.8262,-2.7683,-2.7632,-2.7195,-2.6202,-2.5112,-2.4231,-2.3573,-2.3699,-2.3395,-2.2606,-2.2076,-2.1769,-2.1553,-2.0109,-1.8929,-1.8162,-1.7252,-1.6137,-1.4753,-1.4326,-1.366,-1.245,-1.1377,-1.0588,-1.0108,-0.8584,-0.739,-0.6789,-0.663,-0.6506,-0.6263,-0.663,-0.6846,-0.6721,-0.7165,-0.7288,-0.7037,-0.692,-0.6822,-0.664,-0.6686,-0.642,-0.5605,-0.5308,-0.4869,-0.4143,-0.3616,-0.3498,-0.368,-0.354,-0.3477,-0.3655,-0.3312,-0.2792,-0.2345,-0.1235,-0.0621,-0.096,-0.1236,-0.1621,-0.2244,-0.263,-0.2693,-0.2974,-0.2549,-0.2475,-0.3504,-0.2585,-0.1047,0.2172,0.0237,0.0849,0.6086,0.6379,0.5832,0.632,0.7526,0.8022,0.5974,0.5178,0.5665,-3.3035,-3.3079,-3.3398,-3.3543,-3.3543,-3.3543,-3.3703,-3.4016,-3.4038,-3.3841,-3.3514,-3.3195,-3.3224,-3.3463,-3.3293,-3.337,-3.3681,-3.3341,-3.3039,-3.2717,-3.2289,-3.1917,-3.1642,-3.1693,-3.1693,-3.1751,-3.1772,-3.1596,-3.1335,-3.069,-3.0397,-3.0412,-2.9839,-2.9425,-2.9131,-2.8454,-2.7968,-2.7524,-2.6127,-2.5226,-2.4921,-2.4239,-2.392,-2.3902,-2.2989,-2.2366,-2.2268,-2.0862,-1.9478,-1.8104,-1.7068,-1.5708,-1.409,-1.3611,-1.2781,-1.1502,-1.0528,-0.9761,-0.9244,-0.8161,-0.7279,-0.6861,-0.6989,-0.7022,-0.6809,-0.7064,-0.7318,-0.7338,-0.7639,-0.7825,-0.7779,-0.7523,-0.7375,-0.7528,-0.7153,-0.664,-0.5936,-0.535,-0.4843,-0.4309,-0.3873,-0.3698,-0.3993,-0.3883,-0.3916,-0.4079,-0.3904,-0.3785,-0.3724,-0.3324,-0.2828,-0.2681,-0.2892,-0.3469,-0.4188,-0.4023,-0.3978,-0.4145,-0.3679,-0.3752,-0.4167,-0.2421,-0.1235,-0.2925,-0.2138,-0.0029,0.0997,0.0424,0.0638,0.1598,0.1563,0.1618,0.1251,0.1576,0.2495,-3.3688,-3.3732,-3.4211,-3.4414,-3.4414,-3.4414,-3.4481,-3.4549,-3.5023,-3.5023,-3.4595,-3.4127,-3.4149,-3.4385,-3.4157,-3.4005,-3.4059,-3.4005,-3.3729,-3.3177,-3.2883,-3.2658,-3.2576,-3.2295,-3.2478,-3.2786,-3.2544,-3.2296,-3.1972,-3.1515,-3.1265,-3.1102,-3.06,-3.0275,-3.0098,-2.9045,-2.8409,-2.8134,-2.685,-2.6039,-2.5814,-2.4999,-2.467,-2.4718,-2.3898,-2.318,-2.2696,-2.1331,-1.9771,-1.8107,-1.677,-1.5313,-1.3606,-1.2991,-1.2001,-1.0577,-0.9843,-0.9069,-0.8361,-0.7782,-0.7459,-0.7307,-0.7495,-0.7652,-0.7637,-0.7884,-0.7954,-0.7999,-0.8164,-0.8335,-0.8365,-0.8147,-0.8015,-0.8263,-0.7697,-0.6984,-0.6319,-0.5676,-0.51,-0.4627,-0.4189,-0.4071,-0.4259,-0.4267,-0.4287,-0.4584,-0.4673,-0.4772,-0.5054,-0.5394,-0.5313,-0.5075,-0.4882,-0.5158,-0.6115,-0.5836,-0.549,-0.5639,-0.5181,-0.4657,-0.42,-0.1431,-0.1093,-0.5653,-0.4423,-0.3159,-0.5861,-0.574,-0.4448,-0.3385,-0.2745,-0.2096,-0.0781,-0.0398,0.0133,-3.4312,-3.4341,-3.4385,-3.4414,-3.4414,-3.4414,-3.4534,-3.4854,-3.4935,-3.5103,-3.5255,-3.5275,-3.4898,-3.4467,-3.4361,-3.4278,-3.4113,-3.4278,-3.3931,-3.3316,-3.3347,-3.3208,-3.2928,-3.3264,-3.3363,-3.3136,-3.3524,-3.3188,-3.2256,-3.2003,-3.1723,-3.1352,-3.1218,-3.0891,-3.0297,-2.9614,-2.8907,-2.8207,-2.7447,-2.6696,-2.6067,-2.6323,-2.5983,-2.4906,-2.4641,-2.399,-2.2825,-2.0952,-1.9367,-1.8038,-1.6413,-1.4895,-1.3674,-1.3158,-1.2174,-1.0485,-1.0098,-0.925,-0.7842,-0.7521,-0.7512,-0.7502,-0.7952,-0.8166,-0.8172,-0.8608,-0.8573,-0.8291,-0.8504,-0.8689,-0.8691,-0.8588,-0.8457,-0.8291,-0.8128,-0.7629,-0.6307,-0.6276,-0.5986,-0.4716,-0.454,-0.4606,-0.484,-0.4821,-0.4962,-0.558,-0.5678,-0.589,-0.6394,-0.6936,-0.7348,-0.7553,-0.7297,-0.6924,-0.7281,-0.7876,-0.78,-0.7784,-0.7452,-0.5901,-0.425,-0.5992,-0.9187,-0.4258,-0.7703,-1.0527,-0.9936,-0.945,-1.0577,-0.8674,-0.6699,-0.4145,-0.3001,-0.2512,-0.1877,-3.4414,-3.4414,-3.4414,-3.4414,-3.4414,-3.4414,-3.4601,-3.4935,-3.5299,-3.5479,-3.5464,-3.5593,-3.535,-3.4668,-3.4293,-3.4157,-3.4264,-3.4264,-3.4134,-3.3859,-3.3696,-3.3696,-3.3908,-3.3912,-3.4041,-3.4243,-3.4237,-3.4122,-3.3925,-3.3258,-3.276,-3.2358,-3.1781,-3.1432,-3.1455,-3.0558,-2.9858,-2.955,-2.8872,-2.8007,-2.6977,-2.6586,-2.6242,-2.5724,-2.4901,-2.4142,-2.3373,-2.1307,-1.9636,-1.8703,-1.6567,-1.4864,-1.3974,-1.3288,-1.2434,-1.126,-1.0395,-0.9512,-0.8495,-0.8366,-0.8371,-0.8366,-0.8935,-0.925,-0.9326,-1.0161,-1.0586,-1.036,-0.9612,-0.9099,-0.9184,-0.9104,-0.8908,-0.8385,-0.7908,-0.7056,-0.5767,-0.5533,-0.5181,-0.4875,-0.4817,-0.5151,-0.5751,-0.5876,-0.6095,-0.664,-0.6735,-0.6892,-0.7722,-0.8561,-0.8757,-0.8244,-0.7583,-0.7978,-0.8806,-0.9005,-0.8926,-0.8896,-0.8575,-0.685,-0.366,-0.3675,-0.5042,-0.4171,-0.7866,-1.1971,-1.4393,-1.2311,-1.1988,-1.0986,-0.9214,-0.599,-0.554,-0.4434,-0.3143,-3.4414,-3.4414,-3.4414,-3.4414,-3.4414,-3.4587,-3.4854,-3.5234,-3.5913,-3.6087,-3.5961,-3.6087,-3.5785,-3.5118,-3.4414,-3.4157,-3.4346,-3.4264,-3.4264,-3.4356,-3.412,-3.4215,-3.4677,-3.4608,-3.4723,-3.5185,-3.5033,-3.5151,-3.5528,-3.4607,-3.377,-3.3216,-3.2451,-3.2091,-3.2003,-3.1005,-3.0492,-3.0432,-2.9839,-2.8986,-2.8086,-2.7091,-2.6379,-2.5767,-2.501,-2.4255,-2.3599,-2.151,-1.9932,-1.9109,-1.6598,-1.4805,-1.4195,-1.3482,-1.2745,-1.1981,-1.0954,-1.0148,-0.964,-0.9646,-0.9646,-0.9709,-1.0263,-1.0635,-1.0816,-1.1617,-1.2305,-1.234,-1.1132,-1.0335,-1.0046,-0.9816,-0.9232,-0.8398,-0.7672,-0.6837,-0.5698,-0.5376,-0.5605,-0.557,-0.588,-0.6162,-0.6954,-0.7016,-0.7061,-0.7659,-0.7439,-0.7693,-0.8581,-0.9029,-0.8571,-0.7726,-0.6506,-0.6303,-0.8453,-0.7912,-0.7695,-0.6602,-0.5649,-0.4056,-0.1798,-0.1492,-0.3105,-0.4935,-0.5354,-0.7319,-1.2308,-1.2534,-1.0868,-1.0252,-0.8615,-0.6806,-0.6301,-0.4989,-0.3866,-3.4414,-3.4414,-3.4414,-3.4414,-3.4481,-3.5088,-3.5529,-3.5928,-3.6538,-3.6966,-3.7103,-3.6753,-3.6322,-3.5721,-3.4854,-3.4414,-3.4414,-3.4414,-3.4414,-3.4467,-3.4558,-3.4706,-3.4868,-3.5052,-3.5264,-3.5474,-3.5889,-3.6178,-3.6263,-3.5672,-3.4682,-3.3568,-3.3424,-3.276,-3.1757,-3.1012,-3.0537,-3.0522,-3.0028,-2.954,-2.9282,-2.8213,-2.6606,-2.4946,-2.5092,-2.4485,-2.2872,-2.1366,-1.9999,-1.8771,-1.6366,-1.4728,-1.4264,-1.3897,-1.3226,-1.2381,-1.1648,-1.1267,-1.1205,-1.1142,-1.126,-1.1483,-1.2011,-1.2334,-1.2383,-1.3029,-1.3489,-1.3423,-1.3066,-1.2444,-1.1618,-1.0873,-0.9831,-0.8693,-0.8138,-0.739,-0.6178,-0.6847,-0.7308,-0.7191,-0.7466,-0.7958,-0.8359,-0.7985,-0.8094,-0.8348,-0.7699,-0.734,-0.852,-0.7711,-0.6397,-0.5407,-0.35,-0.1567,-0.376,-0.4089,-0.2565,-0.1574,-0.0922,0.094,0.0601,-0.0192,-0.315,-0.6291,-0.895,-1.0605,-1.1408,-1.0628,-0.8742,-0.777,-0.7416,-0.6354,-0.5896,-0.4483,-0.3466,-3.4414,-3.4414,-3.4414,-3.4668,-3.5023,-3.5285,-3.5834,-3.6523,-3.6784,-3.7087,-3.7282,-3.6966,-3.6461,-3.5849,-3.527,-3.5023,-3.4957,-3.4601,-3.4668,-3.5118,-3.4935,-3.4935,-3.5082,-3.5294,-3.5439,-3.5574,-3.606,-3.6546,-3.6815,-3.6686,-3.6101,-3.5181,-3.4416,-3.3575,-3.2779,-3.2088,-3.1599,-3.118,-3.0926,-3.0273,-2.9117,-2.8211,-2.683,-2.5017,-2.4882,-2.4473,-2.3463,-2.1818,-2.0463,-1.9552,-1.732,-1.5776,-1.5177,-1.4419,-1.3743,-1.3114,-1.2565,-1.2251,-1.2334,-1.2395,-1.2676,-1.3176,-1.4144,-1.4524,-1.4407,-1.5203,-1.5862,-1.5254,-1.5047,-1.4589,-1.3559,-1.2541,-1.1443,-1.0533,-0.984,-0.9051,-0.8052,-0.7738,-0.7726,-0.7939,-0.844,-0.9192,-0.9581,-0.9125,-0.8964,-0.9667,-0.8156,-0.7209,-0.6863,-0.4764,-0.2168,-0.0408,0.1776,0.3654,0.4341,0.1556,0.0883,0.1658,0.2546,0.3466,0.3633,0.0503,-0.2526,-0.3063,-0.746,-0.9559,-0.8486,-0.7312,-0.5671,-0.5776,-0.5394,-0.5415,-0.5007,-0.4059,-0.3459,-3.4414,-3.4414,-3.4414,-3.4787,-3.54,-3.5627,-3.6212,-3.7027,-3.7266,-3.7401,-3.7358,-3.7147,-3.6585,-3.5785,-3.5529,-3.54,-3.535,-3.4721,-3.4735,-3.5234,-3.4986,-3.5001,-3.5148,-3.5374,-3.5489,-3.5608,-3.6349,-3.7102,-3.7793,-3.7982,-3.7357,-3.6258,-3.543,-3.4361,-3.3279,-3.2675,-3.2183,-3.1601,-3.1467,-3.0807,-2.9621,-2.8606,-2.7398,-2.6053,-2.5298,-2.4606,-2.3949,-2.2496,-2.1312,-2.0327,-1.8601,-1.7129,-1.6249,-1.5235,-1.4579,-1.4255,-1.3948,-1.3819,-1.3945,-1.4055,-1.44,-1.4935,-1.5851,-1.6277,-1.5832,-1.6958,-1.7307,-1.698,-1.6616,-1.622,-1.5894,-1.5008,-1.3726,-1.2214,-1.1368,-1.0611,-0.9697,-0.9016,-0.8924,-0.9339,-0.9831,-1.0366,-1.0638,-0.9862,-0.9478,-0.9808,-0.7673,-0.6055,-0.4274,-0.1985,0.0617,0.2511,0.5031,0.622,0.6767,0.5296,0.5349,0.6198,0.5554,0.6298,0.5287,0.1797,-0.0712,-0.0979,-0.229,-0.4414,-0.4839,-0.3757,-0.3593,-0.3808,-0.414,-0.4278,-0.4131,-0.4046,-0.3518,-3.4428,-3.4414,-3.4399,-3.4839,-3.5529,-3.6087,-3.6768,-3.746,-3.8033,-3.7844,-3.7417,-3.7342,-3.6646,-3.5642,-3.54,-3.54,-3.5204,-3.4668,-3.4534,-3.4668,-3.4802,-3.4935,-3.5016,-3.5359,-3.5619,-3.5733,-3.6935,-3.8189,-3.9212,-3.9212,-3.8438,-3.6934,-3.6499,-3.521,-3.2646,-3.2751,-3.2258,-3.1749,-3.1584,-3.1437,-3.1261,-2.9606,-2.8387,-2.7633,-2.6262,-2.5076,-2.4223,-2.335,-2.2321,-2.1325,-1.9961,-1.8686,-1.7312,-1.6348,-1.5786,-1.5776,-1.5786,-1.5891,-1.6177,-1.6177,-1.628,-1.6775,-1.7216,-1.7514,-1.7328,-1.7706,-1.8114,-1.8121,-1.7714,-1.738,-1.8121,-1.782,-1.6324,-1.334,-1.2768,-1.2256,-1.1592,-1.0959,-1.0863,-1.1121,-1.1354,-1.1424,-1.0873,-0.9888,-0.8981,-0.7683,-0.5914,-0.3506,-0.0682,0.1371,0.1413,0.2483,0.5459,0.7838,0.8254,0.8627,0.9963,1.0875,0.9668,0.9147,0.7312,0.4376,0.0924,-0.0105,-0.1689,-0.3601,-0.3209,-0.227,-0.227,-0.2476,-0.2809,-0.3411,-0.3576,-0.3617,-0.3382,-3.482,-3.4496,-3.4905,-3.5464,-3.6072,-3.6322,-3.7011,-3.7976,-3.7844,-3.7594,-3.7417,-3.7401,-3.6662,-3.5657,-3.54,-3.5154,-3.4721,-3.4467,-3.4787,-3.5299,-3.5052,-3.5067,-3.5294,-3.5439,-3.5973,-3.6784,-3.7294,-3.8238,-3.9309,-3.959,-3.9056,-3.8137,-3.7584,-3.6506,-3.4752,-3.3998,-3.3214,-3.2536,-3.2053,-3.1625,-3.113,-2.99,-2.9042,-2.8566,-2.7081,-2.604,-2.575,-2.393,-2.2617,-2.1945,-2.0415,-1.9095,-1.8213,-1.749,-1.7158,-1.7002,-1.6733,-1.6789,-1.7202,-1.7368,-1.7809,-1.8595,-1.9299,-1.9388,-1.8977,-1.9224,-1.9153,-1.8495,-1.8143,-1.8278,-1.8306,-1.8839,-1.8172,-1.6382,-1.5663,-1.4968,-1.4138,-1.3134,-1.2488,-1.2168,-1.1467,-1.091,-1.0418,-0.9205,-0.7216,-0.6011,-0.3531,-0.027,0.2945,0.548,0.7486,0.8022,0.93,0.7546,0.5923,0.574,0.7356,0.89,0.9189,0.9429,0.8034,0.6205,0.2895,0.0352,-0.1193,-0.1894,-0.1465,-0.1343,-0.1476,-0.1609,-0.221,-0.2683,-0.3226,-0.3324,-0.3295,-3.4777,-3.4481,-3.5088,-3.5642,-3.6072,-3.6322,-3.6951,-3.7653,-3.7358,-3.6982,-3.6799,-3.6723,-3.6165,-3.5285,-3.5169,-3.4971,-3.4601,-3.4616,-3.5118,-3.58,-3.5249,-3.5067,-3.5359,-3.5539,-3.607,-3.7071,-3.7589,-3.8278,-3.9292,-3.9573,-3.9295,-3.8525,-3.8125,-3.7086,-3.5745,-3.5045,-3.4237,-3.3133,-3.24,-3.1865,-3.1276,-3.0309,-2.9666,-2.9305,-2.8011,-2.7188,-2.6708,-2.4702,-2.323,-2.2421,-2.0976,-1.9811,-1.9254,-1.8797,-1.8519,-1.8382,-1.8209,-1.8197,-1.865,-1.8821,-1.915,-1.9952,-2.0321,-2.0282,-1.9849,-2.0077,-1.9684,-1.9183,-1.9191,-1.9352,-1.9589,-2.0194,-2.0341,-1.9863,-1.8541,-1.7445,-1.6285,-1.5046,-1.4004,-1.3212,-1.1598,-1.0492,-0.9432,-0.7744,-0.5266,-0.3736,-0.0754,0.2705,0.5877,0.8539,0.9289,0.896,0.7327,0.4909,0.2073,0.2632,0.4293,0.5842,0.7166,0.7829,0.7672,0.6091,0.3515,0.1354,-0.0386,-0.1112,-0.0866,-0.1205,-0.1342,-0.1543,-0.1945,-0.2616,-0.3293,-0.3583,-0.3619,-3.4549,-3.4587,-3.5219,-3.5593,-3.5706,-3.6415,-3.6784,-3.6784,-3.6662,-3.6368,-3.5864,-3.5864,-3.5429,-3.4883,-3.4935,-3.4935,-3.4868,-3.4883,-3.5314,-3.5752,-3.5429,-3.5198,-3.5344,-3.5574,-3.6054,-3.6829,-3.7499,-3.8262,-3.8882,-3.9382,-3.9242,-3.8342,-3.8196,-3.7399,-3.6079,-3.5926,-3.5198,-3.3717,-3.2928,-3.2551,-3.2091,-3.1014,-3.0396,-3.0258,-2.9199,-2.8266,-2.7492,-2.573,-2.4212,-2.3111,-2.1743,-2.0901,-2.0485,-2.0105,-1.9927,-1.9837,-1.985,-1.9927,-2.0283,-2.0118,-2.0383,-2.0709,-2.0461,-2.0065,-2.0192,-2.013,-2.0256,-2.047,-2.0573,-2.0976,-2.1685,-2.2448,-2.2824,-2.2965,-2.1232,-1.9259,-1.7467,-1.6846,-1.6145,-1.4457,-1.2016,-0.9633,-0.8533,-0.6352,-0.3428,-0.0479,0.2228,0.5289,0.8157,0.97,0.794,0.6589,0.5185,0.2075,-0.081,0.0354,0.1914,0.2654,0.4143,0.5148,0.6013,0.4794,0.3818,0.1812,0.0324,-0.0263,-0.0864,-0.1405,-0.1812,-0.2147,-0.2616,-0.3084,-0.3429,-0.3717,-0.3958,-3.577,-3.6182,-3.6384,-3.6523,-3.6523,-3.6768,-3.6845,-3.6768,-3.629,-3.5976,-3.5864,-3.5849,-3.5429,-3.4868,-3.4868,-3.4935,-3.4935,-3.4935,-3.5365,-3.607,-3.6006,-3.5752,-3.5623,-3.5688,-3.6117,-3.6768,-3.7235,-3.7722,-3.8327,-3.8645,-3.8739,-3.8903,-3.8469,-3.8316,-3.8042,-3.7295,-3.6501,-3.5577,-3.4888,-3.3986,-3.2986,-3.205,-3.1634,-3.1678,-3.0398,-2.956,-2.9066,-2.6712,-2.4468,-2.289,-2.2831,-2.2414,-2.1657,-2.1444,-2.1188,-2.0795,-2.0696,-2.0646,-2.0584,-2.0597,-2.0858,-2.1251,-2.0944,-2.0898,-2.1265,-2.0906,-2.0978,-2.1381,-2.1859,-2.2524,-2.337,-2.4385,-2.5284,-2.5748,-2.3851,-2.186,-2.0888,-2.0098,-1.8986,-1.6683,-1.3453,-1.0155,-0.7567,-0.4112,-0.0407,0.3069,0.5311,0.7147,0.879,1.0874,0.9284,0.5387,0.2916,-0.0537,-0.2559,-0.1503,-0.0662,-0.0266,0.0714,0.173,0.2415,0.2268,0.1851,0.1064,-0.0,-0.0665,-0.1537,-0.2284,-0.2554,-0.282,-0.3222,-0.3689,-0.3825,-0.4113,-0.4382,-3.6492,-3.6828,-3.7175,-3.6935,-3.6585,-3.6829,-3.6707,-3.618,-3.58,-3.5638,-3.5623,-3.5638,-3.5394,-3.5082,-3.5148,-3.5148,-3.5213,-3.5444,-3.5976,-3.66,-3.6784,-3.6538,-3.618,-3.5991,-3.618,-3.66,-3.7011,-3.746,-3.7812,-3.8124,-3.8334,-3.8511,-3.8881,-3.8881,-3.8262,-3.8259,-3.7578,-3.6766,-3.5973,-3.4961,-3.3814,-3.2791,-3.221,-3.1966,-3.0908,-3.0045,-2.9005,-2.7497,-2.5681,-2.3862,-2.332,-2.3097,-2.2505,-2.2402,-2.2203,-2.1785,-2.1785,-2.169,-2.1561,-2.1465,-2.1527,-2.1541,-2.1299,-2.1385,-2.1771,-2.1727,-2.1757,-2.2939,-2.354,-2.4129,-2.4804,-2.5975,-2.7113,-2.7656,-2.6839,-2.5532,-2.4357,-2.3841,-2.2811,-1.9915,-1.4449,-0.889,-0.6824,-0.2198,0.1948,0.4546,0.4285,0.515,0.5969,0.8637,0.8936,0.3824,0.0485,-0.2559,-0.3467,-0.246,-0.2452,-0.2196,-0.1995,-0.1125,-0.0463,-0.0066,0.0067,-0.0134,-0.0668,-0.1403,-0.2546,-0.336,-0.336,-0.3692,-0.4028,-0.4185,-0.4338,-0.4235,-0.4499,-3.7008,-3.7128,-3.7632,-3.7175,-3.6337,-3.6814,-3.6477,-3.5394,-3.5279,-3.5279,-3.5344,-3.5279,-3.5344,-3.5279,-3.5474,-3.5554,-3.5668,-3.6117,-3.6814,-3.7354,-3.7531,-3.731,-3.6845,-3.6321,-3.6274,-3.6383,-3.6997,-3.7238,-3.7342,-3.778,-3.7838,-3.7902,-3.9044,-3.9028,-3.8399,-3.8592,-3.8443,-3.7627,-3.6885,-3.5853,-3.4713,-3.3652,-3.2792,-3.1965,-3.1019,-2.9769,-2.8674,-2.7942,-2.7195,-2.4817,-2.4015,-2.3748,-2.3347,-2.3126,-2.3024,-2.2965,-2.2905,-2.2875,-2.2828,-2.2826,-2.2715,-2.2292,-2.1808,-2.1713,-2.2537,-2.2674,-2.3195,-2.4595,-2.5217,-2.5712,-2.6625,-2.7657,-2.8785,-2.9647,-3.03,-2.9621,-2.8212,-2.7429,-2.6972,-2.5545,-1.4993,-0.9067,-0.5482,-0.186,0.2391,0.082,0.109,0.1057,0.1991,0.4068,0.2957,-0.0786,-0.3076,-0.4437,-0.4138,-0.3207,-0.3735,-0.4,-0.3997,-0.3449,-0.2581,-0.2055,-0.173,-0.1866,-0.2659,-0.3465,-0.4284,-0.4631,-0.4561,-0.4381,-0.4593,-0.4722,-0.4783,-0.4407,-0.4458,-3.8294,-3.8717,-3.8351,-3.7764,-3.7175,-3.7251,-3.66,-3.5489,-3.5439,-3.5539,-3.5574,-3.5574,-3.5703,-3.5782,-3.591,-3.6148,-3.6492,-3.6829,-3.7354,-3.8302,-3.8067,-3.7969,-3.7562,-3.6799,-3.6336,-3.6461,-3.66,-3.6723,-3.6785,-3.6952,-3.7118,-3.7551,-3.8164,-3.8727,-3.8882,-3.9209,-3.9508,-3.8851,-3.8477,-3.7399,-3.5906,-3.4796,-3.3638,-3.239,-3.1073,-2.9885,-2.9015,-2.8652,-2.8278,-2.761,-2.6718,-2.5711,-2.4802,-2.4154,-2.39,-2.3769,-2.3724,-2.3623,-2.3598,-2.4059,-2.4223,-2.3641,-2.3679,-2.4012,-2.4155,-2.4204,-2.4751,-2.5815,-2.6348,-2.7302,-2.873,-3.001,-3.0959,-3.1845,-3.2229,-3.2111,-3.1431,-3.0302,-2.8736,-2.574,-2.0893,-1.6202,-1.371,-0.9396,-0.5903,-0.4048,-0.3424,-0.3585,-0.2396,-0.0852,-0.2264,-0.5038,-0.6004,-0.6898,-0.5595,-0.5001,-0.5345,-0.5609,-0.5672,-0.5888,-0.4998,-0.4303,-0.398,-0.4309,-0.4904,-0.5588,-0.6009,-0.6013,-0.5935,-0.5589,-0.5116,-0.4999,-0.4865,-0.4567,-0.4576,-3.8952,-3.9272,-3.8914,-3.8407,-3.7879,-3.7838,-3.7131,-3.6211,-3.6085,-3.5958,-3.5958,-3.6117,-3.618,-3.6037,-3.6258,-3.6616,-3.6995,-3.7499,-3.8149,-3.8668,-3.8574,-3.8423,-3.8026,-3.7266,-3.6693,-3.6554,-3.6492,-3.6492,-3.6492,-3.6492,-3.6723,-3.7013,-3.7621,-3.8197,-3.8794,-3.9401,-3.9627,-3.9437,-3.9011,-3.8121,-3.6837,-3.5457,-3.38,-3.2269,-3.0935,-3.0047,-2.9516,-2.9707,-2.9531,-2.9159,-2.8576,-2.767,-2.6365,-2.5472,-2.502,-2.4901,-2.4667,-2.4813,-2.5087,-2.5323,-2.5361,-2.4787,-2.5084,-2.5349,-2.5601,-2.5723,-2.6514,-2.7581,-2.841,-2.9178,-3.0386,-3.1231,-3.2274,-3.2653,-3.3037,-3.2895,-3.2362,-3.1677,-3.0723,-2.7694,-2.2262,-1.809,-1.5088,-1.3284,-1.0147,-0.636,-0.9756,-1.0022,-0.9338,-0.7852,-0.6629,-0.8008,-0.8828,-0.8854,-0.7372,-0.6868,-0.717,-0.7236,-0.7161,-0.7607,-0.7565,-0.6955,-0.6359,-0.6685,-0.6876,-0.7019,-0.7372,-0.7307,-0.7025,-0.6396,-0.5881,-0.5358,-0.5179,-0.5349,-0.5451,-3.9325,-3.9379,-3.9362,-3.8936,-3.839,-3.8334,-3.7706,-3.6784,-3.6845,-3.6554,-3.6196,-3.6662,-3.6616,-3.6399,-3.6554,-3.6845,-3.7413,-3.8189,-3.8887,-3.9242,-3.9028,-3.881,-3.8407,-3.7838,-3.7222,-3.6662,-3.6554,-3.6492,-3.6492,-3.6492,-3.6616,-3.6785,-3.7298,-3.8026,-3.8518,-3.9082,-3.9644,-3.985,-3.9226,-3.84,-3.7383,-3.5898,-3.4042,-3.1709,-3.0793,-3.0411,-3.0236,-3.049,-3.0694,-3.0245,-3.0129,-2.9305,-2.8158,-2.6878,-2.6275,-2.6284,-2.6062,-2.627,-2.6782,-2.6928,-2.6748,-2.6046,-2.6395,-2.6672,-2.7025,-2.7412,-2.818,-2.921,-3.0079,-3.0755,-3.134,-3.1937,-3.2241,-3.2381,-3.2731,-3.2308,-3.1674,-3.1544,-3.0439,-2.9447,-2.4654,-2.0413,-1.7755,-1.5678,-1.2155,-1.0061,-1.367,-1.5719,-1.477,-1.3562,-1.1495,-1.0151,-1.0692,-1.0142,-0.8683,-0.8504,-0.8805,-0.9003,-0.8898,-0.9241,-0.9771,-0.9354,-0.8777,-0.8538,-0.8656,-0.8672,-0.8474,-0.8146,-0.771,-0.714,-0.6533,-0.5941,-0.594,-0.6172,-0.6342,-3.9537,-3.9625,-3.9625,-3.9259,-3.8707,-3.8635,-3.8019,-3.7071,-3.7472,-3.7071,-3.6383,-3.6845,-3.7191,-3.7103,-3.6646,-3.7147,-3.8108,-3.8887,-3.9454,-3.9747,-3.9523,-3.9135,-3.8903,-3.8446,-3.7838,-3.7238,-3.6892,-3.6662,-3.6554,-3.6492,-3.6892,-3.7298,-3.7796,-3.8407,-3.8974,-3.9575,-3.985,-4.002,-3.9679,-3.904,-3.7963,-3.6573,-3.4553,-3.1825,-3.0968,-3.0716,-3.0661,-3.093,-3.1334,-3.1929,-3.1433,-3.0696,-2.9665,-2.8158,-2.764,-2.7686,-2.7685,-2.7838,-2.8515,-2.8937,-2.8932,-2.8796,-2.9026,-2.9038,-2.9079,-2.9329,-2.9881,-3.0282,-3.1141,-3.1828,-3.2317,-3.271,-3.289,-3.2806,-3.1924,-3.0736,-2.9455,-2.8369,-2.7809,-2.7578,-2.5072,-2.3126,-2.0783,-1.9043,-1.7295,-1.5248,-1.6375,-1.7298,-1.6191,-1.5153,-1.3783,-1.2782,-1.2137,-1.1132,-0.9874,-1.0111,-1.0406,-1.0773,-1.0805,-1.1005,-1.1344,-1.14,-1.117,-1.0341,-1.0001,-0.9932,-0.9594,-0.9104,-0.8612,-0.8162,-0.7338,-0.6539,-0.6923,-0.738,-0.766,-3.9625,-3.9677,-3.9677,-3.954,-3.9242,-3.9226,-3.8778,-3.8108,-3.8278,-3.7994,-3.7648,-3.7879,-3.8051,-3.7953,-3.8051,-3.8334,-3.8668,-3.9558,-3.9885,-3.9935,-3.9885,-3.9679,-3.9487,-3.9082,-3.8574,-3.8067,-3.7679,-3.7282,-3.7058,-3.7342,-3.7562,-3.7838,-3.8181,-3.8629,-3.9098,-3.9418,-3.9799,-3.9969,-3.9799,-3.9242,-3.8149,-3.6736,-3.4332,-3.2572,-3.164,-3.1435,-3.1422,-3.1778,-3.2116,-3.2384,-3.2151,-3.1483,-3.0651,-2.9992,-2.9287,-2.9125,-2.9036,-2.9447,-3.0214,-3.0751,-3.0801,-3.0835,-3.1289,-3.1411,-3.1251,-3.1411,-3.1753,-3.2166,-3.2319,-3.3062,-3.3753,-3.3581,-3.32,-3.2431,-3.1335,-2.9488,-2.742,-2.6002,-2.5531,-2.5545,-2.4563,-2.3656,-2.3661,-2.2457,-2.2166,-2.1301,-1.9895,-1.8565,-1.7302,-1.6094,-1.4799,-1.3631,-1.261,-1.21,-1.1161,-1.1464,-1.1676,-1.204,-1.2213,-1.2436,-1.2386,-1.218,-1.1868,-1.1322,-1.1145,-1.0857,-1.0725,-1.0236,-0.9711,-0.922,-0.8624,-0.821,-0.831,-0.852,-0.903,-3.9781,-3.9781,-3.9781,-3.9781,-3.9781,-3.9781,-3.9487,-3.9135,-3.9135,-3.8865,-3.839,-3.8865,-3.892,-3.8794,-3.8995,-3.9246,-3.9016,-3.9969,-4.0121,-4.0341,-4.0339,-4.0238,-4.0138,-3.9764,-3.9385,-3.8849,-3.8849,-3.8407,-3.7796,-3.7969,-3.8294,-3.8463,-3.8502,-3.8794,-3.9312,-3.9523,-3.9747,-3.9644,-3.9644,-3.9011,-3.7831,-3.6167,-3.4322,-3.2855,-3.2567,-3.2481,-3.2532,-3.2761,-3.2997,-3.3073,-3.2844,-3.2328,-3.1489,-3.1473,-3.1246,-3.0607,-3.0316,-3.1005,-3.1777,-3.2205,-3.2374,-3.2526,-3.3015,-3.3107,-3.322,-3.3305,-3.3678,-3.4092,-3.3903,-3.3941,-3.4381,-3.3984,-3.2822,-3.1463,-3.0237,-2.8618,-2.5973,-2.4191,-2.3297,-2.3398,-2.3677,-2.3642,-2.3188,-2.308,-2.2163,-2.0545,-1.9192,-1.7932,-1.6687,-1.5873,-1.4711,-1.3538,-1.2755,-1.2647,-1.2488,-1.2749,-1.289,-1.3078,-1.2863,-1.2756,-1.2699,-1.2586,-1.2221,-1.1861,-1.1556,-1.1317,-1.1303,-1.118,-1.041,-0.9903,-0.9824,-0.984,-0.9977,-1.0318,-1.0859,-3.9935,-4.0037,-4.007,-4.0037,-4.0037,-4.002,-3.9679,-3.9295,-3.9731,-3.9279,-3.8635,-3.9011,-3.9368,-3.9456,-3.9577,-3.968,-3.9732,-3.9919,-4.0492,-4.1015,-4.0774,-4.0759,-4.1102,-4.0675,-4.0171,-3.9732,-3.9919,-3.9279,-3.8668,-3.8502,-3.8629,-3.8957,-3.9135,-3.9365,-3.9799,-3.985,-3.9747,-3.947,-3.9747,-3.9193,-3.7783,-3.6415,-3.5031,-3.4107,-3.377,-3.3748,-3.3818,-3.4023,-3.4167,-3.4406,-3.3816,-3.3294,-3.2869,-3.2627,-3.2729,-3.2624,-3.2625,-3.2679,-3.3335,-3.3477,-3.3612,-3.3827,-3.4032,-3.4243,-3.456,-3.4764,-3.4795,-3.432,-3.4113,-3.4172,-3.4374,-3.3122,-3.1675,-2.998,-2.8371,-2.6526,-2.421,-2.3213,-2.2255,-2.1871,-2.2334,-2.2261,-2.1962,-2.2014,-2.1751,-2.0039,-1.8447,-1.7215,-1.6166,-1.534,-1.4621,-1.3545,-1.3127,-1.3038,-1.3167,-1.3536,-1.4,-1.4088,-1.3653,-1.3295,-1.331,-1.3172,-1.2552,-1.2196,-1.1985,-1.1785,-1.1747,-1.1475,-1.0808,-1.0663,-1.0707,-1.1132,-1.155,-1.2055,-1.2573,-4.0037,-4.0087,-4.0087,-4.0087,-4.0087,-4.0087,-4.0087,-4.0153,-4.0383,-4.0446,-4.0297,-4.0539,-4.0728,-4.0775,-4.0915,-4.0886,-4.078,-4.0655,-4.0796,-4.1223,-4.0999,-4.0917,-4.1068,-4.1103,-4.0832,-4.0767,-4.0891,-4.078,-3.9952,-3.9456,-3.9506,-3.9627,-3.9696,-3.9799,-4.0154,-4.0121,-3.9969,-3.9747,-3.9627,-3.9279,-3.8453,-3.7456,-3.6228,-3.5061,-3.5181,-3.5179,-3.5157,-3.5506,-3.5762,-3.6008,-3.5683,-3.5364,-3.4909,-3.4568,-3.4395,-3.4531,-3.4292,-3.4205,-3.4301,-3.4439,-3.4591,-3.4921,-3.518,-3.5735,-3.602,-3.609,-3.5744,-3.4871,-3.4796,-3.4723,-3.427,-3.2816,-3.085,-2.8938,-2.7073,-2.4778,-2.3108,-2.2447,-2.162,-2.1259,-2.1005,-2.1151,-2.1167,-2.0966,-2.071,-1.9448,-1.7905,-1.655,-1.5557,-1.4726,-1.4071,-1.3438,-1.3319,-1.3375,-1.373,-1.4053,-1.4898,-1.5005,-1.4484,-1.4215,-1.4103,-1.3837,-1.3276,-1.307,-1.3128,-1.2889,-1.2486,-1.1952,-1.1468,-1.1552,-1.1674,-1.2211,-1.2743,-1.3637,-1.4328,-4.0353,-4.0434,-4.0303,-4.0353,-4.0434,-4.0434,-4.072,-4.1115,-4.1171,-4.1438,-4.175,-4.1793,-4.1877,-4.2044,-4.1961,-4.1785,-4.1648,-4.1692,-4.1558,-4.1354,-4.1163,-4.1197,-4.1412,-4.16,-4.1472,-4.1525,-4.1682,-4.1534,-4.1178,-4.0733,-4.0431,-4.0336,-4.0336,-4.0466,-4.0466,-4.0434,-4.0336,-4.0497,-3.9834,-3.9613,-3.9476,-3.8797,-3.788,-3.7215,-3.6917,-3.6848,-3.6631,-3.688,-3.7326,-3.7584,-3.7331,-3.6972,-3.6752,-3.6314,-3.6103,-3.6069,-3.5797,-3.5456,-3.5282,-3.5203,-3.5279,-3.5776,-3.6441,-3.7054,-3.6493,-3.6845,-3.6551,-3.5156,-3.4941,-3.4598,-3.3751,-3.2127,-3.0129,-2.8192,-2.6468,-2.3865,-2.1696,-2.1133,-2.0853,-2.0798,-2.0643,-2.0722,-2.0628,-2.0213,-1.9576,-1.8636,-1.7334,-1.6031,-1.5152,-1.4474,-1.3953,-1.3491,-1.3658,-1.3911,-1.4446,-1.4867,-1.5627,-1.5834,-1.5296,-1.4992,-1.4945,-1.4728,-1.4268,-1.4179,-1.4178,-1.3761,-1.3217,-1.2668,-1.2178,-1.2324,-1.2579,-1.3283,-1.3991,-1.4899,-1.6321,-4.1019,-4.1348,-4.0972,-4.1019,-4.1393,-4.141,-4.1611,-4.1989,-4.2029,-4.2131,-4.2307,-4.2136,-4.2257,-4.234,-4.2408,-4.2279,-4.2157,-4.2157,-4.2225,-4.2132,-4.1901,-4.1848,-4.1973,-4.1886,-4.176,-4.208,-4.2306,-4.2208,-4.1961,-4.1932,-4.1411,-4.0949,-4.1041,-4.1286,-4.1313,-4.1143,-4.1143,-4.1108,-4.0543,-4.0367,-4.0526,-4.0199,-3.974,-3.9564,-3.9188,-3.889,-3.8849,-3.864,-3.8596,-3.8936,-3.8537,-3.8422,-3.8359,-3.7871,-3.7629,-3.7501,-3.704,-3.6621,-3.6211,-3.571,-3.5788,-3.6615,-3.7414,-3.7718,-3.6607,-3.7916,-3.7367,-3.5128,-3.4544,-3.3834,-3.2489,-3.0683,-2.8967,-2.7348,-2.5577,-2.3416,-2.1357,-2.0038,-1.9822,-2.0162,-2.0423,-2.0649,-2.0869,-2.059,-1.9825,-1.8889,-1.7949,-1.6633,-1.5557,-1.4775,-1.4194,-1.387,-1.3963,-1.4366,-1.5179,-1.5634,-1.5871,-1.5972,-1.5747,-1.5639,-1.5631,-1.5425,-1.5396,-1.4925,-1.4795,-1.4352,-1.3902,-1.3397,-1.3112,-1.3101,-1.3493,-1.4256,-1.5339,-1.6497,-1.8136,-4.1543,-4.1913,-4.2091,-4.2037,-4.1896,-4.1902,-4.2271,-4.2849,-4.2955,-4.3198,-4.3518,-4.333,-4.3263,-4.3298,-4.3123,-4.2921,-4.2752,-4.2716,-4.2717,-4.2383,-4.2076,-4.2033,-4.2129,-4.227,-4.2226,-4.2793,-4.3032,-4.296,-4.272,-4.2995,-4.2832,-4.242,-4.1989,-4.1861,-4.1884,-4.2056,-4.2117,-4.2038,-4.1742,-4.1618,-4.1868,-4.1724,-4.1368,-4.1123,-4.1501,-4.0818,-4.0259,-4.0299,-4.0234,-4.0053,-3.9773,-3.9773,-3.9746,-3.9198,-3.8942,-3.8803,-3.8203,-3.7457,-3.6692,-3.6129,-3.6059,-3.6802,-3.7491,-3.7554,-3.6526,-3.7434,-3.6397,-3.4774,-3.3599,-3.2938,-3.1658,-2.9878,-2.8086,-2.6442,-2.4713,-2.2781,-2.1341,-2.0115,-1.9836,-2.0499,-2.0654,-2.0764,-2.0985,-2.1187,-2.0267,-1.9316,-1.8295,-1.7304,-1.6184,-1.524,-1.4686,-1.4405,-1.4553,-1.4986,-1.5803,-1.5936,-1.6037,-1.6179,-1.639,-1.6382,-1.6553,-1.6798,-1.6693,-1.6039,-1.5492,-1.532,-1.4962,-1.4323,-1.4071,-1.4101,-1.4572,-1.535,-1.6528,-1.7888,-1.9429,-4.2139,-4.26,-4.3032,-4.2941,-4.2555,-4.2705,-4.3164,-4.372,-4.3811,-4.4168,-4.4617,-4.4308,-4.4181,-4.4132,-4.3949,-4.3707,-4.3471,-4.3369,-4.3105,-4.2754,-4.24,-4.2262,-4.2422,-4.2621,-4.2886,-4.3487,-4.3831,-4.3812,-4.356,-4.4128,-4.3935,-4.3508,-4.325,-4.3162,-4.3051,-4.3111,-4.3241,-4.3115,-4.3111,-4.3033,-4.3333,-4.3227,-4.3047,-4.2789,-4.2975,-4.2654,-4.1893,-4.1668,-4.1345,-4.1082,-4.0813,-4.0739,-4.0586,-4.0359,-4.0059,-3.9686,-3.909,-3.8082,-3.7255,-3.6463,-3.6307,-3.6767,-3.7312,-3.7113,-3.6681,-3.6524,-3.5541,-3.3345,-3.2586,-3.1854,-3.0597,-2.8832,-2.7598,-2.6134,-2.4836,-2.3071,-2.2004,-2.0913,-2.0864,-2.1093,-2.1062,-2.1083,-2.1209,-2.1394,-2.0643,-1.979,-1.914,-1.8104,-1.7018,-1.6026,-1.5306,-1.5162,-1.5265,-1.5859,-1.6445,-1.6484,-1.6702,-1.7631,-1.7735,-1.7493,-1.7596,-1.7761,-1.7516,-1.6757,-1.6395,-1.6421,-1.5927,-1.5057,-1.5006,-1.5135,-1.5819,-1.6447,-1.7657,-1.9022,-1.9985,-4.2698,-4.3471,-4.3656,-4.3638,-4.3531,-4.3899,-4.428,-4.4594,-4.4663,-4.4849,-4.5109,-4.465,-4.4519,-4.4624,-4.4383,-4.4242,-4.4165,-4.4023,-4.3754,-4.3348,-4.2959,-4.2884,-4.2959,-4.3176,-4.3416,-4.3931,-4.427,-4.4401,-4.4336,-4.4549,-4.4518,-4.4596,-4.4522,-4.4626,-4.454,-4.46,-4.4512,-4.4336,-4.4455,-4.4416,-4.4454,-4.445,-4.4391,-4.4378,-4.421,-4.3885,-4.3349,-4.2588,-4.2156,-4.1737,-4.109,-4.0857,-4.0743,-4.0714,-4.0599,-4.0493,-3.9536,-3.8825,-3.8365,-3.6994,-3.6358,-3.6463,-3.6915,-3.6666,-3.5738,-3.5284,-3.4541,-3.2015,-3.1346,-3.0274,-2.9051,-2.7893,-2.6952,-2.5876,-2.4541,-2.3534,-2.2434,-2.1607,-2.1431,-2.1804,-2.1684,-2.1533,-2.158,-2.1518,-2.0839,-2.027,-1.9768,-1.8846,-1.777,-1.6976,-1.6271,-1.6119,-1.6201,-1.6792,-1.7312,-1.7156,-1.7465,-1.8522,-1.877,-1.8303,-1.8136,-1.8224,-1.7886,-1.7301,-1.7001,-1.6722,-1.6319,-1.5786,-1.5873,-1.5978,-1.6903,-1.7763,-1.8973,-1.9866,-2.0605,-4.3666,-4.3949,-4.4425,-4.455,-4.4461,-4.4662,-4.4954,-4.5206,-4.5226,-4.5304,-4.5284,-4.4877,-4.4726,-4.4751,-4.4701,-4.4624,-4.4599,-4.4546,-4.4271,-4.4167,-4.3597,-4.3647,-4.3712,-4.3643,-4.3874,-4.453,-4.4862,-4.4919,-4.4991,-4.5053,-4.5093,-4.5211,-4.5304,-4.5483,-4.5409,-4.5418,-4.5353,-4.5269,-4.5201,-4.5131,-4.5262,-4.5203,-4.5208,-4.5363,-4.5209,-4.4884,-4.4312,-4.339,-4.2675,-4.2036,-4.1281,-4.076,-4.0726,-4.0731,-4.0636,-4.0474,-3.9727,-3.9048,-3.7802,-3.6321,-3.5608,-3.5915,-3.6087,-3.5633,-3.433,-3.3535,-3.2251,-3.0899,-2.9997,-2.88,-2.7488,-2.744,-2.6713,-2.5525,-2.4389,-2.3588,-2.2697,-2.1967,-2.1766,-2.2553,-2.2793,-2.2507,-2.2414,-2.232,-2.1706,-2.0937,-2.0508,-1.9541,-1.8434,-1.794,-1.7428,-1.7218,-1.7304,-1.79,-1.8223,-1.8241,-1.8083,-1.862,-1.8807,-1.8452,-1.8407,-1.8353,-1.8023,-1.735,-1.7204,-1.6984,-1.6484,-1.6072,-1.6394,-1.6862,-1.7602,-1.8238,-1.9097,-1.9885,-2.0615,-4.4289,-4.4433,-4.4851,-4.511,-4.517,-4.5266,-4.5432,-4.5555,-4.5571,-4.5571,-4.5522,-4.5266,-4.5187,-4.5187,-4.5107,-4.5025,-4.5067,-4.4944,-4.4843,-4.4778,-4.4248,-4.4231,-4.4242,-4.4231,-4.4549,-4.507,-4.5284,-4.5374,-4.5445,-4.5557,-4.5492,-4.5448,-4.5661,-4.5742,-4.579,-4.58,-4.5748,-4.5674,-4.5627,-4.5658,-4.5689,-4.5664,-4.5626,-4.5741,-4.5685,-4.5488,-4.4767,-4.3929,-4.2994,-4.2157,-4.1305,-4.0521,-4.0455,-4.037,-4.0242,-4.004,-3.9532,-3.8831,-3.75,-3.6081,-3.5418,-3.5053,-3.5031,-3.4315,-3.3002,-3.2024,-3.0949,-2.9769,-2.8641,-2.7765,-2.6979,-2.7013,-2.6385,-2.5187,-2.4821,-2.4041,-2.3826,-2.3237,-2.3017,-2.3764,-2.3821,-2.357,-2.3248,-2.3078,-2.2699,-2.1955,-2.1175,-2.0197,-1.9219,-1.8788,-1.8615,-1.8686,-1.8629,-1.9074,-1.9405,-1.9546,-1.927,-1.894,-1.8629,-1.8342,-1.8129,-1.804,-1.7716,-1.7392,-1.7066,-1.6648,-1.6402,-1.6312,-1.6632,-1.7196,-1.7917,-1.855,-1.9186,-1.9982,-2.0867,-4.4483,-4.4829,-4.4889,-4.5168,-4.5592,-4.5647,-4.5705,-4.5711,-4.5717,-4.5717,-4.5703,-4.5731,-4.5678,-4.5744,-4.5744,-4.5699,-4.5628,-4.5404,-4.5247,-4.5111,-4.4824,-4.48,-4.4838,-4.4959,-4.5107,-4.534,-4.5534,-4.5653,-4.5754,-4.567,-4.5564,-4.5531,-4.5655,-4.576,-4.5811,-4.585,-4.5834,-4.587,-4.5961,-4.5952,-4.5903,-4.5919,-4.5858,-4.5872,-4.5761,-4.5618,-4.4945,-4.4035,-4.3179,-4.2193,-4.1107,-4.0253,-3.9766,-3.9645,-3.9599,-3.9333,-3.8757,-3.8077,-3.7274,-3.5786,-3.4514,-3.3616,-3.3064,-3.2704,-3.1728,-3.0205,-2.9204,-2.8528,-2.7673,-2.7216,-2.6727,-2.6461,-2.614,-2.569,-2.5524,-2.5249,-2.5302,-2.5087,-2.4888,-2.4976,-2.4772,-2.4505,-2.4248,-2.3931,-2.308,-2.2532,-2.1788,-2.1399,-2.0464,-1.9734,-1.9734,-2.0261,-2.0236,-2.0355,-2.051,-2.027,-1.9813,-1.9201,-1.8438,-1.8031,-1.7882,-1.7644,-1.731,-1.6976,-1.6648,-1.6319,-1.6064,-1.6304,-1.6788,-1.7513,-1.8318,-1.8957,-1.959,-2.0547,-2.1195,-4.3549,-4.3744,-4.4462,-4.4858,-4.5094,-4.5742,-4.6053,-4.6046,-4.5958,-4.5933,-4.5914,-4.5781,-4.5794,-4.5813,-4.5745,-4.5781,-4.5742,-4.567,-4.5582,-4.5454,-4.5316,-4.5292,-4.5311,-4.5355,-4.5502,-4.5652,-4.578,-4.5804,-4.584,-4.5724,-4.5624,-4.5617,-4.5537,-4.5572,-4.5607,-4.5698,-4.5791,-4.5917,-4.6002,-4.5994,-4.5936,-4.5896,-4.5844,-4.5721,-4.5667,-4.5499,-4.4916,-4.3833,-4.2977,-4.2259,-4.1035,-4.0158,-3.9905,-3.9615,-3.9312,-3.8419,-3.7679,-3.6819,-3.5872,-3.4351,-3.2899,-3.1703,-3.0642,-2.9522,-2.8748,-2.8245,-2.7492,-2.7278,-2.6983,-2.6564,-2.6601,-2.6502,-2.6297,-2.611,-2.6055,-2.6183,-2.6214,-2.6276,-2.6093,-2.5827,-2.5632,-2.4963,-2.4757,-2.3913,-2.3105,-2.2727,-2.2344,-2.1855,-2.1502,-2.068,-2.0476,-2.0996,-2.1259,-2.1212,-2.0736,-2.0504,-1.9916,-1.937,-1.8508,-1.7705,-1.7351,-1.7122,-1.691,-1.673,-1.6476,-1.6147,-1.5816,-1.6386,-1.7432,-1.7917,-1.8638,-1.9353,-2.007,-2.0789,-2.1108,-4.324,-4.3419,-4.4314,-4.4917,-4.5364,-4.5935,-4.6212,-4.6186,-4.6125,-4.6079,-4.6052,-4.5955,-4.5919,-4.5921,-4.5907,-4.5935,-4.5955,-4.5933,-4.5868,-4.5722,-4.5636,-4.5636,-4.5636,-4.559,-4.5653,-4.5781,-4.5815,-4.5802,-4.5787,-4.5705,-4.5595,-4.5475,-4.5323,-4.5227,-4.5227,-4.5285,-4.5365,-4.553,-4.5685,-4.5793,-4.576,-4.5665,-4.5572,-4.5351,-4.534,-4.5112,-4.4676,-4.3507,-4.2781,-4.207,-4.0833,-4.0023,-3.9539,-3.8923,-3.8283,-3.7399,-3.6519,-3.5472,-3.438,-3.3208,-3.1619,-3.0152,-2.8655,-2.7755,-2.7336,-2.7018,-2.6952,-2.69,-2.6466,-2.6117,-2.6461,-2.6661,-2.6609,-2.6518,-2.6762,-2.6934,-2.704,-2.7162,-2.6934,-2.6582,-2.6042,-2.5336,-2.4607,-2.3721,-2.3186,-2.2932,-2.2294,-2.141,-2.1341,-2.1056,-2.1053,-2.1469,-2.1712,-2.1779,-2.1183,-2.0555,-1.9937,-1.9178,-1.8154,-1.743,-1.6945,-1.6735,-1.6672,-1.6566,-1.6394,-1.6139,-1.6139,-1.7269,-1.8238,-1.8718,-1.9195,-1.9835,-2.0235,-2.0391,-2.0469,-4.318,-4.3229,-4.4161,-4.5007,-4.6003,-4.5932,-4.5937,-4.6074,-4.5877,-4.6049,-4.6104,-4.6172,-4.6109,-4.6067,-4.6069,-4.6078,-4.6074,-4.6054,-4.5964,-4.5898,-4.5863,-4.5815,-4.5687,-4.5757,-4.5566,-4.5609,-4.5579,-4.547,-4.5537,-4.5375,-4.5189,-4.5213,-4.4849,-4.4713,-4.4778,-4.4848,-4.4846,-4.4796,-4.5189,-4.5434,-4.5283,-4.5237,-4.5147,-4.4737,-4.4645,-4.4575,-4.41,-4.3371,-4.2511,-4.152,-4.055,-3.962,-3.8551,-3.7785,-3.7108,-3.6359,-3.5537,-3.4636,-3.3367,-3.2151,-3.0642,-2.9127,-2.7571,-2.6628,-2.6153,-2.6151,-2.6282,-2.6724,-2.6488,-2.6807,-2.7152,-2.7195,-2.7105,-2.7209,-2.738,-2.7537,-2.7577,-2.7364,-2.6676,-2.6183,-2.5194,-2.4641,-2.4623,-2.3799,-2.289,-2.2932,-2.2318,-2.1212,-2.065,-2.0686,-2.1067,-2.1401,-2.1577,-2.1584,-2.1225,-2.0585,-1.983,-1.899,-1.7948,-1.7327,-1.6953,-1.6676,-1.65,-1.6319,-1.6221,-1.6542,-1.678,-1.7917,-1.8798,-1.9283,-1.9756,-2.0401,-2.0557,-2.0157,-1.9678,-4.1648,-4.174,-4.2541,-4.3747,-4.5036,-4.4481,-4.4633,-4.5132,-4.4489,-4.4959,-4.5932,-4.6066,-4.6055,-4.5986,-4.594,-4.5955,-4.6035,-4.5998,-4.5939,-4.5843,-4.5822,-4.5541,-4.5389,-4.5311,-4.5233,-4.5084,-4.4996,-4.494,-4.4857,-4.4702,-4.4549,-4.4428,-4.4261,-4.4299,-4.4298,-4.4361,-4.4277,-4.4064,-4.431,-4.4547,-4.4393,-4.4464,-4.443,-4.4277,-4.4233,-4.381,-4.3234,-4.2472,-4.151,-4.0521,-3.9677,-3.8517,-3.7183,-3.6702,-3.5975,-3.5149,-3.4588,-3.3842,-3.2659,-3.117,-2.9473,-2.7913,-2.6512,-2.5614,-2.5166,-2.5384,-2.5858,-2.644,-2.7012,-2.7415,-2.7664,-2.7641,-2.7656,-2.7853,-2.7984,-2.7986,-2.8052,-2.7217,-2.6389,-2.5405,-2.4348,-2.4138,-2.4215,-2.3714,-2.2818,-2.2208,-2.1646,-2.0819,-1.9941,-1.9724,-2.0219,-2.0613,-2.0971,-2.0979,-2.0781,-2.0497,-1.9722,-1.9058,-1.8202,-1.7528,-1.7016,-1.6805,-1.6668,-1.6322,-1.6221,-1.682,-1.7554,-1.839,-1.9195,-1.9599,-1.9599,-1.9913,-1.9747,-1.9432,-1.8877,-4.1086,-4.1175,-4.1953,-4.3029,-4.4016,-4.3702,-4.3771,-4.4028,-4.3681,-4.4004,-4.4767,-4.4949,-4.5149,-4.5418,-4.5433,-4.5697,-4.582,-4.586,-4.5694,-4.558,-4.5426,-4.5093,-4.4916,-4.4668,-4.4316,-4.4176,-4.4244,-4.4194,-4.4177,-4.4252,-4.4204,-4.4039,-4.3967,-4.3825,-4.3806,-4.3714,-4.3518,-4.3243,-4.3314,-4.3225,-4.3258,-4.3608,-4.3904,-4.3862,-4.3656,-4.3171,-4.2544,-4.1788,-4.0855,-3.9637,-3.8507,-3.702,-3.5897,-3.5419,-3.471,-3.3925,-3.3352,-3.296,-3.1696,-3.0108,-2.8397,-2.7092,-2.5797,-2.5045,-2.6176,-2.649,-2.6244,-2.678,-2.7249,-2.7682,-2.7839,-2.7854,-2.7998,-2.8168,-2.7986,-2.7973,-2.751,-2.6812,-2.5894,-2.4909,-2.4112,-2.3816,-2.3716,-2.3223,-2.2375,-2.1686,-2.1078,-2.0464,-1.9609,-1.8962,-1.9393,-1.9695,-2.0044,-2.0315,-2.0219,-1.9896,-1.9417,-1.8862,-1.8167,-1.777,-1.7181,-1.7048,-1.6751,-1.6637,-1.6826,-1.7663,-1.8458,-1.8913,-1.9274,-1.9599,-1.9353,-1.9186,-1.8948,-1.8798,-1.8505,-4.0938,-4.1113,-4.1774,-4.2549,-4.315,-4.3041,-4.3022,-4.3046,-4.2986,-4.2928,-4.2935,-4.3024,-4.3675,-4.4439,-4.4659,-4.5202,-4.5505,-4.5483,-4.5341,-4.5112,-4.4932,-4.4448,-4.4008,-4.3703,-4.3365,-4.3192,-4.3232,-4.3504,-4.3725,-4.368,-4.368,-4.3825,-4.3634,-4.3385,-4.321,-4.2814,-4.24,-4.2024,-4.1831,-4.1538,-4.2051,-4.2778,-4.2994,-4.3084,-4.303,-4.2626,-4.176,-4.0962,-4.0037,-3.8676,-3.7027,-3.5453,-3.4261,-3.37,-3.3193,-3.2436,-3.1845,-3.1197,-3.0182,-2.9012,-2.7885,-2.6881,-2.558,-2.5538,-2.6577,-2.6892,-2.6656,-2.6909,-2.739,-2.7815,-2.796,-2.8039,-2.8157,-2.8105,-2.7921,-2.7403,-2.6769,-2.6139,-2.5205,-2.4299,-2.3806,-2.3373,-2.3192,-2.2767,-2.2104,-2.1337,-2.0616,-2.0052,-1.9459,-1.8938,-1.888,-1.892,-1.8946,-1.9221,-1.9505,-1.9259,-1.8871,-1.8324,-1.773,-1.7589,-1.7414,-1.711,-1.6993,-1.7235,-1.7565,-1.8138,-1.8449,-1.8825,-1.9116,-1.9362,-1.878,-1.8381,-1.855,-1.8407,-1.846,-4.0368,-4.0991,-4.1084,-4.1571,-4.216,-4.1517,-4.1506,-4.1947,-4.1306,-4.0969,-4.1084,-4.1116,-4.2044,-4.4452,-4.4409,-4.4685,-4.4959,-4.497,-4.4791,-4.4543,-4.398,-4.3534,-4.3059,-4.2468,-4.2309,-4.2225,-4.2199,-4.239,-4.2886,-4.2868,-4.2867,-4.3105,-4.3105,-4.2772,-4.2368,-4.1848,-4.1192,-4.0758,-4.0172,-3.9846,-4.0172,-4.0794,-4.1315,-4.1257,-4.0955,-4.0068,-3.9244,-3.8858,-3.795,-3.6724,-3.5284,-3.368,-3.2629,-3.1864,-3.1394,-3.0948,-3.0378,-3.0001,-2.9126,-2.8104,-2.7189,-2.6406,-2.5263,-2.4755,-2.5671,-2.6299,-2.6294,-2.6578,-2.7146,-2.7973,-2.817,-2.8026,-2.8091,-2.7736,-2.7429,-2.6283,-2.5337,-2.4885,-2.4223,-2.3397,-2.2778,-2.2871,-2.328,-2.2848,-2.2424,-2.1661,-2.0905,-2.0245,-1.9411,-1.8948,-1.8488,-1.8451,-1.8404,-1.8334,-1.8716,-1.8535,-1.8173,-1.7642,-1.7375,-1.7392,-1.729,-1.708,-1.7078,-1.7705,-1.7952,-1.8232,-1.8549,-1.8931,-1.8576,-1.8656,-1.7989,-1.7658,-1.7844,-1.8377,-1.8623]},{"header":{"parameterUnit":"m.s-1","parameterCategory":1,"la1":31.0,"la2":29.5877,"lo1":-88.7671,"lo2":-86.6584,"dx":0.0162,"dy":0.0185,"nx":115,"ny":88,"refTime":"2023-01-29T06:00:00:Z","depth":0,"parameterNumber":3,"parameterNumberName":"V-component_of_WINDS"},"data":[0.0,0.0,0.0,0.0,0.0,0.0,0.0,0.0,0.0,0.0,0.0,0.0,0.0,0.0,0.0,0.0,0.0,0.0,0.0,0.0,0.0,0.0,0.0,0.0,0.0,0.0,0.0,0.0,0.0,0.0,0.0,0.0,0.0,0.0,0.0,0.0,0.0,0.0,0.0,0.0,0.0,0.0,0.0,0.0,0.0,0.0,0.0,0.0,0.0,0.0,0.0,0.0,0.0,0.0,0.0,0.0,0.0,0.0,0.0,0.0,0.0,0.0,0.0,0.0,0.0,0.0,0.0,0.0,0.0,0.0,0.0,0.0,0.0,0.0,0.0,0.0,0.0,0.0,0.0,0.0,0.0,0.0,0.0,0.0,0.0,0.0,0.0,0.0,0.0,0.0,0.0,0.0,0.0,0.0,0.0,0.0,0.0,0.0,0.0,0.0,0.0,0.0,0.0,0.0,0.0,0.0,0.0,0.0,0.0,0.0,0.0,0.0,0.0,0.0,0.0,0.0,0.0,0.0,0.0,0.0,0.0,0.0,0.0,0.0,0.0,0.0,0.0,0.0,0.0,0.0,0.0,0.0,0.0,0.0,0.0,0.0,0.0,0.0,0.0,0.0,0.0,0.0,0.0,0.0,0.0,0.0,0.0,0.0,0.0,0.0,0.0,0.0,0.0,0.0,0.0,0.0,0.0,0.0,0.0,0.0,0.0,0.0,0.0,0.0,0.0,0.0,0.0,0.0,0.0,0.0,0.0,0.0,0.0,0.0,0.0,0.0,0.0,0.0,0.0,0.0,0.0,0.0,0.0,0.0,0.0,0.0,0.0,0.0,0.0,0.0,0.0,0.0,0.0,0.0,0.0,0.0,0.0,0.0,0.0,0.0,0.0,0.0,0.0,0.0,0.0,0.0,0.0,0.0,0.0,0.0,0.0,0.0,0.0,0.0,0.0,0.0,0.0,0.0,0.0,0.0,0.0,0.0,0.0,0.0,0.0,0.0,0.0,0.0,0.0,0.0,0.0,0.0,0.0,0.0,0.0,0.0,0.0,0.0,0.0,0.0,0.0,0.0,0.0,0.0,0.0,0.0,0.0,0.0,0.0,0.0,0.0,0.0,0.0,0.0,0.0,0.0,0.0,0.0,0.0,0.0,0.0,0.0,0.0,0.0,0.0,0.0,0.0,0.0,0.0,0.0,0.0,0.0,0.0,0.0,0.0,0.0,0.0,0.0,0.0,0.0,0.0,0.0,0.0,0.0,0.0,0.0,0.0,0.0,0.0,0.0,0.0,0.0,0.0,0.0,0.0,0.0,0.0,0.0,0.0,0.0,0.0,0.0,0.0,0.0,0.0,0.0,0.0,0.0,0.0,0.0,0.0,0.0,0.0,0.0,0.0,0.0,0.0,0.0,0.0,0.0,0.0,0.0,0.0,0.0,0.0,0.0,0.0,0.0,0.0,0.0,0.0,0.0,0.0,0.0,0.0,0.0,0.0,0.0,0.0,0.0,0.0,0.0,0.0,0.0,0.0,0.0,0.0,0.0,0.0,0.0,0.0,0.0,0.0,0.0,0.0,0.0,0.0,0.0,0.0,0.0,0.0,0.0,0.0,0.0,0.0,0.0,0.0,0.0,0.0,0.0,0.0,0.0,0.0,0.0,0.0,0.0,0.0,0.0,0.0,0.0,0.0,0.0,0.0,0.0,0.0,0.0,0.0,0.0,0.0,0.0,0.0,0.0,0.0,0.0,0.0,0.0,0.0,0.0,0.0,0.0,0.0,0.0,0.0,0.0,0.0,0.0,0.0,0.0,0.0,0.0,0.0,0.0,0.0,0.0,0.0,0.0,0.0,0.0,0.0,0.0,0.0,0.0,0.0,0.0,0.0,0.0,0.0,0.0,0.0,0.0,0.0,0.0,0.0,0.0,0.0,0.0,0.0,0.0,0.0,0.0,0.0,0.0,0.0,0.0,0.0,0.0,0.0,0.0,0.0,0.0,0.0,0.0,0.0,0.0,0.0,0.0,0.0,0.0,0.0,0.0,0.0,0.0,0.0,0.0,0.0,0.0,0.0,0.0,0.0,0.0,0.0,0.0,0.0,0.0,0.0,0.0,0.0,0.0,0.0,0.0,0.0,0.0,0.0,0.0,0.0,0.0,0.0,0.0,0.0,0.0,0.0,0.0,0.0,0.0,0.0,0.0,0.0,0.0,0.0,0.0,0.0,0.0,0.0,0.0,0.0,0.0,0.0,0.0,0.0,0.0,0.0,0.0,0.0,0.0,0.0,0.0,0.0,0.0,0.0,0.0,0.0,0.0,0.0,0.0,0.0,0.0,0.0,0.0,0.0,0.0,0.0,0.0,0.0,0.0,0.0,0.0,0.0,0.0,0.0,0.0,0.0,0.0,0.0,0.0,0.0,0.0,0.0,0.0,0.0,0.0,0.0,0.0,0.0,0.0,0.0,0.0,0.0,0.0,0.0,0.0,0.0,0.0,0.0,0.0,0.0,0.0,0.0,0.0,0.0,0.0,0.0,0.0,0.0,0.0,0.0,0.0,0.0,0.0,0.0,0.0,0.0,0.0,0.0,0.0,0.0,0.0,0.0,0.0,0.0,0.0,0.0,0.0,0.0,0.0,0.0,0.0,0.0,0.0,0.0,0.0,0.0,0.0,0.0,0.0,0.0,0.0,0.0,0.0,0.0,0.0,0.0,0.0,0.0,0.0,0.0,0.0,0.0,0.0,0.0,0.0,0.0,0.0,0.0,0.0,0.0,0.0,0.0,0.0,0.0,0.0,0.0,0.0,0.0,0.0,0.0,0.0,0.0,0.0,0.0,0.0,0.0,0.0,0.0,0.0,0.0,0.0,0.0,0.0,0.0,0.0,0.0,0.0,0.0,0.0,0.0,0.0,0.0,0.0,0.0,0.0,0.0,0.0,0.0,0.0,0.0,0.0,0.0,0.0,0.0,0.0,0.0,0.0,0.0,0.0,0.0,0.0,0.0,0.0,0.0,0.0,0.0,0.0,0.0,0.0,0.0,0.0,0.0,0.0,0.0,0.0,0.0,0.0,0.0,0.0,0.0,0.0,0.0,0.0,0.0,0.0,0.0,0.0,0.0,0.0,0.0,0.0,0.0,0.0,0.0,0.0,0.0,0.0,0.0,0.0,0.0,0.0,0.0,0.0,0.0,0.0,0.0,0.0,0.0,0.0,0.0,0.0,0.0,0.0,0.0,0.0,0.0,0.0,0.0,0.0,0.0,0.0,0.0,0.0,0.0,0.0,0.0,0.0,0.0,0.0,0.0,0.0,0.0,0.0,0.0,0.0,0.0,0.0,0.0,0.0,0.0,0.0,0.0,0.0,0.0,0.0,0.0,0.0,0.0,0.0,0.0,0.0,0.0,0.0,0.0,0.0,0.0,0.0,0.0,0.0,0.0,0.0,0.0,0.0,0.0,0.0,0.0,0.0,0.0,0.0,0.0,0.0,0.0,0.0,0.0,0.0,0.0,0.0,0.0,0.0,0.0,0.0,0.0,0.0,0.0,0.0,0.0,0.0,0.0,0.0,0.0,0.0,0.0,0.0,0.0,0.0,0.0,0.0,0.0,0.0,0.0,0.0,0.0,0.0,0.0,0.0,0.0,0.0,0.0,0.0,0.0,0.0,0.0,0.0,0.0,0.0,0.0,0.0,0.0,0.0,0.0,0.0,0.0,0.0,0.0,0.0,0.0,0.0,0.0,0.0,0.0,0.0,0.0,0.0,0.0,0.0,0.0,0.0,0.0,0.0,0.0,0.0,0.0,0.0,0.0,0.0,0.0,0.0,0.0,0.0,0.0,0.0,0.0,0.0,0.0,0.0,0.0,0.0,0.0,0.0,0.0,0.0,0.0,0.0,0.0,0.0,0.0,0.0,0.0,0.0,0.0,0.0,0.0,0.0,0.0,0.0,0.0,0.0,0.0,0.0,0.0,0.0,0.0,0.0,0.0,0.0,0.0,0.0,0.0,0.0,0.0,0.0,0.0,0.0,0.0,0.0,0.0,0.0,0.0,0.0,0.0,0.0,0.0,0.0,0.0,0.0,0.0,0.0,0.0,0.0,0.0,0.0,0.0,0.0,0.0,0.0,0.0,0.0,0.0,0.0,0.0,0.0,0.0,0.0,0.0,0.0,0.0,0.0,0.0,0.0,0.0,0.0,0.0,0.0,0.0,0.0,0.0,0.0,0.0,0.0,0.0,0.0,0.0,0.0,0.0,0.0,0.0,0.0,0.0,0.0,0.0,0.0,1.9101,0.0,0.0,0.0,0.0,0.0,0.0,0.0,0.0,0.0,0.0,0.0,0.0,0.0,0.0,0.0,0.0,0.0,0.0,0.0,0.0,0.0,0.0,0.0,0.0,0.0,0.0,0.0,0.0,0.0,0.0,0.0,0.0,0.0,0.0,0.0,0.0,0.0,0.0,0.0,0.0,0.0,0.0,0.0,0.0,0.0,0.0,0.0,0.0,0.0,0.0,0.0,0.0,0.0,0.0,0.0,0.0,0.0,0.0,0.0,0.0,0.0,0.0,0.0,0.0,0.0,0.0,0.0,0.0,0.0,0.0,0.0,0.0,0.0,0.0,0.0,0.0,0.0,0.0,0.0,0.0,0.0,0.0,0.0,0.0,0.0,0.0,0.0,0.0,0.0,0.0,0.0,0.0,0.0,0.0,0.0,0.0,0.0,0.0,0.0,0.0,0.0,0.0,0.0,0.0,0.0,0.0,0.0,0.0,0.0,0.0,1.5377,1.7198,1.6235,1.7033,1.9793,0.0,0.0,0.0,0.0,0.0,0.0,0.0,0.0,0.0,0.0,0.0,0.0,0.0,0.0,0.0,0.0,0.0,0.0,0.0,0.0,0.0,0.0,0.0,0.0,0.0,0.0,0.0,0.0,0.0,0.0,0.0,0.0,0.0,0.0,0.0,0.0,0.0,0.0,0.0,0.0,0.0,0.0,0.0,0.0,0.0,0.0,0.0,0.0,0.0,0.0,0.0,0.0,0.0,0.0,0.0,0.0,0.0,0.0,0.0,0.0,0.0,0.0,0.0,0.0,0.0,0.0,0.0,0.0,0.0,0.0,0.0,0.0,0.0,0.0,0.0,0.0,0.0,0.0,0.0,0.0,0.0,0.0,0.0,0.0,0.0,0.0,0.0,0.0,0.0,0.0,0.0,0.0,0.0,0.0,0.0,0.0,0.0,0.0,0.0,0.0,0.0,0.0,0.0,0.0,0.0,0.0,0.0,0.0,0.0,0.0,0.0,0.0,1.6562,1.7349,2.0409,0.0,0.0,0.0,0.0,0.0,0.0,0.0,0.0,0.0,0.0,0.0,0.0,0.0,0.0,0.0,0.0,0.0,0.0,0.0,0.0,0.0,0.0,0.0,0.0,0.0,0.0,0.0,0.0,0.0,0.0,0.0,0.0,0.0,0.0,0.0,0.0,0.0,0.0,0.0,0.0,0.0,0.0,0.0,0.0,0.0,0.0,0.0,0.0,0.0,0.0,0.0,0.0,0.0,0.0,0.0,0.0,0.0,0.0,0.0,0.0,0.0,0.0,0.0,0.0,0.0,0.0,0.0,0.0,0.0,0.0,0.0,0.0,0.0,0.0,0.0,0.0,0.0,0.0,0.0,0.0,0.0,0.0,0.0,0.0,0.0,0.0,0.0,0.0,0.0,0.0,0.0,0.0,0.0,0.0,0.0,0.0,0.0,0.0,0.0,0.0,0.0,0.0,0.0,0.0,0.0,0.0,0.0,0.0,0.0,0.0,1.8062,1.8846,1.9382,0.0,2.1584,0.0,0.0,0.0,0.0,0.0,0.0,0.0,0.0,0.0,0.0,0.0,0.0,0.0,0.0,0.0,0.0,0.0,0.0,0.0,0.0,0.0,0.0,0.0,0.0,0.0,0.0,0.0,0.0,0.0,0.0,0.0,0.0,0.0,0.0,0.0,0.0,0.0,0.0,0.0,0.0,0.0,0.0,0.0,0.0,0.0,0.0,0.0,0.0,0.0,0.0,0.0,0.0,0.0,0.0,0.0,0.0,0.0,0.0,0.0,0.0,0.0,0.0,0.0,0.0,0.0,0.0,0.0,0.0,0.0,0.0,0.0,0.0,0.0,0.0,0.0,0.0,0.0,0.0,0.0,0.0,0.0,0.0,0.0,0.0,0.0,0.0,0.0,0.0,0.0,0.0,0.0,0.0,0.0,0.0,0.0,0.0,0.0,0.0,0.0,0.0,0.0,0.0,0.0,0.0,0.0,0.0,0.0,0.0,0.0,0.0,1.7249,1.8592,2.0242,2.1368,0.0,0.0,0.0,0.0,0.0,0.0,0.0,0.0,0.0,0.0,0.0,0.0,0.0,0.0,0.0,0.0,0.0,0.0,0.0,0.0,0.0,0.0,0.0,0.0,0.0,0.0,0.0,0.0,0.0,0.0,0.0,0.0,0.0,0.0,0.0,0.0,0.0,0.0,0.0,0.0,0.0,0.0,0.0,0.0,0.0,0.0,0.0,0.0,0.0,0.0,0.0,0.0,0.0,0.0,0.0,0.0,0.0,0.0,0.0,0.0,0.0,0.0,0.0,0.0,0.0,0.0,0.0,0.0,0.0,0.0,0.0,0.0,0.0,0.0,0.0,0.0,0.0,0.0,0.0,0.0,0.0,0.0,0.0,0.0,0.0,0.0,0.0,0.0,0.0,0.0,0.0,0.0,0.0,0.0,0.0,0.0,0.0,0.0,0.0,0.0,0.0,0.0,0.0,0.0,0.0,0.0,0.0,0.0,0.0,0.0,1.6337,1.7394,1.8914,2.0747,2.1753,2.1849,0.0,0.0,0.0,0.0,0.0,0.0,0.0,0.0,0.0,0.0,0.0,0.0,0.0,0.0,0.0,0.0,0.0,0.0,0.0,0.0,0.0,0.0,0.0,0.0,0.0,0.0,0.0,0.0,0.0,0.0,0.0,0.0,0.0,0.0,0.0,0.0,0.0,0.0,0.0,0.0,0.0,0.0,0.0,0.0,0.0,0.0,0.0,0.0,0.0,0.0,0.0,0.0,0.0,0.0,0.0,0.0,0.0,0.0,0.0,0.0,0.0,0.0,0.0,0.0,0.0,0.0,0.0,0.0,0.0,0.0,0.0,0.0,0.0,0.0,0.0,0.0,0.0,0.0,0.0,0.0,0.0,0.0,0.0,0.0,0.0,0.0,0.0,0.0,0.0,0.0,0.0,0.0,0.0,0.0,0.0,0.0,0.0,0.0,0.0,0.0,0.0,0.0,0.0,0.0,0.0,0.0,0.0,0.0,1.6369,1.8197,1.9562,2.0244,2.1295,2.1582,0.0,0.0,0.0,0.0,0.0,0.0,0.0,0.0,0.0,0.0,0.0,0.0,0.0,0.0,0.0,0.0,0.0,0.0,0.0,0.0,0.0,0.0,0.0,0.0,0.0,0.0,0.0,0.0,0.0,0.0,0.0,0.0,0.0,0.0,0.0,0.0,0.0,0.0,0.0,0.0,0.0,0.0,0.0,0.0,0.0,0.0,0.0,0.0,0.0,0.0,0.0,0.0,0.0,0.0,0.0,0.0,0.0,0.0,0.0,0.0,0.0,0.0,0.0,0.0,0.0,0.0,0.0,0.0,0.0,0.0,0.0,0.0,0.0,0.0,0.0,0.0,0.0,0.0,0.0,0.0,0.0,0.0,0.0,0.0,0.0,0.0,0.0,0.0,0.0,0.0,0.0,0.0,0.0,0.0,0.0,0.0,0.0,0.0,0.0,0.0,0.0,0.0,0.0,0.0,0.0,0.0,0.0,0.0,0.0,1.4891,1.7354,1.9138,2.0074,2.1387,2.1915,0.0,0.0,0.0,0.0,0.0,0.0,0.0,0.0,0.0,0.0,0.0,0.0,0.0,0.0,0.0,0.0,0.0,0.0,0.0,0.0,0.0,0.0,0.0,0.0,0.0,0.0,0.0,0.0,0.0,0.0,0.0,0.0,0.0,0.0,0.0,0.0,0.0,0.0,0.0,0.0,0.0,0.0,0.0,0.0,0.0,0.0,0.0,0.0,0.0,0.0,0.0,0.0,0.0,0.0,0.0,0.0,0.0,0.0,0.0,0.0,0.0,0.0,0.0,0.0,0.0,0.0,0.0,0.0,0.0,0.0,0.0,0.0,0.0,0.0,0.0,0.0,0.0,0.0,0.0,0.0,0.0,0.0,0.0,0.0,0.0,0.0,0.0,0.0,0.0,0.0,0.0,0.0,0.0,0.0,0.0,0.0,0.0,0.0,0.0,0.0,0.0,0.0,0.0,0.0,0.0,0.0,0.0,0.0,0.0,1.481,0.0,1.8653,1.9736,2.1097,2.1782,0.0,0.0,0.0,0.0,0.0,0.0,0.0,0.0,0.0,0.0,0.0,0.0,0.0,0.0,0.0,0.0,0.0,0.0,0.0,0.0,0.0,0.0,0.0,0.0,0.0,0.0,0.0,0.0,0.0,0.0,0.0,0.0,0.0,0.0,0.0,0.0,0.0,0.0,0.0,0.0,0.0,0.0,0.0,0.0,0.0,0.0,0.0,0.0,0.0,0.0,0.0,0.0,0.0,0.0,0.0,0.0,0.0,0.0,0.0,0.0,0.0,0.0,0.0,0.0,0.0,0.0,0.0,0.0,0.0,0.0,0.0,0.0,0.0,0.0,0.0,0.0,0.0,0.0,0.0,0.0,0.0,0.0,0.0,0.0,0.0,0.0,0.0,0.0,0.0,0.0,0.0,0.0,0.0,0.0,0.0,0.0,0.0,0.0,0.0,0.0,0.0,0.0,0.0,0.0,0.0,0.0,0.0,0.0,1.392,1.6484,1.744,1.8388,1.9394,2.0423,2.0998,0.0,0.0,0.0,0.0,0.0,0.0,0.0,0.0,0.0,0.0,0.0,0.0,0.0,0.0,0.0,0.0,0.0,0.0,0.0,0.0,0.0,0.0,0.0,0.0,0.0,0.0,0.0,0.0,0.0,0.0,0.0,0.0,0.0,0.0,0.0,0.0,0.0,0.0,0.0,0.0,0.0,0.0,0.0,0.0,0.0,0.0,0.0,0.0,0.0,0.0,0.0,0.0,0.0,0.0,0.0,0.0,0.0,0.0,0.0,0.0,0.0,0.0,0.0,0.0,0.0,0.0,0.0,0.0,0.0,0.0,0.0,0.0,0.0,0.0,0.0,0.0,0.0,0.0,0.0,0.0,0.0,0.0,0.0,0.0,0.0,0.0,0.0,0.0,0.0,0.0,0.0,0.0,0.0,0.0,0.0,0.0,0.0,0.0,0.0,0.0,0.0,0.0,0.0,0.0,0.0,0.0,0.0,0.0,0.0,1.7451,1.7393,1.8372,2.0589,2.0368,2.0642,0.0,0.0,0.0,0.0,0.0,0.0,0.0,0.0,0.0,0.0,0.0,0.0,0.0,0.0,0.0,0.0,0.0,0.0,0.0,0.0,0.0,0.0,0.0,0.0,0.0,0.0,0.0,0.0,0.0,0.0,0.0,0.0,0.0,0.0,0.0,0.0,0.0,0.0,0.0,0.0,0.0,0.0,0.0,0.0,0.0,0.0,0.0,0.0,0.0,0.0,0.0,0.0,0.0,0.0,0.0,0.0,0.0,0.0,0.0,0.0,0.0,0.0,0.0,0.0,0.0,0.0,0.0,0.0,0.0,0.0,0.0,0.0,0.0,0.0,0.0,0.0,0.0,0.0,0.0,0.0,0.0,0.0,0.0,0.0,0.0,0.0,0.0,0.0,0.0,0.0,0.0,0.0,0.0,0.0,0.0,0.0,0.0,0.0,0.0,0.0,0.0,0.0,0.0,0.0,0.0,0.0,0.0,0.0,0.0,1.7878,1.7652,1.8286,2.0163,2.0273,2.0552,2.1122,0.0,0.0,0.0,0.0,0.0,0.0,0.0,0.0,0.0,0.0,0.0,0.0,0.0,0.0,0.0,0.0,0.0,0.0,0.0,0.0,0.0,0.0,0.0,0.0,0.0,0.0,0.0,0.0,0.0,0.0,0.0,0.0,0.0,0.0,0.0,0.0,0.0,0.0,0.0,0.0,0.0,0.0,0.0,0.0,0.0,0.0,0.0,0.0,0.0,0.0,0.0,0.0,0.0,0.0,0.0,0.0,0.0,0.0,0.0,0.0,0.0,0.0,0.0,0.0,0.0,0.0,0.0,0.0,0.0,0.0,0.0,0.0,0.0,0.0,0.0,0.0,0.0,0.0,0.0,0.0,0.0,0.0,0.0,0.0,0.0,0.0,0.0,0.0,0.0,0.0,0.0,0.0,0.0,0.0,0.0,0.0,0.0,0.0,0.0,0.0,0.0,0.0,0.0,0.0,0.0,0.0,0.0,0.0,1.8099,1.8223,1.8434,1.8698,2.0147,2.0709,0.0,0.0,0.0,0.0,0.0,0.0,0.0,0.0,0.0,0.0,0.0,0.0,0.0,0.0,0.0,0.0,0.0,0.0,0.0,0.0,0.0,0.0,0.0,0.0,0.0,0.0,0.0,0.0,0.0,0.0,0.0,0.0,0.0,0.0,0.0,0.0,0.0,0.0,0.0,0.0,0.0,0.0,0.0,0.0,0.0,0.0,0.0,0.0,0.0,0.0,0.0,0.0,0.0,0.0,0.0,0.0,0.0,0.0,0.0,0.0,0.0,0.0,0.0,0.0,0.0,0.0,0.0,0.0,0.0,0.0,0.0,0.0,0.0,0.0,0.0,0.0,0.0,0.0,0.0,0.0,0.0,0.0,0.0,0.0,0.0,0.0,0.0,0.0,0.0,0.0,0.0,0.0,0.0,0.0,0.0,0.0,0.0,0.0,0.0,0.0,0.0,0.0,0.0,0.0,0.0,0.0,0.0,0.0,0.0,1.8344,1.9684,2.0689,2.1309,2.0746,2.084,0.0,0.0,0.0,0.0,0.0,0.0,0.0,0.0,0.0,0.0,0.0,0.0,0.0,0.0,0.0,0.0,0.0,0.0,0.0,0.0,0.0,0.0,0.0,0.0,0.0,0.0,0.0,0.0,0.0,0.0,0.0,0.0,0.0,0.0,0.0,0.0,0.0,0.0,0.0,0.0,0.0,0.0,0.0,0.0,0.0,0.0,0.0,0.0,0.0,0.0,0.0,0.0,0.0,0.0,0.0,0.0,0.0,0.0,0.0,0.0,0.0,0.0,0.0,0.0,0.0,0.0,0.0,0.0,0.0,0.0,0.0,0.0,0.0,0.0,0.0,0.0,0.0,0.0,0.0,0.0,0.0,0.0,0.0,0.0,0.0,0.0,0.0,0.0,0.0,0.0,0.0,0.0,0.0,0.0,0.0,0.0,0.0,0.0,0.0,0.0,0.0,0.0,0.0,0.0,0.0,0.0,0.0,0.0,1.7914,1.8203,2.0495,2.1936,2.2415,2.1878,2.1574,0.0,0.0,0.0,0.0,0.0,0.0,0.0,0.0,0.0,0.0,0.0,0.0,0.0,0.0,0.0,0.0,0.0,0.0,0.0,0.0,0.0,0.0,0.0,0.0,0.0,0.0,0.0,0.0,0.0,0.0,0.0,0.0,0.0,0.0,0.0,0.0,0.0,0.0,0.0,0.0,0.0,0.0,0.0,0.0,0.0,0.0,0.0,0.0,0.0,0.0,0.0,0.0,0.0,0.0,0.0,0.0,0.0,0.0,0.0,0.0,0.0,0.0,0.0,0.0,0.0,0.0,0.0,0.0,0.0,0.0,0.0,0.0,0.0,0.0,0.0,0.0,0.0,0.0,0.0,0.0,0.0,0.0,0.0,0.0,0.0,0.0,0.0,0.0,0.0,0.0,0.0,0.0,0.0,0.0,0.0,0.0,0.0,0.0,0.0,0.0,0.0,0.0,0.0,0.0,0.0,0.0,0.0,0.0,1.8153,1.7987,2.0855,2.2405,2.2477,2.3079,2.2586,0.0,0.0,0.0,0.0,0.0,0.0,0.0,0.0,0.0,0.0,0.0,0.0,0.0,0.0,0.0,0.0,0.0,0.0,0.0,0.0,0.0,0.0,0.0,0.0,0.0,0.0,0.0,0.0,0.0,0.0,0.0,0.0,0.0,0.0,0.0,0.0,0.0,0.0,0.0,0.0,0.0,0.0,0.0,0.0,0.0,0.0,0.0,0.0,0.0,0.0,0.0,0.0,0.0,0.0,0.0,0.0,0.0,0.0,0.0,0.0,0.0,0.0,0.0,0.0,0.0,0.0,0.0,0.0,0.0,0.0,0.0,0.0,0.0,0.0,0.0,0.0,0.0,0.0,0.0,0.0,0.0,0.0,0.0,0.0,0.0,0.0,0.0,0.0,0.0,0.0,0.0,0.0,0.0,0.0,0.0,0.0,0.0,0.0,0.0,0.0,0.0,0.0,0.0,0.0,0.0,0.0,0.0,0.0,1.816,1.8341,2.0965,2.2304,2.2113,2.2552,2.2703,0.0,0.0,0.0,0.0,0.0,0.0,0.0,0.0,0.0,0.0,0.0,0.0,0.0,0.0,0.0,0.0,0.0,0.0,0.0,0.0,0.0,0.0,0.0,0.0,0.0,0.0,0.0,0.0,0.0,0.0,0.0,0.0,0.0,0.0,0.0,0.0,0.0,0.0,0.0,0.0,0.0,0.0,0.0,0.0,0.0,0.0,0.0,0.0,2.367,0.0,0.0,0.0,0.0,0.0,0.0,0.0,0.0,0.0,0.0,0.0,0.0,0.0,0.0,0.0,0.0,0.0,0.0,0.0,0.0,0.0,0.0,0.0,0.0,0.0,0.0,0.0,0.0,0.0,0.0,0.0,0.0,0.0,0.0,0.0,0.0,0.0,0.0,0.0,0.0,0.0,0.0,0.0,0.0,0.0,0.0,0.0,0.0,0.0,0.0,0.0,0.0,0.0,0.0,0.0,0.0,0.0,0.0,0.0,1.8371,1.9044,2.0921,2.2032,2.2215,2.2326,2.2624,0.0,0.0,0.0,0.0,0.0,0.0,0.0,0.0,0.0,0.0,0.0,0.0,0.0,0.0,0.0,0.0,0.0,0.0,0.0,0.0,0.0,0.0,0.0,0.0,0.0,0.0,0.0,0.0,0.0,0.0,0.0,0.0,0.0,0.0,0.0,0.0,0.0,0.0,0.0,0.0,0.0,0.0,0.0,0.0,0.0,0.0,0.0,0.0,0.0,0.0,0.0,0.0,0.0,0.0,0.0,0.0,0.0,0.0,0.0,0.0,0.0,0.0,0.0,0.0,0.0,0.0,0.0,0.0,0.0,0.0,0.0,0.0,0.0,0.0,0.0,0.0,0.0,0.0,0.0,0.0,0.0,0.0,0.0,0.0,0.0,0.0,0.0,0.0,0.0,0.0,0.0,0.0,0.0,0.0,0.0,0.0,0.0,0.0,0.0,0.0,0.0,0.0,0.0,0.0,0.0,0.0,0.0,1.7418,1.8694,1.9799,2.0891,2.1751,2.2304,2.2243,2.2537,2.3295,0.0,0.0,0.0,0.0,0.0,0.0,0.0,0.0,0.0,0.0,0.0,0.0,0.0,0.0,0.0,0.0,0.0,0.0,0.0,0.0,0.0,0.0,0.0,0.0,0.0,0.0,0.0,0.0,0.0,0.0,0.0,0.0,0.0,0.0,0.0,0.0,0.0,0.0,1.8518,2.0789,0.0,0.0,0.0,0.0,0.0,0.0,0.0,0.0,2.2583,0.0,0.0,0.0,0.0,0.0,0.0,0.0,0.0,0.0,0.0,0.0,0.0,0.0,0.0,0.0,0.0,0.0,0.0,0.0,0.0,0.0,0.0,0.0,0.0,0.0,0.0,0.0,0.0,0.0,0.0,0.0,0.0,0.0,0.0,0.0,0.0,0.0,0.0,0.0,0.0,0.0,0.0,0.0,0.0,0.0,0.0,0.0,0.0,0.0,0.0,0.0,0.0,0.0,0.0,0.0,0.0,1.6851,1.7531,1.8659,2.026,2.1289,2.1751,2.1601,2.2147,2.2615,2.296,0.0,0.0,0.0,0.0,0.0,0.0,0.0,0.0,0.0,0.0,0.0,0.0,0.0,0.0,0.0,0.0,0.0,0.0,0.0,0.0,0.0,0.0,0.0,0.0,0.0,0.0,0.0,0.0,0.0,0.0,0.0,0.0,0.0,0.0,0.0,0.0,0.0,0.0,0.0,2.1628,2.262,0.0,0.0,0.0,0.0,0.0,0.0,0.0,0.0,2.271,0.0,0.0,0.0,0.0,0.0,0.0,0.0,0.0,0.0,0.0,0.0,0.0,0.0,0.0,0.0,0.0,0.0,0.0,0.0,0.0,0.0,0.0,0.0,0.0,0.0,0.0,0.0,0.0,0.0,0.0,0.0,0.0,0.0,0.0,0.0,0.0,0.0,0.0,0.0,0.0,0.0,0.0,0.0,0.0,0.0,0.0,0.0,0.0,0.0,0.0,0.0,0.0,0.0,0.0,0.0,1.7827,1.8229,1.9144,2.0599,2.1087,2.1432,2.1645,2.1475,2.1864,0.0,0.0,0.0,0.0,0.0,0.0,0.0,0.0,0.0,0.0,0.0,0.0,0.0,0.0,0.0,0.0,0.0,0.0,0.0,0.0,0.0,0.0,0.0,0.0,0.0,0.0,0.0,0.0,0.0,0.0,0.0,0.0,0.0,0.0,0.0,0.0,0.0,0.0,0.0,0.0,2.1845,2.2441,2.2533,0.0,0.0,0.0,0.0,0.0,0.0,2.3195,2.2445,0.0,0.0,0.0,0.0,0.0,0.0,0.0,0.0,0.0,0.0,0.0,0.0,0.0,0.0,0.0,0.0,0.0,0.0,0.0,0.0,0.0,0.0,0.0,0.0,0.0,0.0,0.0,0.0,0.0,0.0,0.0,0.0,0.0,0.0,0.0,0.0,0.0,0.0,0.0,0.0,0.0,0.0,0.0,0.0,0.0,0.0,0.0,0.0,0.0,0.0,0.0,0.0,0.0,0.0,0.0,1.8927,1.9131,1.9772,2.0894,2.0974,2.1261,2.1748,2.0924,2.1228,0.0,0.0,0.0,0.0,0.0,0.0,0.0,0.0,0.0,0.0,0.0,0.0,0.0,0.0,0.0,0.0,0.0,0.0,0.0,0.0,0.0,0.0,0.0,0.0,0.0,0.0,0.0,0.0,0.0,0.0,0.0,0.0,0.0,0.0,0.0,0.0,0.0,0.0,0.0,0.0,0.0,2.269,2.2119,2.3124,0.0,0.0,0.0,0.0,2.4088,2.3484,0.0,0.0,0.0,0.0,0.0,0.0,0.0,0.0,0.0,0.0,0.0,0.0,0.0,0.0,0.0,0.0,0.0,0.0,0.0,0.0,0.0,0.0,0.0,0.0,0.0,0.0,0.0,0.0,0.0,0.0,0.0,0.0,0.0,0.0,0.0,0.0,0.0,0.0,0.0,0.0,0.0,0.0,0.0,0.0,0.0,0.0,0.0,0.0,0.0,0.0,0.0,0.0,0.0,0.0,0.0,0.0,2.0008,1.9967,2.0273,2.1119,2.1509,2.1601,2.1385,2.1199,2.1623,0.0,0.0,0.0,0.0,0.0,0.0,0.0,0.0,0.0,0.0,0.0,0.0,0.0,0.0,0.0,0.0,0.0,0.0,0.0,0.0,0.0,0.0,0.0,0.0,0.0,0.0,0.0,0.0,0.0,0.0,0.0,0.0,0.0,0.0,0.0,0.0,0.0,0.0,0.0,0.0,0.0,2.3896,2.3814,2.3954,2.407,0.0,0.0,2.4345,2.5022,2.5527,0.0,0.0,0.0,0.0,0.0,0.0,0.0,0.0,0.0,0.0,0.0,0.0,0.0,0.0,0.0,0.0,0.0,0.0,0.0,0.0,0.0,0.0,0.0,0.0,0.0,0.0,0.0,0.0,0.0,0.0,0.0,0.0,0.0,0.0,0.0,0.0,0.0,0.0,0.0,0.0,0.0,0.0,0.0,0.0,0.0,0.0,0.0,0.0,0.0,0.0,0.0,0.0,0.0,0.0,0.0,1.8181,2.0252,2.0256,2.0591,2.1448,2.1708,2.1721,2.1601,2.0711,2.1015,0.0,0.0,0.0,0.0,0.0,0.0,0.0,0.0,0.0,0.0,0.0,0.0,0.0,0.0,0.0,0.0,0.0,0.0,0.0,0.0,0.0,0.0,0.0,0.0,0.0,0.0,0.0,0.0,0.0,0.0,0.0,0.0,0.0,0.0,0.0,0.0,0.0,0.0,0.0,0.0,0.0,0.0,2.2991,2.403,0.0,0.0,0.0,2.4649,2.5958,0.0,0.0,0.0,0.0,0.0,0.0,0.0,0.0,0.0,0.0,0.0,0.0,0.0,0.0,0.0,0.0,0.0,0.0,0.0,0.0,0.0,0.0,0.0,0.0,0.0,0.0,0.0,0.0,0.0,0.0,0.0,0.0,0.0,0.0,0.0,0.0,0.0,0.0,0.0,0.0,0.0,0.0,0.0,0.0,0.0,0.0,0.0,0.0,0.0,0.0,0.0,0.0,0.0,0.0,0.0,0.0,0.0,2.0586,2.0349,2.0714,2.1675,2.1768,2.1781,2.1764,2.0594,0.0,0.0,0.0,0.0,0.0,0.0,0.0,0.0,0.0,0.0,0.0,0.0,0.0,0.0,0.0,0.0,0.0,0.0,0.0,0.0,0.0,0.0,0.0,0.0,0.0,0.0,0.0,1.4806,0.0,0.0,0.0,0.0,0.0,0.0,0.0,0.0,0.0,0.0,0.0,0.0,0.0,0.0,2.4713,2.2728,2.4273,2.5404,0.0,0.0,2.5395,2.6612,2.5936,2.531,0.0,0.0,0.0,0.0,0.0,0.0,0.0,0.0,0.0,0.0,0.0,0.0,0.0,0.0,0.0,0.0,0.0,0.0,0.0,0.0,0.0,0.0,0.0,0.0,0.0,0.0,0.0,0.0,0.0,0.0,0.0,0.0,0.0,0.0,0.0,0.0,0.0,0.0,0.0,0.0,0.0,0.0,0.0,0.0,0.0,0.0,0.0,0.0,0.0,0.0,0.0,0.0,0.0,0.0,0.0,2.121,2.0487,2.0592,2.1748,2.1781,2.1781,2.1781,2.1334,2.1634,0.0,0.0,0.0,0.0,0.0,0.0,0.0,0.0,0.0,0.0,0.0,0.0,0.0,0.0,0.0,0.0,0.0,0.0,0.0,0.0,0.0,0.0,0.0,0.0,0.0,0.0,0.0,0.0,0.0,0.0,0.0,0.0,0.0,0.0,0.0,0.0,0.0,0.0,0.0,0.0,0.0,2.5266,2.4347,2.5056,2.5664,0.0,0.0,2.6771,2.6876,2.797,2.7981,2.5397,0.0,0.0,0.0,0.0,0.0,0.0,0.0,0.0,0.0,0.0,0.0,0.0,0.0,0.0,0.0,0.0,0.0,0.0,0.0,0.0,0.0,0.0,0.0,0.0,0.0,0.0,0.0,0.0,0.0,0.0,0.0,0.0,0.0,0.0,0.0,0.0,0.0,0.0,0.0,0.0,0.0,0.0,0.0,0.0,0.0,0.0,0.0,0.0,0.0,0.0,0.0,0.0,0.0,1.9231,2.1118,2.0173,2.0492,2.2027,2.1932,2.1869,2.2106,2.1528,2.1702,0.0,0.0,0.0,0.0,0.0,0.0,0.0,0.0,0.0,0.0,0.0,0.0,0.0,0.0,0.0,0.0,0.0,0.0,0.0,0.0,0.0,0.0,0.0,0.0,0.0,0.0,0.0,0.0,1.945,2.0709,2.3047,0.0,0.0,0.0,0.0,0.0,0.0,0.0,0.0,0.0,0.0,2.5547,2.5242,2.5496,0.0,0.0,2.5916,2.6281,2.6827,2.6943,2.6738,2.5953,2.6123,0.0,0.0,0.0,0.0,0.0,0.0,0.0,0.0,0.0,0.0,0.0,0.0,0.0,0.0,0.0,0.0,0.0,0.0,0.0,0.0,0.0,0.0,0.0,0.0,0.0,0.0,0.0,0.0,0.0,0.0,0.0,0.0,0.0,0.0,0.0,0.0,0.0,0.0,0.0,0.0,0.0,0.0,0.0,0.0,0.0,0.0,0.0,0.0,0.0,0.0,0.0,0.0,1.9452,2.1259,2.0299,2.0611,2.2265,2.1991,2.1961,2.2265,2.1803,2.1861,0.0,0.0,0.0,0.0,0.0,0.0,0.0,0.0,0.0,0.0,0.0,0.0,0.0,0.0,0.0,0.0,0.0,0.0,0.0,0.0,0.0,0.0,0.0,0.0,0.0,0.0,0.0,0.0,2.114,2.1841,2.2881,0.0,0.0,0.0,0.0,0.0,0.0,0.0,0.0,0.0,0.0,2.5703,2.5697,2.5693,2.5792,2.6011,2.6247,2.6596,2.7198,2.6768,2.6468,2.6813,0.0,0.0,0.0,0.0,0.0,0.0,0.0,0.0,0.0,0.0,0.0,0.0,0.0,0.0,0.0,0.0,0.0,0.0,0.0,0.0,0.0,0.0,0.0,0.0,0.0,0.0,0.0,0.0,0.0,0.0,0.0,0.0,0.0,0.0,0.0,0.0,0.0,0.0,0.0,0.0,0.0,0.0,0.0,0.0,0.0,0.0,0.0,0.0,0.0,0.0,0.0,0.0,0.0,2.0362,2.1919,2.0945,2.1064,2.2248,2.1974,2.1961,2.2282,2.2293,2.2332,2.2497,0.0,0.0,0.0,0.0,0.0,0.0,0.0,0.0,0.0,0.0,0.0,0.0,0.0,0.0,0.0,0.0,0.0,0.0,0.0,0.0,0.0,0.0,0.0,0.0,0.0,0.0,2.2833,2.3065,2.2726,0.0,0.0,0.0,0.0,0.0,0.0,0.0,0.0,0.0,0.0,2.566,2.5703,2.5703,2.5703,2.5956,2.6727,2.7557,2.8115,2.8104,2.8065,2.8029,0.0,0.0,0.0,0.0,0.0,0.0,0.0,0.0,0.0,0.0,0.0,0.0,0.0,0.0,0.0,0.0,0.0,0.0,0.0,0.0,0.0,0.0,0.0,0.0,0.0,0.0,0.0,1.6551,1.7267,0.0,0.0,0.0,0.0,0.0,0.0,0.0,0.0,0.0,0.0,0.0,2.1265,2.1607,0.0,0.0,0.0,0.0,0.0,0.0,0.0,0.0,0.0,0.0,0.0,0.0,2.0271,2.1562,2.0907,2.1081,2.2248,2.1991,2.1945,2.2282,2.2327,2.2366,2.2487,0.0,0.0,0.0,0.0,0.0,0.0,0.0,0.0,0.0,0.0,0.0,0.0,0.0,0.0,0.0,0.0,0.0,0.0,0.0,0.0,0.0,0.0,0.0,0.0,0.0,2.3783,0.0,0.0,0.0,0.0,0.0,0.0,0.0,0.0,0.0,0.0,0.0,2.5559,2.5603,2.5631,2.5636,2.5637,2.5642,2.5916,0.0,0.0,0.0,0.0,0.0,0.0,0.0,0.0,0.0,0.0,0.0,0.0,0.0,0.0,2.826,2.761,2.7963,2.8574,2.9249,0.0,0.0,0.0,0.0,0.0,0.0,0.0,0.0,0.0,0.0,0.0,0.0,0.0,0.0,0.0,0.0,1.6431,0.0,0.0,0.0,0.0,0.0,0.0,0.0,0.0,2.0812,2.1471,2.2382,2.2744,2.2769,0.0,2.2531,2.1783,0.0,0.0,0.0,0.0,0.0,0.0,0.0,0.0,2.0653,2.1565,2.1226,2.1416,2.2192,2.2094,2.2077,2.2282,2.2327,2.2321,2.2315,2.2237,2.2315,0.0,0.0,0.0,0.0,0.0,0.0,0.0,0.0,0.0,0.0,0.0,0.0,0.0,0.0,0.0,0.0,0.0,0.0,0.0,0.0,0.0,0.0,0.0,2.4242,0.0,0.0,0.0,0.0,0.0,0.0,0.0,0.0,0.0,2.5402,2.5522,2.5606,2.5595,2.5615,2.562,2.5611,0.0,0.0,0.0,0.0,0.0,0.0,0.0,2.7267,2.6999,2.8372,2.9589,2.9888,3.0357,3.0646,3.0519,0.0,0.0,2.8798,2.8586,2.881,3.01,2.9472,2.8974,2.9773,2.941,2.8886,0.0,0.0,0.0,0.0,0.0,0.0,0.0,0.0,1.6504,1.6459,0.0,1.6725,0.0,0.0,0.0,0.0,0.0,0.0,0.0,0.0,2.2177,2.2697,2.2911,2.3906,2.4015,2.3381,2.3978,2.3514,2.2115,2.1034,0.0,0.0,0.0,0.0,0.0,0.0,2.1499,2.1899,2.1953,2.2044,2.2185,2.2254,2.2282,2.2254,2.2254,2.2163,2.1998,2.2123,2.2387,2.2889,2.2603,0.0,0.0,0.0,0.0,0.0,0.0,0.0,0.0,0.0,0.0,0.0,0.0,0.0,0.0,0.0,0.0,0.0,0.0,0.0,0.0,2.4072,0.0,0.0,0.0,0.0,0.0,0.0,0.0,0.0,0.0,0.0,2.5499,2.5563,2.5618,2.5664,0.0,0.0,0.0,0.0,2.5648,2.5726,2.6412,2.6955,2.6997,2.7689,2.8495,2.9256,0.0,0.0,3.0689,2.9479,2.8793,2.9396,2.898,2.8264,2.855,2.8908,2.939,3.0124,3.0121,3.03,3.081,3.0057,2.9078,1.9586,0.0,0.0,0.0,0.0,1.9485,1.9781,2.0231,1.951,1.9177,1.912,1.84,0.0,0.0,0.0,0.0,0.0,0.0,2.1902,2.2844,2.3511,2.4268,2.5062,2.5452,2.554,2.5372,2.5511,2.516,2.4261,2.3326,2.2254,2.1109,0.0,0.0,0.0,0.0,2.1499,2.1869,2.1911,2.1986,2.2061,2.2089,2.1957,2.1751,2.1751,2.1721,2.1645,2.1691,2.2112,2.2962,2.3038,0.0,0.0,0.0,0.0,0.0,0.0,0.0,0.0,0.0,0.0,0.0,0.0,0.0,0.0,0.0,0.0,0.0,0.0,0.0,2.4298,2.4195,2.4026,0.0,0.0,0.0,0.0,0.0,0.0,0.0,0.0,0.0,2.556,2.5581,2.5839,0.0,0.0,2.5827,2.6438,2.6527,2.6753,2.7368,0.0,0.0,0.0,2.8926,2.894,2.8642,2.9523,3.0575,3.1382,3.16,3.1767,3.1964,3.1246,3.0653,3.0724,2.9745,2.9471,3.0567,3.0371,3.0004,3.049,3.0083,2.9393,2.221,2.165,2.103,2.107,2.1551,2.1564,2.187,2.2245,2.1718,2.1419,2.1134,2.0347,1.9914,1.9874,2.006,0.0,0.0,0.0,2.3065,2.4163,2.4402,2.5198,2.6334,2.6504,2.6535,2.6596,2.6856,2.6535,2.5557,2.4696,2.3701,2.2554,0.0,0.0,2.1439,2.1795,2.1985,2.2042,2.1823,2.1777,2.1948,2.173,2.1491,2.1323,2.1291,2.1308,2.126,2.1291,2.171,2.2539,2.2559,2.2621,0.0,0.0,0.0,0.0,0.0,0.0,0.0,0.0,0.0,0.0,0.0,2.1488,0.0,0.0,0.0,0.0,2.3775,2.4295,2.4551,2.4329,0.0,0.0,0.0,0.0,0.0,0.0,0.0,2.5355,2.5467,2.555,2.5604,2.5904,2.6312,2.6826,2.647,2.6459,2.7301,0.0,2.7617,2.8163,2.8223,2.8281,2.8476,2.8758,2.875,2.8271,2.9227,3.0199,3.0746,3.1285,3.1698,3.1835,3.1281,3.0783,3.1146,3.0305,3.0041,3.1435,3.1069,3.0673,3.1162,3.0724,2.9926,2.5067,2.4845,2.3325,2.2958,2.3392,2.3405,2.3432,2.3459,2.3366,2.3165,2.2829,2.2382,2.2247,2.233,2.2615,0.0,0.0,2.3477,2.4177,2.5179,2.512,2.5756,2.6947,2.6965,2.7031,2.7111,2.7783,2.7418,2.6123,2.5439,2.48,2.4276,2.3444,2.2572,2.1856,2.2492,2.2671,2.2311,2.1714,2.1585,2.1861,2.1309,2.0959,2.0926,2.0942,2.0942,2.094,2.099,2.1275,2.1824,2.1666,2.1775,2.2313,0.0,0.0,0.0,0.0,0.0,0.0,0.0,0.0,0.0,0.0,0.0,0.0,0.0,0.0,0.0,2.3855,0.0,2.4489,2.4444,0.0,0.0,0.0,2.474,2.5,2.536,2.5601,2.5602,0.0,0.0,0.0,0.0,2.6962,2.7071,2.7098,2.7383,2.8183,2.832,2.8338,2.8446,2.8451,2.8139,2.7676,2.7924,2.8212,2.8207,2.8799,2.9353,2.9467,2.9446,2.9619,3.0424,2.9767,2.9484,3.0196,3.054,3.1128,3.2029,3.1853,3.1647,3.1876,3.1243,3.0037,2.6222,2.6609,2.6195,2.5627,2.5033,2.4918,2.5172,2.5665,2.5119,2.4802,2.4718,2.4165,2.3659,2.3279,2.369,2.3753,2.354,2.5277,2.5928,2.5788,2.6605,2.691,2.6794,2.6849,2.6667,2.6341,2.7034,2.6775,2.571,2.5668,2.5198,2.4298,2.4556,2.3873,2.2248,2.2406,2.2456,2.2321,2.185,2.1668,2.1708,2.1144,2.0697,2.0398,2.0379,2.0612,2.1089,2.1155,2.1608,2.2532,2.2582,2.2412,2.1977,2.1684,0.0,0.0,0.0,0.0,0.0,0.0,0.0,0.0,0.0,2.0184,2.0863,0.0,2.2135,0.0,2.3767,2.4301,2.4353,2.4386,0.0,0.0,2.4818,2.4955,2.5283,2.597,2.6428,2.6482,2.6539,2.6817,2.7427,2.7142,2.7402,2.8639,2.8318,2.8229,2.9058,2.9238,2.9274,2.9311,2.9778,2.9929,2.8934,2.8398,2.8009,2.8046,2.8692,2.9244,2.937,2.9259,2.9468,3.0335,2.9795,2.9541,3.0188,3.0297,3.0347,3.075,3.0988,3.0894,3.0211,2.9487,2.8477,2.7216,2.7457,2.7457,2.7136,2.6587,2.6601,2.6863,2.718,2.6747,2.6467,2.6126,2.5481,2.4972,2.4596,2.486,2.4859,2.4786,2.6134,2.6666,2.6468,2.7272,2.7471,2.7115,2.7172,2.7042,2.6792,2.6975,2.6673,2.6169,2.5959,2.5584,2.4897,2.5425,2.5014,2.3622,2.2936,2.2474,2.2253,2.1636,2.1316,2.1239,2.0803,2.0489,2.0415,1.999,2.0079,2.0693,2.0258,2.0505,2.1545,2.1858,2.1976,2.1856,2.1859,2.1836,0.0,0.0,0.0,0.0,0.0,0.0,0.0,0.0,0.0,0.0,0.0,2.2505,0.0,2.4333,0.0,2.4591,2.497,2.5186,2.5057,2.5049,2.5143,2.532,2.5804,2.613,2.6204,2.6249,2.6605,2.7427,2.7167,2.7383,2.8736,2.853,2.8697,2.9803,2.9843,2.9584,2.9578,2.999,2.9832,2.8583,2.7526,2.6889,2.6986,2.7571,2.8128,2.8257,2.8177,2.8382,2.9232,2.8992,2.8744,2.9365,2.9459,2.9248,2.8664,2.8461,2.8317,2.8118,2.4619,2.1051,2.7947,2.7789,2.7789,2.7776,2.7789,2.7921,2.8,2.8079,2.8013,2.7734,2.7229,2.6509,2.612,2.5916,2.5929,2.6054,2.6241,2.6647,2.6932,2.7107,2.746,2.7551,2.7478,2.7454,2.7471,2.7547,2.7087,2.6834,2.6778,2.6179,2.577,2.5617,2.5926,2.5682,2.4998,2.3557,2.2555,2.2094,2.1327,2.0898,2.0783,2.0341,2.0228,2.0454,1.9681,1.9426,1.9951,1.9159,1.9141,2.004,2.055,2.1126,2.1808,2.1997,2.207,0.0,2.2345,0.0,0.0,0.0,0.0,0.0,0.0,0.0,0.0,2.3271,2.3147,2.4041,2.4985,2.5356,2.4917,2.5639,2.5876,2.5287,2.5369,2.5428,2.5303,2.5542,2.5725,2.5661,2.5674,2.6036,2.6961,2.6976,2.721,2.8057,2.812,2.8588,3.0058,2.9822,2.933,2.9352,2.9285,2.8642,2.7315,2.6203,2.5682,2.5843,2.6417,2.6792,2.7183,2.7002,2.7142,2.8022,2.8178,2.811,2.8434,2.8539,2.7525,2.4948,2.349,2.3462,2.4527,1.9049,1.2257,2.7603,2.7523,2.759,2.751,2.7523,2.7603,2.7723,2.7855,2.7656,2.7537,2.7433,2.7262,2.6948,2.653,2.6632,2.6619,2.6632,2.7363,2.757,2.7433,2.7593,2.7363,2.691,2.6877,2.6661,2.6219,2.6586,2.6546,2.6182,2.5918,2.5603,2.526,2.5156,2.4826,2.4155,0.0,0.0,0.0,2.1253,2.1107,2.1053,2.0007,1.9501,1.9537,1.8976,0.0,1.9509,1.9717,1.9914,2.0172,2.0571,0.0,0.0,0.0,0.0,0.0,0.0,0.0,0.0,0.0,0.0,0.0,2.7168,2.6128,2.4318,2.3858,2.3814,2.4155,2.452,2.4727,2.4746,2.4993,2.5171,2.5222,2.5841,2.6017,2.5386,2.6545,2.7254,2.6555,2.6565,2.6935,2.7628,2.7326,2.722,2.7897,2.7563,2.7627,2.8548,2.8613,2.8535,2.8475,2.7964,2.7354,2.698,2.6139,2.5804,2.6403,2.6661,2.7067,2.7699,2.7273,2.7429,2.8768,2.8539,2.8238,2.8812,2.8403,2.498,1.759,1.469,1.5095,2.0299,1.562,0.9781,2.7954,0.0,2.8268,2.8386,0.0,2.8399,2.8454,2.851,2.814,2.8111,2.8373,2.8072,2.7954,2.8035,2.8157,2.8224,2.8224,2.8612,2.8545,2.8211,2.8106,2.767,2.7079,2.7101,2.6905,2.6661,2.6678,2.6546,2.633,2.6304,2.6099,2.5873,2.6133,2.5909,2.5261,2.41,2.299,2.2044,2.1489,2.137,2.1541,2.0534,2.0038,2.0244,0.0,0.0,0.0,0.0,0.0,0.0,0.0,0.0,0.0,0.0,0.0,2.533,2.5507,2.6114,2.7245,2.7252,2.7661,2.8736,2.8483,2.753,2.5719,2.5152,2.5096,2.5576,2.5772,2.5756,2.5423,2.5471,2.5587,2.5723,2.6098,2.6168,2.5925,2.6584,2.6891,2.6187,2.6107,2.6488,2.7348,2.674,2.6631,2.7257,2.6766,2.6434,2.6854,2.7358,2.7656,2.7617,2.687,2.628,2.6269,2.5969,2.5904,2.6616,2.6513,2.6806,2.7988,2.7483,2.7332,2.8521,2.8689,2.8536,2.7288,2.419,1.909,1.2904,0.7424,0.4362,0.6492,0.1653,-0.3523,2.8543,2.8582,2.9078,2.9274,2.9274,2.9274,2.934,2.9392,0.0,0.0,0.0,2.8752,2.8817,2.9345,2.9487,2.968,2.99,2.9667,2.9432,2.9105,2.8631,2.8072,2.7482,2.7641,2.7628,2.751,2.7157,2.6935,2.6804,2.6734,2.6701,2.6735,2.7064,2.6934,2.6299,2.4948,2.3865,2.3114,2.2051,2.1618,2.187,2.1229,2.0913,2.1107,2.0456,2.0583,2.1473,2.0707,2.1125,2.2919,2.3373,2.4103,2.5261,2.5836,2.6127,2.6153,2.6369,2.6799,2.7541,2.7448,2.7997,2.9528,2.9167,2.8384,2.7196,2.6545,2.6376,2.6902,2.7137,2.6978,2.6204,2.6317,2.6361,2.6233,2.6328,2.6351,2.6161,2.6479,2.648,2.5717,2.5699,2.5933,2.6679,2.612,2.5789,2.6307,2.6026,2.5565,2.5678,2.6296,2.6776,2.6695,2.6152,2.5663,2.5675,2.5832,2.6151,2.7025,2.6475,2.6458,2.7683,2.753,2.7223,2.7722,2.7522,2.5428,2.3349,1.6691,1.032,0.6094,-0.0554,-0.6966,-1.0478,-1.5041,-1.8021,2.9157,2.9157,2.9248,2.9274,2.9274,2.9274,2.9562,2.9954,2.9405,2.9209,2.9274,2.9183,2.9209,2.9274,2.9416,2.9821,3.0243,2.9781,2.9504,0.0,2.8746,2.8085,2.7496,2.8033,2.8007,2.7589,2.7941,2.7889,2.7392,2.6895,2.6684,2.6619,2.6096,2.5559,2.5035,2.4771,2.438,2.3905,2.2811,2.2009,2.16,2.1433,2.1157,2.0805,2.1226,2.1485,2.1647,2.1945,2.236,2.3038,2.2998,2.37,2.5424,2.5712,2.638,2.7638,2.816,2.8507,2.8743,2.9214,2.9639,3.0003,2.9298,2.8465,2.7679,2.7352,2.6957,2.6464,2.6975,2.6962,2.6261,2.6756,2.6862,2.6384,2.6816,2.674,2.5545,2.6684,2.7264,2.6534,2.6571,2.6568,2.6602,2.601,2.5546,2.56,2.5587,2.5492,2.5517,2.5712,2.5871,2.5861,2.5732,2.5593,2.5644,2.6118,2.674,2.7712,2.7087,2.6937,2.8536,2.7476,2.664,2.6846,2.1717,1.6912,1.4877,0.652,-0.1306,-0.8199,-1.284,-1.74,-2.3309,-2.6332,-2.6091,2.9745,2.9784,3.0072,3.0202,3.0202,3.0202,3.0346,3.0494,2.9851,2.9809,3.0176,2.9889,2.9915,3.0262,3.0507,3.0712,3.0863,3.0685,3.0408,2.9979,2.9201,2.8739,2.849,2.8287,2.8287,2.8339,2.811,2.7954,2.7601,2.7152,2.6893,2.6788,2.6168,2.5692,2.5435,2.4844,2.442,2.4245,2.3319,2.2714,2.2439,2.1825,2.1538,2.1616,2.1911,2.2464,2.316,2.3893,2.4487,2.4918,2.4719,2.526,2.664,2.6427,2.6947,2.8467,2.8925,2.9172,2.9319,2.968,2.9747,2.9425,2.9395,2.9247,2.8916,2.8332,2.8045,2.8121,2.802,2.7746,2.7353,2.6897,2.6594,2.6693,2.6695,2.6384,2.5971,2.6895,2.7467,2.6824,2.6713,2.6738,2.6715,2.5981,2.5443,2.5397,2.5365,2.5324,2.5294,2.5684,2.5822,2.5504,2.5383,2.5488,2.5716,2.5762,2.6618,2.8153,2.7036,2.7125,2.8742,2.7668,2.5712,2.4258,1.8411,1.3301,1.0127,0.0067,-0.859,-1.3499,-1.986,-2.4693,-2.8645,-3.0076,-2.9249,3.0333,3.0372,3.0803,3.0986,3.0986,3.0986,3.0911,3.0836,3.0177,3.0177,3.0607,3.0193,3.0345,3.096,3.1299,3.1434,3.1347,3.1434,3.1043,3.0401,2.9738,2.9405,2.9203,2.8698,2.8608,2.8879,2.8415,2.8075,2.7793,2.7396,2.7058,2.6918,2.6483,2.6202,2.6049,2.5027,2.4478,2.4349,2.3651,2.3241,2.3141,2.2411,2.231,2.275,2.3078,2.3691,2.4768,2.5648,2.6236,2.6469,2.6323,2.6657,2.7589,2.7236,2.7601,2.8865,2.9206,2.9435,2.9644,2.9822,2.9642,2.9036,2.9512,2.9855,2.9799,2.9168,2.8926,2.9339,2.8949,2.8595,2.824,2.7286,2.6632,2.7027,2.6624,2.6295,2.6322,2.7287,2.7857,2.7286,2.7218,2.7237,2.6891,2.6198,2.562,2.5351,2.5215,2.5137,2.5122,2.565,2.5826,2.5516,2.5414,2.5639,2.5969,2.6054,2.6687,2.8351,2.6968,2.7103,2.8106,2.6211,2.2747,1.9713,1.2937,0.6478,0.2279,-0.7314,-1.5386,-1.8958,-2.363,-2.8203,-2.9814,-3.0368,-3.0586,3.0895,3.0921,3.096,3.0986,3.0986,3.0986,3.0823,3.0432,3.0368,3.0114,2.9845,2.9731,3.0203,3.0898,3.1075,3.1136,3.1259,3.1136,3.0821,3.0395,3.0157,2.9639,2.9132,2.943,2.9258,2.8805,2.9014,2.8596,2.7793,2.7697,2.7334,2.6777,2.6663,2.6384,2.5876,2.5293,2.4798,2.4413,2.3859,2.3412,2.3062,2.3597,2.3913,2.3947,2.5075,2.5726,2.5912,2.6459,2.6656,2.6493,2.6524,2.6871,2.7577,2.7741,2.8165,2.9003,2.9119,2.9338,2.9786,2.9888,2.9851,2.9813,2.9676,2.9698,2.9717,2.9533,2.9177,2.8913,2.9176,2.9101,2.8428,2.8091,2.7662,2.712,2.7006,2.6827,2.6526,2.7736,2.8779,2.8954,2.8666,2.8675,2.7804,2.6995,2.6135,2.543,2.5348,2.526,2.5177,2.5661,2.6054,2.5914,2.6312,2.6533,2.6255,2.702,2.7428,2.7372,2.71,2.7179,2.6458,2.1606,1.5442,1.3505,0.2522,-0.6294,-1.0843,-1.8749,-2.4918,-2.4838,-2.7376,-2.9969,-3.1164,-3.1051,-3.0685,3.0986,3.0986,3.0986,3.0986,3.0986,3.0986,3.0748,3.0368,2.9883,2.9639,2.9626,2.9471,2.9793,3.0672,3.1149,3.1299,3.1123,3.1123,3.1005,3.0755,3.0207,2.9943,2.9999,2.9609,2.9461,2.9376,2.8475,2.7879,2.7594,2.7052,2.6176,2.5394,2.6082,2.6258,2.5586,2.5415,2.5277,2.5127,2.4659,2.4346,2.4184,2.3625,2.3629,2.4305,2.4901,2.5664,2.6418,2.7149,2.7402,2.696,2.6773,2.6954,2.7426,2.7245,2.7602,2.8585,2.8952,2.9275,2.9626,2.9663,2.9682,2.9663,2.9456,2.9338,2.9355,2.951,2.9485,2.9255,2.9365,2.9303,2.8908,2.8442,2.7828,2.7214,2.7133,2.6801,2.5749,2.7197,2.8299,2.8373,2.8403,2.8483,2.8268,2.7644,2.6936,2.6384,2.6279,2.6178,2.6068,2.6544,2.6953,2.7176,2.7813,2.7824,2.7101,2.6912,2.7473,2.7791,2.6991,2.625,2.5244,1.8904,1.2097,0.8744,-0.4008,-1.3531,-1.6055,-2.1983,-2.7735,-2.8251,-2.9001,-3.0113,-3.0636,-3.0579,-3.0542,3.0986,3.0986,3.0986,3.0986,3.0986,3.0735,3.0432,2.996,2.9081,2.8834,2.8991,2.8834,2.9238,3.0126,3.0986,3.1299,3.1061,3.1123,3.1123,3.0934,3.0319,3.0271,3.0545,2.982,2.9656,2.9655,2.8243,2.7339,2.7138,2.6316,2.5448,2.4917,2.5812,2.6103,2.5685,2.5672,2.5586,2.5536,2.5149,2.4976,2.4848,2.3968,2.3856,2.4883,2.4901,2.5449,2.6557,2.7163,2.7308,2.6914,2.6823,2.6987,2.7269,2.704,2.7331,2.8226,2.8724,2.906,2.9233,2.9251,2.9251,2.923,2.9185,2.9219,2.9318,2.9682,2.9891,2.9791,2.9576,2.9388,2.9385,2.8307,2.7392,2.7046,2.6977,2.6435,2.5704,2.7029,2.8178,2.8325,2.8581,2.8382,2.8419,2.7881,2.7305,2.7387,2.7285,2.7276,2.7214,2.7583,2.8035,2.8098,2.8465,2.8431,2.7867,2.7823,2.7985,2.75,2.6574,2.4906,2.2839,1.3905,0.5379,-0.1427,-1.11,-1.7347,-2.079,-2.5417,-2.813,-2.836,-2.9083,-3.0079,-3.0628,-3.0632,-3.0931,3.0986,3.0986,3.0986,3.0986,3.0911,3.0101,2.9549,2.9094,2.8291,2.773,2.758,2.7947,2.8505,2.9316,3.0432,3.0986,3.0986,3.0986,3.0986,3.0898,3.0709,3.057,3.0444,3.0203,2.9985,2.9767,2.8675,2.751,2.6347,2.5799,2.5663,2.5874,2.5996,2.6176,2.6295,2.5907,2.5624,2.5611,2.5197,2.4897,2.4899,2.4851,2.5249,2.6059,2.5645,2.5689,2.6312,2.6151,2.6063,2.6075,2.6576,2.6985,2.7255,2.7422,2.773,2.8139,2.8471,2.8603,2.8628,2.8652,2.8585,2.8601,2.8997,2.9413,2.935,2.9966,3.0297,3.0326,2.9694,2.9494,2.9493,2.796,2.683,2.6953,2.6411,2.6204,2.6236,2.746,2.8774,2.9387,2.9399,2.9189,2.8446,2.7619,2.777,2.796,2.7761,2.7635,2.7867,2.8284,2.827,2.7819,2.7513,2.7592,2.8089,2.8201,2.791,2.6692,2.4846,2.2676,1.3756,0.5172,-0.2951,-1.0575,-1.7951,-2.3005,-2.5472,-2.7154,-2.8371,-2.8997,-2.9472,-3.0218,-3.0689,-3.14,-3.1647,3.0986,3.0986,3.0986,3.0672,3.0177,2.9871,2.9147,2.8279,2.7971,2.7568,2.7336,2.773,2.8359,2.916,2.9858,3.0177,3.0254,3.0748,3.0672,3.0126,3.0368,3.0368,3.0228,3.0011,2.9869,2.9586,2.8047,2.6189,2.4599,2.4861,2.5161,2.521,2.6052,2.6469,2.6308,2.6569,2.6515,2.6163,2.595,2.6085,2.6448,2.6193,2.6366,2.7064,2.6335,2.613,2.6755,2.6234,2.6074,2.6424,2.6292,2.6386,2.6825,2.7261,2.7565,2.7805,2.8057,2.8174,2.8031,2.8004,2.7814,2.7624,2.791,2.8352,2.8739,2.9518,2.9989,2.9777,2.9532,2.926,2.8912,2.8004,2.7288,2.7086,2.7408,2.7247,2.6968,2.7669,2.8584,2.887,2.9195,2.9602,2.993,2.9847,2.9549,2.9532,2.9661,2.9463,2.8863,2.8471,2.7551,2.6716,2.2567,1.8371,1.8802,2.456,2.6978,2.4475,2.1923,1.7034,0.9652,-0.1582,-1.0421,-1.4564,-2.2136,-2.6264,-2.7755,-2.8531,-2.9519,-2.9717,-3.0206,-3.0321,-3.0747,-3.1359,-3.1588,3.0986,3.0986,3.0986,3.0508,2.9704,2.9369,2.8676,2.7649,2.7325,2.7174,2.7267,2.7487,2.8199,2.9238,2.9549,2.9704,2.9793,3.0583,3.0596,2.996,3.0279,3.0292,3.0152,2.9946,2.9779,2.9484,2.764,2.5499,2.3846,2.4314,2.4843,2.5036,2.6097,2.6605,2.659,2.7055,2.7005,2.6634,2.6521,2.678,2.7142,2.7028,2.7042,2.7216,2.6775,2.6619,2.6951,2.6224,2.5968,2.6253,2.5957,2.588,2.6258,2.6791,2.7132,2.7238,2.7374,2.7417,2.7222,2.7143,2.694,2.6669,2.7045,2.7496,2.8271,2.9225,2.9677,2.9709,2.9219,2.8815,2.8236,2.7499,2.6939,2.6801,2.7277,2.7287,2.6463,2.7341,2.8089,2.853,2.9169,2.9894,3.0462,3.0352,3.029,3.0411,3.0776,3.0439,2.9477,2.594,2.3566,2.2477,1.411,0.9397,0.8393,1.1966,1.4118,1.2296,1.2257,0.8629,0.3146,-0.8104,-1.5531,-1.9487,-2.3247,-2.7104,-2.931,-3.0059,-3.0354,-3.0466,-3.0423,-3.0443,-3.0857,-3.1263,-3.1484,3.0999,3.0986,3.0973,3.0419,2.9549,2.8834,2.7959,2.7092,2.6385,2.6622,2.7185,2.7255,2.8119,2.9381,2.9704,2.9704,2.9935,3.0672,3.0823,3.0672,3.052,3.0368,3.0305,2.9934,2.9624,2.9456,2.7706,2.588,2.4265,2.4265,2.4724,2.5742,2.6155,2.6653,2.7272,2.7239,2.7067,2.664,2.6502,2.6496,2.6582,2.7129,2.7174,2.6802,2.6959,2.7009,2.6785,2.6046,2.5678,2.5755,2.5549,2.5485,2.5546,2.6035,2.6402,2.6386,2.6402,2.6317,2.6142,2.6142,2.6054,2.5832,2.6384,2.7098,2.8002,2.8893,2.9559,2.9715,2.9048,2.8222,2.7378,2.605,2.5379,2.604,2.589,2.5552,2.5732,2.6622,2.7755,2.8597,2.9387,2.9569,2.9276,2.9768,3.0319,3.0814,3.0785,3.0188,2.841,2.2419,1.6149,1.2629,0.5507,-0.1435,-0.2096,-0.2131,-0.2072,-0.2089,-0.123,-0.2537,-0.7217,-1.5913,-2.0155,-2.4004,-2.5765,-2.933,-2.9906,-3.0541,-3.0541,-3.0603,-3.0574,-3.0533,-3.0789,-3.1138,-3.1518,3.1352,3.0924,3.0343,2.9626,2.8821,2.8505,2.7637,2.6467,2.6622,2.694,2.7185,2.7174,2.8131,2.9394,2.9704,3.0024,3.0583,3.0898,3.0508,2.9883,3.0203,3.0216,3.0011,2.9869,2.9131,2.7971,2.7221,2.5913,2.4444,2.4024,2.4405,2.5362,2.6073,2.6645,2.7152,2.7286,2.7137,2.6701,2.6305,2.6302,2.6705,2.6922,2.6963,2.6872,2.6613,2.6384,2.6204,2.5327,2.534,2.6153,2.4986,2.4441,2.4839,2.5211,2.5438,2.5566,2.5766,2.573,2.5503,2.5389,2.5082,2.4677,2.4925,2.5497,2.624,2.6952,2.748,2.781,2.7153,2.6471,2.5664,2.4663,2.4335,2.5226,2.5311,2.5411,2.5905,2.6929,2.8049,2.9017,2.9678,3.0386,3.1362,3.184,3.1889,3.1661,3.16,3.0897,2.744,1.9113,1.3715,1.1143,-0.0548,-1.1959,-1.2279,-1.3858,-1.5685,-1.4038,-1.2589,-1.1489,-1.6291,-2.014,-2.4458,-2.6912,-2.8764,-2.9901,-3.0492,-3.0752,-3.0726,-3.07,-3.0643,-3.0664,-3.069,-3.0974,-3.1351,3.1313,3.0911,3.0101,2.9381,2.8821,2.8505,2.7718,2.6857,2.7267,2.7742,2.7983,2.8051,2.8767,2.9871,3.0037,3.0266,3.0748,3.0761,3.0126,2.925,2.9973,3.0216,2.9934,2.9689,2.8949,2.7557,2.6812,2.5819,2.4433,2.4013,2.4317,2.5378,2.5837,2.6575,2.7304,2.738,2.7112,2.6711,2.659,2.6502,2.6595,2.6933,2.6947,2.6619,2.6235,2.5913,2.5679,2.438,2.4267,2.5121,2.413,2.361,2.3991,2.4277,2.4465,2.4617,2.4721,2.4705,2.4415,2.4307,2.4074,2.3568,2.3792,2.4387,2.5065,2.5582,2.5886,2.6283,2.5817,2.5106,2.4298,2.3128,2.279,2.3052,2.4055,2.5147,2.6189,2.7144,2.8242,2.9329,3.0214,3.1131,3.21,3.2568,3.2783,3.2167,3.1417,2.8093,2.2931,1.3665,0.8364,0.0666,-1.2254,-1.969,-2.2032,-2.5038,-2.8724,-2.6352,-2.3257,-2.1656,-2.2765,-2.4891,-2.8121,-2.819,-2.947,-2.9979,-3.0535,-3.0679,-3.0732,-3.0723,-3.07,-3.067,-3.0683,-3.0847,-3.1158,3.0836,3.0735,2.9947,2.9471,2.9303,2.845,2.7971,2.7971,2.8131,2.8542,2.9172,2.9172,2.9729,3.0457,3.0368,3.0368,3.0444,3.0457,2.9896,2.9341,2.9729,3.0062,2.9921,2.9586,2.8937,2.7879,2.6871,2.5808,2.5009,2.4251,2.4402,2.5619,2.5521,2.6065,2.7187,2.7195,2.6765,2.6699,2.7024,2.6714,2.6103,2.7079,2.7129,2.6072,2.5947,2.5788,2.5302,2.3784,2.2976,2.3621,2.3013,2.2809,2.3053,2.3334,2.3435,2.3537,2.3551,2.3435,2.3128,2.3245,2.3039,2.2799,2.3127,2.3702,2.4386,2.4638,2.5014,2.5619,2.4957,2.413,2.3255,2.1964,2.0914,2.0408,2.2179,2.4212,2.6265,2.6829,2.7823,2.9478,3.0701,3.1509,3.1845,3.1933,3.1945,3.1363,2.9976,2.5153,1.5923,0.6951,-0.4607,-1.3584,-2.1191,-2.4972,-2.6511,-2.7009,-3.0213,-2.9588,-2.7719,-2.7113,-2.6574,-2.8268,-2.95,-2.9632,-2.9686,-3.0136,-3.0456,-3.0651,-3.0728,-3.0706,-3.067,-3.0626,-3.0688,-3.0831,-3.1116,2.9225,2.8652,2.8426,2.8279,2.8279,2.7959,2.7891,2.7959,2.8609,2.9003,2.9172,2.916,2.9729,3.0444,3.0444,3.0368,3.0368,3.0368,2.9806,2.8949,2.9028,2.9341,2.9496,2.9419,2.8858,2.7959,2.7302,2.6659,2.5852,2.5337,2.5158,2.4904,2.5462,2.5481,2.5539,2.5632,2.5916,2.6325,2.6171,2.6196,2.6238,2.7132,2.7018,2.5652,2.5848,2.5923,2.5715,2.4157,2.2618,2.1816,2.2047,2.2027,2.2038,2.2109,2.2328,2.2694,2.2785,2.283,2.286,2.2875,2.2663,2.2296,2.2558,2.2706,2.2605,2.3016,2.3504,2.3955,2.344,2.3021,2.2865,2.1574,2.0202,1.9315,2.0642,2.244,2.361,2.5042,2.6618,2.8323,2.952,3.0132,3.0924,3.1234,3.1091,2.9823,2.7321,2.3017,1.0522,0.2386,-0.8106,-1.5868,-2.2921,-2.7338,-3.0008,-2.9923,-3.0325,-3.0468,-2.9737,-2.9343,-2.906,-2.964,-3.0256,-3.047,-3.0195,-3.0461,-3.0606,-3.0735,-3.0734,-3.0691,-3.0651,-3.0599,-3.0602,-3.0722,-3.1178,2.8255,2.7752,2.7383,2.7706,2.8199,2.7879,2.8039,2.8779,2.925,2.9509,2.9496,2.9509,2.9831,3.0228,3.0152,3.0152,3.0075,2.9741,2.9003,2.8211,2.7971,2.8291,2.8779,2.9015,2.8779,2.8211,2.7637,2.7092,2.6599,2.608,2.5735,2.5611,2.537,2.537,2.5808,2.4965,2.5109,2.5744,2.6016,2.6107,2.5713,2.6791,2.6789,2.5886,2.582,2.5661,2.4773,2.4009,2.2821,2.1485,2.1182,2.1165,2.1171,2.1166,2.1348,2.169,2.169,2.1785,2.1941,2.2035,2.2002,2.2016,2.2249,2.2437,2.2446,2.2597,2.3027,2.2939,2.2436,2.1918,2.1091,1.9663,1.8202,1.7366,1.8189,1.9503,2.0803,2.1186,2.2319,2.3317,2.3123,2.257,2.3604,2.2824,2.12,1.8935,1.5715,0.9338,0.1012,-0.4641,-1.1035,-1.9671,-2.4722,-2.8538,-3.0428,-3.0408,-3.0311,-3.0448,-3.0442,-3.0311,-3.0328,-3.041,-3.0527,-3.0605,-3.0598,-3.0612,-3.0637,-3.0676,-3.0676,-3.0618,-3.0595,-3.0752,-3.0868,-3.1119,-3.1516,2.751,2.7348,2.6719,2.7383,2.8518,2.7867,2.8371,2.9831,2.9998,2.9998,2.9921,2.9998,2.9921,2.9998,2.9767,2.9702,2.9534,2.8858,2.7867,2.7139,2.6894,2.7232,2.7891,2.8633,2.8724,2.8554,2.7753,2.7429,2.7255,2.6577,2.6494,2.6539,2.5477,2.5466,2.5779,2.5062,2.4609,2.5142,2.5947,2.6048,2.5687,2.6529,2.6912,2.635,2.6143,2.5201,2.4167,2.355,2.2921,2.1196,2.0601,2.0462,2.0565,2.055,2.0459,2.0497,2.0534,2.0597,2.0736,2.0825,2.109,2.1621,2.2192,2.2583,2.2734,2.2873,2.2793,2.2537,2.2018,2.1101,1.9344,1.7031,1.5629,1.4862,1.4371,1.5174,1.637,1.6238,1.6127,1.7069,1.3207,1.0902,0.917,0.6821,0.4568,1.1377,0.7637,0.2416,-0.4222,-0.9942,-1.7209,-2.5711,-2.8663,-2.969,-3.0403,-3.0515,-3.0416,-3.0382,-3.0363,-3.0273,-3.0261,-3.0341,-3.0459,-3.0509,-3.0392,-3.0409,-3.0482,-3.053,-3.052,-3.0685,-3.0733,-3.1128,-3.1534,-3.1865,-3.2232,2.583,2.5263,2.5746,2.6565,2.7383,2.7313,2.8211,2.9779,2.9869,2.9689,2.9586,2.9586,2.9431,2.9365,2.9209,2.8882,2.8383,2.7879,2.7139,2.5714,2.6163,2.634,2.6917,2.7983,2.8645,2.8486,2.8339,2.8179,2.8099,2.7846,2.7592,2.7033,2.6229,2.5391,2.5009,2.4382,2.3856,2.4513,2.4987,2.5584,2.6207,2.7064,2.7483,2.6939,2.713,2.644,2.5001,2.4042,2.2899,2.1669,2.0875,2.0543,2.0084,1.9735,1.9614,1.9681,1.9643,1.9734,1.9977,2.0188,2.0598,2.138,2.1889,2.2391,2.2525,2.2472,2.2482,2.2342,2.2108,2.0855,1.9016,1.7589,1.485,1.2144,0.9547,0.7119,0.5754,0.8403,1.0246,0.9624,0.7864,0.6919,0.6687,0.4918,0.3408,0.3792,0.03,-0.3569,-0.9265,-1.5602,-2.1541,-2.894,-2.9513,-2.9878,-3.0189,-3.0293,-3.0314,-3.0266,-3.0234,-3.0292,-3.0274,-3.0144,-3.0227,-3.0182,-3.0111,-3.0151,-3.0209,-3.0228,-3.0184,-3.0528,-3.0987,-3.156,-3.2074,-3.2493,-3.3083,2.4935,2.454,2.5031,2.5663,2.64,2.6494,2.7476,2.8803,2.8961,2.9118,2.9118,2.8858,2.8779,2.9052,2.8712,2.8223,2.7626,2.6871,2.5975,2.5231,2.5411,2.5673,2.6257,2.7325,2.8155,2.8431,2.851,2.851,2.851,2.851,2.8179,2.7765,2.6835,2.6008,2.5073,2.4145,2.381,2.4049,2.4734,2.5352,2.5914,2.7454,2.8237,2.7927,2.8223,2.7775,2.5884,2.5485,2.402,2.2476,2.1631,2.0756,1.9598,1.9195,1.9112,1.9107,1.8672,1.9125,1.96,1.9519,1.9725,2.117,2.1424,2.1746,2.1962,2.197,2.1663,2.1356,2.0641,1.9681,1.8258,1.5317,1.2389,0.9132,0.5159,0.1005,-0.2263,-0.0415,0.1543,-0.0302,-0.3526,-0.4932,-0.5012,-0.3841,-0.6716,-1.0533,-1.2155,-1.5731,-1.7199,-2.2642,-2.3902,-2.8161,-2.8876,-2.9419,-2.9845,-3.0045,-3.0155,-3.014,-3.0117,-3.0229,-3.0341,-3.0125,-2.9917,-2.9846,-2.9783,-2.981,-2.9845,-2.9861,-3.0129,-3.0748,-3.1348,-3.2016,-3.2698,-3.3304,-3.394,2.4454,2.4368,2.4358,2.4925,2.5652,2.5735,2.6648,2.7971,2.7891,2.8303,2.8791,2.8131,2.8223,2.8566,2.8303,2.7891,2.7058,2.588,2.4893,2.4402,2.4744,2.5084,2.5663,2.6494,2.7418,2.8259,2.8431,2.851,2.851,2.851,2.8351,2.8099,2.7348,2.6257,2.5495,2.4659,2.382,2.3474,2.4392,2.5176,2.5573,2.7297,2.8313,2.9056,2.9094,2.8359,2.6751,2.6041,2.519,2.2791,2.2294,2.0903,1.9443,1.882,1.8828,1.8748,1.808,1.8224,1.8753,1.8681,1.8904,2.0718,2.0622,2.0839,2.1401,2.1224,2.0757,1.9982,1.9162,1.7667,1.6314,1.2661,0.8865,0.5056,0.0428,-0.4756,-0.8933,-0.9719,-1.0037,-1.0283,-1.2359,-1.4161,-1.627,-1.6813,-2.0948,-2.3992,-2.5047,-2.6032,-2.6783,-2.7502,-2.7752,-2.8272,-2.9177,-2.9248,-2.9551,-3.0152,-3.0208,-3.0394,-3.0282,-3.0465,-3.0525,-3.0124,-2.987,-2.9533,-2.9458,-2.9514,-2.9551,-2.9623,-3.0082,-3.0925,-3.1757,-3.2449,-3.3263,-3.4134,-3.4639,2.411,2.3927,2.3927,2.4413,2.5136,2.521,2.613,2.7557,2.6976,2.7557,2.8554,2.7891,2.7395,2.758,2.8247,2.7487,2.6069,2.4893,2.4059,2.3647,2.3983,2.4573,2.4904,2.5568,2.6494,2.7429,2.7926,2.8259,2.8431,2.851,2.7926,2.7348,2.6588,2.5663,2.4829,2.3897,2.3474,2.3222,2.3724,2.4395,2.5727,2.731,2.8737,2.9678,2.9646,2.8518,2.7007,2.561,2.4261,2.2774,2.1402,2.0221,1.9264,1.8993,1.8643,1.8151,1.7722,1.748,1.7388,1.7559,1.7904,1.8701,1.885,1.9679,2.0172,1.9876,1.8854,1.8466,1.7262,1.5696,1.2975,0.9148,0.4403,-0.0644,-0.5989,-1.1263,-1.5744,-1.8247,-1.8846,-1.7995,-2.0122,-2.1565,-2.2093,-2.2494,-2.3161,-2.405,-2.474,-2.5767,-2.6683,-2.762,-2.8416,-2.905,-2.9853,-2.9576,-2.9299,-3.0002,-3.0438,-3.0849,-3.0941,-3.1078,-3.0956,-3.0289,-2.9875,-2.982,-2.9462,-2.9259,-2.931,-2.9547,-3.0284,-3.1277,-3.2102,-3.2872,-3.3651,-3.4353,-3.4552,2.3927,2.3841,2.3841,2.3993,2.4402,2.4392,2.5062,2.6069,2.5819,2.6235,2.673,2.64,2.6152,2.6329,2.6152,2.5735,2.5231,2.3887,2.3377,2.329,2.3377,2.3724,2.4079,2.4659,2.5411,2.6163,2.6753,2.7336,2.7672,2.7255,2.6917,2.6494,2.5997,2.5326,2.4669,2.4155,2.356,2.3309,2.356,2.4402,2.5975,2.7808,2.9452,2.9587,2.9504,2.8428,2.6483,2.5277,2.3548,2.1843,2.0779,1.9865,1.906,1.8379,1.8035,1.7587,1.6933,1.6491,1.598,1.5923,1.5525,1.6309,1.6115,1.6091,1.6442,1.6005,1.5316,1.4237,1.3885,1.1952,0.8808,0.5094,0.0435,-0.4992,-1.056,-1.6011,-2.0569,-2.3516,-2.3912,-2.3408,-2.3824,-2.4072,-2.3765,-2.3977,-2.3874,-2.4183,-2.4678,-2.567,-2.677,-2.7875,-2.9045,-2.9911,-3.0631,-3.0521,-3.0253,-3.0661,-3.1228,-3.1571,-3.1609,-3.1774,-3.1647,-3.1119,-3.0717,-3.0485,-3.0009,-2.9428,-2.9871,-3.0372,-3.1036,-3.1633,-3.2468,-3.3239,-3.3959,-3.4491,-3.4603,2.3667,2.3667,2.3667,2.3667,2.3667,2.3667,2.4079,2.4573,2.4573,2.4999,2.5652,2.4999,2.4914,2.5073,2.4723,2.4286,2.4617,2.3193,2.3164,2.3174,2.2823,2.2882,2.3408,2.3657,2.4135,2.4988,2.4988,2.5663,2.6588,2.634,2.583,2.5579,2.5484,2.5073,2.4327,2.3983,2.3647,2.382,2.382,2.4734,2.6367,2.8512,2.9704,2.9067,2.9067,2.7741,2.5075,2.4352,2.2678,2.0969,1.993,1.9425,1.8272,1.7267,1.6701,1.6446,1.553,1.529,1.4482,1.3505,1.2671,1.2977,1.1853,1.1886,1.2091,1.1794,1.0619,0.8976,0.8374,0.7525,0.445,0.0222,-0.4321,-0.9245,-1.4503,-1.9394,-2.3489,-2.6285,-2.7157,-2.6916,-2.6879,-2.6257,-2.564,-2.5633,-2.5608,-2.5484,-2.5937,-2.6964,-2.8048,-2.8784,-2.9831,-3.0767,-3.1373,-3.1501,-3.1502,-3.1755,-3.2309,-3.278,-3.2655,-3.2592,-3.2447,-3.2156,-3.1836,-3.1514,-3.0501,-3.007,-3.0638,-3.114,-3.157,-3.2142,-3.2901,-3.3487,-3.3955,-3.4282,-3.4442,2.3406,2.3232,2.3135,2.3232,2.3232,2.3222,2.3724,2.4317,2.3637,2.4307,2.521,2.4734,2.4125,2.3943,2.378,2.3607,2.3521,2.328,2.2909,2.2735,2.2485,2.2593,2.29,2.2663,2.296,2.3521,2.328,2.4307,2.5231,2.5484,2.5326,2.4819,2.4573,2.4241,2.356,2.3474,2.3647,2.4069,2.3647,2.4372,2.6333,2.8323,2.8494,2.7742,2.7103,2.5896,2.3243,2.2413,2.1246,1.9268,1.8841,1.8171,1.6929,1.5388,1.4316,1.4016,1.3765,1.3536,1.1886,1.0475,0.9401,0.8985,0.8092,0.83,0.7979,0.7787,0.7079,0.7061,0.5479,0.314,-0.03,-0.5246,-1.0215,-1.4541,-1.8957,-2.3161,-2.7006,-2.7664,-2.8614,-2.8762,-2.8204,-2.7613,-2.7,-2.7185,-2.7345,-2.7205,-2.7348,-2.8369,-2.9315,-3.0106,-3.0483,-3.1339,-3.2087,-3.227,-3.2386,-3.2679,-3.3183,-3.3803,-3.3581,-3.3325,-3.3151,-3.3016,-3.3131,-3.2619,-3.1634,-3.1313,-3.2056,-3.2403,-3.2302,-3.2576,-3.3199,-3.3512,-3.3783,-3.4042,-3.4312,2.3232,2.3144,2.3144,2.3144,2.3144,2.3144,2.3028,2.2833,2.2385,2.2189,2.2337,2.1896,2.1542,2.1453,2.1185,2.1284,2.1569,2.1845,2.2036,2.215,2.203,2.21,2.2067,2.1626,2.1596,2.1676,2.14,2.1569,2.295,2.3943,2.3973,2.381,2.3734,2.356,2.295,2.3047,2.3309,2.3647,2.381,2.4307,2.5452,2.6594,2.7053,2.5708,2.521,2.3285,2.1125,1.958,1.8222,1.6315,1.5701,1.5011,1.3751,1.2496,1.1508,1.064,0.951,0.9085,0.8871,0.7163,0.5944,0.483,0.3853,0.2734,0.2598,0.2128,0.1639,0.0913,-0.0759,-0.2657,-0.4969,-0.9487,-1.3494,-1.782,-2.212,-2.5324,-2.8157,-2.8861,-2.9486,-2.953,-2.9448,-2.8715,-2.8217,-2.8463,-2.8505,-2.8297,-2.8655,-2.9704,-3.0697,-3.1579,-3.1791,-3.1851,-3.2557,-3.3103,-3.3148,-3.3309,-3.3859,-3.4303,-3.4123,-3.3898,-3.3839,-3.3822,-3.392,-3.4272,-3.3978,-3.3797,-3.3844,-3.329,-3.284,-3.308,-3.343,-3.3778,-3.4082,-3.3966,-3.4168,2.2599,2.2413,2.2687,2.2599,2.2413,2.2413,2.1765,2.0836,2.0639,2.0099,1.9579,1.9488,1.9306,1.894,1.9123,1.9596,1.9977,1.9886,2.0607,2.1185,2.1428,2.1446,2.1329,2.0741,2.0339,2.0141,1.977,2.0034,2.0755,2.1658,2.2296,2.2589,2.2589,2.2315,2.2315,2.2413,2.2589,2.2217,2.3231,2.3567,2.372,2.4598,2.4365,2.3481,2.2292,2.0742,1.8364,1.6517,1.4703,1.3402,1.2582,1.1924,1.0712,0.9815,0.8834,0.7667,0.6071,0.4668,0.4332,0.3235,0.1926,0.0624,-0.0557,-0.2023,-0.2552,-0.371,-0.4569,-0.455,-0.6318,-0.7988,-1.0319,-1.3886,-1.7307,-2.0577,-2.3728,-2.6739,-2.9187,-2.9765,-3.0199,-3.0261,-3.0035,-2.9457,-2.9188,-2.9548,-2.9577,-2.9395,-3.0023,-3.0959,-3.1767,-3.2509,-3.2673,-3.257,-3.3178,-3.3792,-3.4033,-3.4193,-3.469,-3.4746,-3.4559,-3.4479,-3.4372,-3.4487,-3.4659,-3.5095,-3.5538,-3.5387,-3.4885,-3.411,-3.3458,-3.4091,-3.4559,-3.4379,-3.4413,-3.4264,-3.4217,2.1239,2.0503,2.1329,2.1239,2.0413,2.0421,1.9736,1.8585,1.8493,1.821,1.7849,1.854,1.8264,1.7972,1.811,1.8603,1.888,1.888,1.9578,2.0322,2.0663,2.0637,2.0472,2.0203,1.9695,1.8956,1.8395,1.8572,1.9123,1.8999,2.0198,2.1203,2.1025,2.0584,2.0486,2.0738,2.0738,2.072,2.1557,2.1803,2.1548,2.1826,2.1689,2.0268,1.9008,1.7621,1.5992,1.3873,1.2169,1.0889,0.9966,0.9047,0.7979,0.7019,0.6128,0.4688,0.2834,0.1199,-0.0079,-0.0935,-0.2267,-0.3848,-0.5341,-0.6312,-0.6867,-0.643,-0.7263,-0.9412,-1.1307,-1.2903,-1.5497,-1.871,-2.1434,-2.3255,-2.5577,-2.803,-2.9941,-3.0419,-3.0816,-3.0898,-3.0421,-2.9627,-2.9257,-2.9406,-2.9811,-2.965,-3.032,-3.1282,-3.1897,-3.261,-3.3037,-3.328,-3.3918,-3.447,-3.4909,-3.5114,-3.5029,-3.5048,-3.4957,-3.492,-3.4902,-3.5057,-3.5198,-3.5591,-3.5941,-3.5973,-3.5982,-3.536,-3.507,-3.5512,-3.5615,-3.5064,-3.486,-3.4782,-3.4839,2.015,1.9322,1.874,1.8716,1.8983,1.8875,1.7834,1.6341,1.606,1.551,1.4772,1.5664,1.5961,1.5866,1.6445,1.7124,1.749,1.7475,1.8132,1.9092,1.962,1.9712,1.9645,1.9152,1.858,1.7181,1.6626,1.6706,1.7152,1.6397,1.6764,1.768,1.8585,1.8967,1.8867,1.8286,1.8095,1.8279,1.8803,1.9076,1.8422,1.8795,1.8635,1.7034,1.5208,1.3856,1.2212,1.0328,0.892,0.7876,0.6924,0.5944,0.5145,0.412,0.3065,0.1864,-0.0083,-0.1799,-0.3857,-0.5078,-0.6928,-0.9261,-1.0397,-1.068,-1.0993,-1.1893,-1.3068,-1.485,-1.6388,-1.7884,-1.94,-2.2108,-2.4523,-2.5758,-2.7447,-2.9689,-3.0621,-3.0975,-3.0691,-3.0535,-3.0052,-2.938,-2.915,-2.9028,-2.9488,-2.9887,-3.0751,-3.1542,-3.2284,-3.2869,-3.3377,-3.3732,-3.4285,-3.4673,-3.5081,-3.5171,-3.519,-3.5297,-3.535,-3.5332,-3.5296,-3.5417,-3.5596,-3.6024,-3.6496,-3.6759,-3.6801,-3.6594,-3.6419,-3.6261,-3.5842,-3.5303,-3.5243,-3.5296,-3.5232,1.8872,1.7755,1.6518,1.6591,1.7301,1.6822,1.5604,1.41,1.3814,1.2978,1.1955,1.3125,1.3613,1.3703,1.428,1.4943,1.5501,1.5785,1.6438,1.7382,1.8326,1.8596,1.8226,1.7654,1.7001,1.5399,1.4453,1.4447,1.4893,1.3386,1.3747,1.4558,1.4892,1.4967,1.5457,1.5055,1.4678,1.5162,1.5055,1.545,1.471,1.4779,1.4822,1.3286,1.1817,1.0734,0.9287,0.7535,0.5719,0.4681,0.366,0.2581,0.1772,0.0969,0.0,-0.1299,-0.2648,-0.4087,-0.6234,-0.8502,-1.0841,-1.302,-1.3581,-1.4061,-1.51,-1.6453,-1.6857,-1.8962,-2.086,-2.2304,-2.2744,-2.5063,-2.6304,-2.73,-2.908,-3.1036,-3.0991,-3.1151,-3.05,-2.9984,-2.9528,-2.9152,-2.9326,-2.9312,-3.0177,-3.0767,-3.1541,-3.2327,-3.3043,-3.36,-3.3977,-3.4255,-3.4488,-3.4799,-3.5066,-3.5349,-3.5614,-3.5752,-3.5766,-3.5668,-3.5682,-3.5819,-3.6113,-3.6557,-3.7041,-3.7542,-3.7521,-3.7268,-3.691,-3.654,-3.6164,-3.5883,-3.5609,-3.5587,-3.5324,1.7468,1.5501,1.5032,1.5026,1.5095,1.4052,1.2802,1.1741,1.1551,1.0974,1.0207,1.1755,1.2242,1.1853,1.2727,1.321,1.3397,1.3986,1.4746,1.567,1.6814,1.7217,1.6922,1.625,1.5481,1.4274,1.3113,1.2522,1.2608,1.1833,1.1721,1.0604,0.9972,0.9587,1.1002,1.0502,1.0789,1.1569,1.0775,1.1177,1.1187,1.0877,1.0453,0.9534,0.8394,0.7442,0.6189,0.4382,0.2763,0.1822,0.0538,-0.0446,-0.1245,-0.1511,-0.2305,-0.3276,-0.4942,-0.6671,-0.8505,-1.1134,-1.3684,-1.5571,-1.6051,-1.6517,-1.7527,-1.8466,-1.9742,-2.2004,-2.3407,-2.4406,-2.5702,-2.7291,-2.8032,-2.8739,-3.0441,-3.1373,-3.1307,-3.1292,-3.0749,-3.0149,-2.9438,-2.8967,-2.9297,-2.9753,-3.0895,-3.1665,-3.2417,-3.3141,-3.3775,-3.4049,-3.4306,-3.4765,-3.4942,-3.5204,-3.5495,-3.5766,-3.6007,-3.6157,-3.6249,-3.6115,-3.6177,-3.6352,-3.6671,-3.7102,-3.7305,-3.7559,-3.7757,-3.7877,-3.7395,-3.6968,-3.6877,-3.6622,-3.6253,-3.5839,-3.5509,1.4823,1.3962,1.2216,1.1521,1.1706,1.1239,1.0275,0.93,0.9201,0.8909,0.911,1.0774,1.1463,1.1365,1.156,1.1853,1.195,1.2145,1.2904,1.3188,1.4905,1.4816,1.4626,1.4709,1.3939,1.1828,1.0667,1.0164,0.9563,0.9166,0.8663,0.7566,0.5062,0.448,0.5978,0.6484,0.7183,0.7575,0.797,0.8568,0.8185,0.8072,0.7464,0.6174,0.4851,0.373,0.271,0.0852,-0.0186,-0.1101,-0.2344,-0.285,-0.3295,-0.3474,-0.445,-0.5598,-0.7184,-0.9285,-1.2465,-1.5605,-1.708,-1.8005,-1.8487,-1.9347,-2.1244,-2.1261,-2.2793,-2.4468,-2.5507,-2.639,-2.7368,-2.8916,-2.9668,-2.9363,-3.0388,-3.1161,-3.1383,-3.1518,-3.123,-3.0618,-2.9974,-3.0141,-3.0429,-3.1005,-3.2029,-3.3024,-3.3796,-3.3846,-3.4306,-3.4281,-3.4391,-3.5107,-3.5478,-3.5706,-3.5958,-3.619,-3.6269,-3.6348,-3.6516,-3.6609,-3.6719,-3.6811,-3.6952,-3.7208,-3.7319,-3.7484,-3.7685,-3.7863,-3.7703,-3.7432,-3.7111,-3.6781,-3.6298,-3.5873,-3.5526,1.27,1.2114,1.0458,0.928,0.878,0.8594,0.8011,0.7521,0.7422,0.7422,0.772,0.8901,0.9193,0.9193,0.9485,0.9776,0.9579,0.9964,1.0663,1.0854,1.2271,1.2475,1.2582,1.2475,1.121,0.9375,0.8495,0.8001,0.7096,0.5897,0.4581,0.268,0.0498,0.0,0.0999,0.19,0.3199,0.3896,0.4796,0.5404,0.5307,0.5001,0.3992,0.2697,0.1296,-0.0099,-0.127,-0.2206,-0.3101,-0.3966,-0.4615,-0.5245,-0.5596,-0.6304,-0.7186,-0.8237,-0.9856,-1.1872,-1.5056,-1.7891,-1.913,-2.034,-2.0841,-2.2072,-2.3758,-2.3805,-2.5062,-2.6453,-2.7417,-2.7644,-2.806,-2.9739,-3.0219,-2.9884,-3.0516,-3.1331,-3.1618,-3.1691,-3.1391,-3.083,-3.0489,-3.0856,-3.1706,-3.2504,-3.3338,-3.4297,-3.5241,-3.5159,-3.5214,-3.5335,-3.5382,-3.5896,-3.6365,-3.6641,-3.6688,-3.6569,-3.6627,-3.6579,-3.676,-3.6991,-3.6965,-3.6987,-3.7143,-3.7297,-3.7447,-3.7613,-3.7721,-3.7739,-3.7577,-3.7301,-3.6939,-3.6603,-3.6274,-3.5864,-3.5424,1.0988,0.9938,0.9849,0.8371,0.6509,0.6111,0.6119,0.6221,0.6323,0.6323,0.6423,0.6224,0.6318,0.6124,0.5819,0.5712,0.5805,0.6583,0.747,0.8361,0.9018,0.9522,0.9531,0.8943,0.8055,0.7384,0.6501,0.5101,0.4708,0.2893,0.0497,-0.1789,-0.3393,-0.3802,-0.3404,-0.2503,-0.07,0.0901,0.1806,0.2408,0.2607,0.1303,0.04,-0.0801,-0.1898,-0.309,-0.3932,-0.4434,-0.5397,-0.64,-0.7341,-0.8648,-0.9639,-1.0438,-1.0611,-1.1278,-1.2874,-1.4712,-1.6498,-1.9229,-2.0943,-2.2356,-2.3368,-2.4199,-2.49,-2.5684,-2.6411,-2.7309,-2.8038,-2.7939,-2.8165,-2.9132,-3.007,-3.0481,-3.1102,-3.1601,-3.1809,-3.168,-3.1289,-3.0843,-3.0455,-3.0945,-3.2473,-3.355,-3.4542,-3.6059,-3.6989,-3.7441,-3.7494,-3.7508,-3.7508,-3.7315,-3.7661,-3.7686,-3.758,-3.7332,-3.7068,-3.7082,-3.7184,-3.7382,-3.7281,-3.72,-3.7334,-3.7466,-3.7613,-3.7757,-3.7845,-3.7721,-3.7487,-3.7132,-3.6741,-3.6416,-3.6079,-3.5588,-3.5274,0.7777,0.7222,0.6546,0.5508,0.4243,0.2998,0.3019,0.413,0.483,0.5233,0.5231,0.5014,0.451,0.4512,0.35,0.3001,0.2998,0.3194,0.3587,0.4377,0.5464,0.5661,0.5664,0.5468,0.4682,0.3693,0.27,0.18,0.01,-0.1297,-0.2691,-0.4895,-0.6197,-0.6913,-0.6816,-0.6321,-0.3906,-0.1904,-0.1104,-0.0401,-0.0301,-0.1402,-0.2603,-0.3799,-0.4598,-0.5889,-0.7315,-0.704,-0.7868,-0.8982,-0.8442,-0.8811,-0.9396,-1.0245,-1.0995,-1.3794,-1.5703,-1.776,-1.9275,-2.0947,-2.2717,-2.4327,-2.5711,-2.6816,-2.7162,-2.7039,-2.7253,-2.8124,-2.8434,-2.8239,-2.8526,-2.9305,-2.9855,-3.0303,-3.0914,-3.1342,-3.1519,-3.1315,-3.0959,-3.1054,-3.0683,-3.1951,-3.3457,-3.4471,-3.5578,-3.7452,-3.87,-3.9225,-3.9397,-3.9306,-3.9126,-3.8872,-3.855,-3.8465,-3.8391,-3.816,-3.7854,-3.761,-3.7737,-3.7754,-3.7638,-3.7571,-3.7539,-3.7577,-3.7667,-3.781,-3.7949,-3.7685,-3.717,-3.6939,-3.658,-3.6207,-3.5837,-3.547,-3.5304,0.5693,0.5524,0.4951,0.4029,0.2775,0.1403,0.1311,0.2017,0.2821,0.3222,0.3321,0.271,0.2306,0.1804,0.1002,0.0501,0.0401,0.0601,0.1001,0.1896,0.2092,0.2092,0.2092,0.1791,0.0996,0.0,-0.07,-0.1299,-0.3202,-0.4804,-0.6205,-0.7406,-0.8605,-0.9099,-0.9099,-0.8598,-0.7592,-0.549,-0.3997,-0.3102,-0.33,-0.3995,-0.5293,-0.6677,-0.7384,-0.9076,-1.052,-0.9944,-1.0468,-1.1273,-1.037,-1.0537,-1.1338,-1.2366,-1.3651,-1.6261,-1.8108,-1.9561,-2.0862,-2.2717,-2.4372,-2.5866,-2.7431,-2.8368,-2.8556,-2.8347,-2.8651,-2.91,-2.8757,-2.8626,-2.9132,-2.961,-2.9682,-2.9842,-3.0382,-3.0984,-3.097,-3.0837,-3.0984,-3.1261,-3.2016,-3.3168,-3.434,-3.5334,-3.657,-3.8355,-3.9606,-4.0267,-4.0348,-4.0233,-4.0014,-3.9748,-3.9371,-3.9088,-3.9015,-3.8864,-3.8504,-3.8255,-3.8276,-3.8247,-3.8058,-3.7809,-3.7667,-3.7649,-3.7703,-3.7792,-3.7792,-3.7246,-3.6781,-3.6539,-3.6291,-3.5968,-3.5766,-3.5677,-3.5633,0.4538,0.4448,0.435,0.3147,0.1707,0.0702,0.02,-0.0101,0.04,0.0703,0.0905,-0.0101,-0.0604,-0.0804,-0.1508,-0.181,-0.1911,-0.191,-0.1706,-0.02,-0.1201,-0.15,-0.1795,-0.1998,-0.2987,-0.3489,-0.4088,-0.498,-0.5591,-0.7288,-0.8989,-0.992,-1.0974,-1.1356,-1.0854,-1.056,-1.0045,-0.9726,-0.7461,-0.6082,-0.6465,-0.7165,-0.8164,-0.9816,-1.0821,-1.1736,-1.2437,-1.2641,-1.2794,-1.3091,-1.3175,-1.3065,-1.451,-1.5651,-1.7009,-1.8726,-2.0518,-2.1748,-2.2933,-2.4448,-2.5711,-2.7043,-2.8302,-2.9059,-2.9173,-2.9044,-2.9189,-2.9421,-2.916,-2.9,-2.9373,-2.9678,-2.984,-2.9824,-3.0144,-3.045,-3.0493,-3.0658,-3.1233,-3.1622,-3.2539,-3.3761,-3.5166,-3.6127,-3.7353,-3.9126,-4.0263,-4.0967,-4.0969,-4.0819,-4.047,-4.025,-4.0156,-3.9753,-3.9502,-3.9334,-3.9129,-3.8936,-3.8933,-3.8465,-3.8076,-3.79,-3.7721,-3.7757,-3.7756,-3.7596,-3.7469,-3.6939,-3.6498,-3.6266,-3.6011,-3.5694,-3.5605,-3.581,-3.6054,0.3278,0.3102,0.1764,0.0477,-0.0491,-0.165,-0.1754,-0.1477,-0.1942,-0.1374,-0.0702,-0.1609,-0.2313,-0.2511,-0.3515,-0.3819,-0.4028,-0.4227,-0.4626,-0.4414,-0.4816,-0.539,-0.5976,-0.6267,-0.7063,-0.7848,-0.8441,-0.8837,-0.9535,-1.0835,-1.1833,-1.2425,-1.3006,-1.2807,-1.2598,-1.2302,-1.2383,-1.3052,-1.1666,-1.0387,-1.0863,-1.0983,-1.1594,-1.2383,-1.3102,-1.329,-1.3632,-1.3188,-1.3188,-1.3264,-1.2892,-1.421,-1.675,-1.8,-1.9942,-2.207,-2.3221,-2.4363,-2.5516,-2.6388,-2.7245,-2.8158,-2.9059,-2.9337,-2.9466,-2.933,-2.9356,-2.9624,-2.9608,-2.9528,-2.9537,-2.9772,-2.9918,-2.9868,-2.9879,-3.0011,-3.0083,-3.0763,-3.145,-3.2226,-3.3055,-3.4313,-3.5732,-3.7044,-3.8354,-3.9452,-4.0496,-4.108,-4.0884,-4.0664,-4.0114,-4.0023,-4.0718,-4.0516,-4.0134,-3.9797,-3.9555,-3.9511,-3.9483,-3.891,-3.8219,-3.8419,-3.8564,-3.799,-3.7756,-3.7558,-3.722,-3.6684,-3.6291,-3.6097,-3.6097,-3.5924,-3.5994,-3.6165,-3.6457,0.2333,0.1708,0.0,-0.1221,-0.2018,-0.3056,-0.3445,-0.3658,-0.3822,-0.3463,-0.2934,-0.3143,-0.3355,-0.3674,-0.4775,-0.5409,-0.5525,-0.6139,-0.6625,-0.7117,-0.7704,-0.8663,-0.9445,-1.021,-1.1255,-1.194,-1.2062,-1.2464,-1.2876,-1.2898,-1.3199,-1.3674,-1.3968,-1.4345,-1.4339,-1.4309,-1.4772,-1.5846,-1.5126,-1.5201,-1.5106,-1.438,-1.3843,-1.4358,-1.4607,-1.476,-1.4961,-1.4695,-1.487,-1.5116,-1.5168,-1.6871,-1.9187,-2.076,-2.2648,-2.4648,-2.6057,-2.717,-2.8166,-2.8822,-2.9024,-2.9957,-3.1155,-3.1912,-3.1754,-3.1569,-3.0728,-3.0807,-3.0131,-2.9947,-2.9854,-3.0001,-2.9893,-2.9813,-3.0011,-3.0129,-3.0553,-3.1116,-3.1834,-3.261,-3.3493,-3.4491,-3.5831,-3.6985,-3.8366,-3.9941,-4.0926,-4.0822,-4.0654,-4.0206,-3.9761,-3.9503,-3.9984,-4.0525,-4.0333,-4.0123,-4.0032,-3.9994,-3.9864,-3.9679,-3.9278,-3.9442,-3.9463,-3.8492,-3.7791,-3.745,-3.7021,-3.6527,-3.6249,-3.6097,-3.6207,-3.6274,-3.6399,-3.6498,-3.6713,0.1251,0.0179,-0.1368,-0.2416,-0.3112,-0.3955,-0.4902,-0.5667,-0.5373,-0.5366,-0.5462,-0.4712,-0.4687,-0.5063,-0.5681,-0.6051,-0.6699,-0.7713,-0.8403,-0.9076,-0.9653,-1.1288,-1.2619,-1.357,-1.4615,-1.5295,-1.5416,-1.4874,-1.4524,-1.4721,-1.4721,-1.4345,-1.4918,-1.5684,-1.6048,-1.6865,-1.778,-1.8601,-1.8843,-1.948,-1.8394,-1.6743,-1.6289,-1.6216,-1.6195,-1.5937,-1.6555,-1.6862,-1.7098,-1.7524,-1.7959,-1.9956,-2.1722,-2.3379,-2.524,-2.7097,-2.8673,-2.9605,-3.0446,-3.1111,-3.1657,-3.2464,-3.3793,-3.4045,-3.3713,-3.3061,-3.2193,-3.1367,-3.0687,-3.0222,-3.0115,-3.0068,-2.9931,-3.0007,-3.0205,-3.0702,-3.1204,-3.1709,-3.2407,-3.314,-3.3998,-3.498,-3.6056,-3.7153,-3.8478,-4.0129,-4.068,-4.0438,-4.012,-3.9482,-3.8925,-3.8579,-3.8631,-3.9193,-3.9771,-4.0151,-4.0011,-3.9749,-3.959,-3.9973,-4.005,-3.9351,-3.8848,-3.8485,-3.7884,-3.7396,-3.7003,-3.655,-3.6333,-3.6224,-3.6464,-3.6666,-3.6603,-3.6719,-3.6823,-0.0528,-0.1431,-0.2693,-0.3728,-0.4524,-0.5466,-0.6111,-0.6456,-0.6635,-0.6764,-0.6783,-0.7065,-0.6847,-0.6346,-0.6637,-0.7277,-0.8637,-0.9661,-1.0547,-1.1312,-1.2715,-1.4355,-1.5779,-1.6943,-1.7742,-1.8141,-1.8349,-1.8103,-1.6893,-1.6994,-1.7102,-1.6546,-1.6546,-1.739,-1.8203,-1.9182,-2.0202,-2.1105,-2.2039,-2.2544,-2.2039,-2.0562,-1.9265,-1.902,-1.8881,-1.8472,-1.83,-1.8017,-1.8203,-1.8914,-2.0371,-2.2611,-2.4365,-2.5918,-2.7653,-2.9497,-3.1048,-3.2031,-3.2776,-3.3198,-3.3726,-3.3798,-3.4613,-3.4546,-3.4067,-3.351,-3.2616,-3.1674,-3.0955,-3.0129,-2.9946,-3.0054,-2.9993,-3.0401,-3.0731,-3.1742,-3.2576,-3.2874,-3.334,-3.4043,-3.4742,-3.5728,-3.6719,-3.7653,-3.8451,-3.9688,-4.0158,-3.9948,-3.9578,-3.8848,-3.8116,-3.783,-3.7527,-3.78,-3.8374,-3.9522,-3.9647,-3.9394,-3.9256,-3.9526,-3.9294,-3.8362,-3.7913,-3.7969,-3.7637,-3.7176,-3.68,-3.6561,-3.6655,-3.6615,-3.6882,-3.702,-3.6995,-3.7061,-3.7353]}]]